ftp/pub/palmer/observations_modified/2019/October/original_files/AR191018_BASE.txt

Download

Sample DateTime	Unit Id	WS Avg 2min	WD Avg 2min	WGS 10min	WGD 10min	Air Temp	Rel Humidity	Dew Point	Pyranometer	Quantum	Air Pressure	Snow Level	Rainfall	PW Current	Visibility	CBase 1	CBase 2	CBase 3	Vert Vis
2019/10/18 00:00:00	BASE	18.19	23	21.97	21	0.7	100	0.7	0	0	980.1	NA	0.0000		9999	1900	0	0	0
2019/10/18 00:01:00	BASE	18.51	22	21.97	21	0.7	100	0.7	0	0	980.1	NA	0.0000		9999	1900	0	0	0
2019/10/18 00:02:00	BASE	19.55	22	22.12	24	0.8	100	0.8	0	0	980.0	NA	0.0000		9999	1900	0	0	0
2019/10/18 00:03:00	BASE	20.78	21	23.00	22	0.8	100	0.8	0	0	980.0	NA	0.0000		9999	1670	0	0	0
2019/10/18 00:04:00	BASE	20.60	21	23.00	22	0.8	100	0.8	0	0	980.1	NA	0.0000		9999	1640	0	0	0
2019/10/18 00:05:00	BASE	20.17	22	23.00	22	0.8	100	0.8	0	0	980.1	NA	0.0000		9999	1770	0	0	0
2019/10/18 00:06:00	BASE	19.73	19	23.00	22	0.8	100	0.8	0	0	980.1	NA	0.0000		9999	1380	0	0	0
2019/10/18 00:07:00	BASE	18.31	16	23.00	22	0.8	100	0.8	0	0	980.2	NA	0.0000		9999	1410	0	0	0
2019/10/18 00:08:00	BASE	16.87	14	23.00	22	0.8	100	0.8	0	0	980.2	NA	0.0000		9999	1380	0	0	0
2019/10/18 00:09:00	BASE	17.14	16	23.00	22	0.8	100	0.8	0	0	980.1	NA	0.0000		9999	1350	0	0	0
2019/10/18 00:10:00	BASE	18.74	18	23.00	22	0.8	100	0.8	0	0	980.0	NA	0.0000		9999	1210	0	0	0
2019/10/18 00:11:00	BASE	19.89	19	23.00	22	0.8	100	0.8	0	0	980.0	NA	0.0000		9999	430	0	0	0
2019/10/18 00:12:00	BASE	20.74	16	23.00	22	0.8	100	0.8	0	0	979.9	NA	0.0000		9999	430	1570	0	0
2019/10/18 00:13:00	BASE	19.94	16	22.94	10	0.8	100	0.8	0	0	979.9	NA	0.0000		9999	390	0	0	0
2019/10/18 00:14:00	BASE	18.83	18	22.94	10	0.8	100	0.8	0	0	979.9	NA	0.0000		9999	390	0	0	0
2019/10/18 00:15:00	BASE	19.83	18	22.94	14	0.7	100	0.7	0	0	979.8	NA	0.0000		9999	390	0	0	0
2019/10/18 00:16:00	BASE	19.54	17	22.94	14	0.7	100	0.7	0	0	979.8	NA	0.0000		9999	430	1610	0	0
2019/10/18 00:17:00	BASE	17.90	18	22.94	14	0.7	100	0.7	0	0	979.8	NA	0.0000		9999	430	0	0	0
2019/10/18 00:18:00	BASE	17.59	18	22.94	14	0.7	100	0.7	0	0	979.8	NA	0.0000		9999	2170	0	0	0
2019/10/18 00:19:00	BASE	18.56	18	22.94	14	0.7	100	0.7	0	0	979.7	NA	0.0000		9999	1900	4000	0	0
2019/10/18 00:20:00	BASE	19.23	18	22.94	14	0.7	100	0.7	0	0	979.7	NA	0.0000		9999	1800	0	0	0
2019/10/18 00:21:01	BASE	19.11	18	22.94	14	0.7	100	0.7	0	0	979.7	NA	0.0000		9999	1940	0	0	0
2019/10/18 00:22:00	BASE	19.15	17	22.94	14	0.7	100	0.7	0	0	979.7	NA	0.0000		9999	2070	2790	0	0
2019/10/18 00:23:00	BASE	19.44	17	22.94	14	0.8	100	0.8	0	0	979.6	NA	0.0000		9999	2330	0	0	0
2019/10/18 00:24:00	BASE	19.78	18	22.94	14	0.8	100	0.8	0	0	979.6	NA	0.0000		9999	2400	0	0	0
2019/10/18 00:25:00	BASE	19.92	19	22.64	17	0.8	100	0.8	0	0	979.5	NA	0.0000		9999	2260	0	0	0
2019/10/18 00:26:00	BASE	21.11	18	24.90	23	0.9	100	0.9	0	0	979.4	NA	0.0000		9999	2130	0	0	0
2019/10/18 00:27:00	BASE	21.27	17	24.90	23	0.9	100	0.9	0	0	979.5	NA	0.0000		9999	1710	0	0	0
2019/10/18 00:28:00	BASE	21.08	18	24.90	23	0.9	100	0.9	0	0	979.4	NA	0.0000		9999	1710	0	0	0
2019/10/18 00:29:00	BASE	21.50	18	24.90	23	0.9	100	0.9	0	0	979.4	NA	0.0000		9999	1800	0	0	0
2019/10/18 00:30:00	BASE	20.58	17	24.90	23	0.9	100	0.9	0	0	979.4	NA	0.0000		9999	1800	0	0	0
2019/10/18 00:31:00	BASE	19.37	16	24.90	23	0.9	100	0.9	0	0	979.5	NA	0.0000		9999	1800	0	0	0
2019/10/18 00:32:00	BASE	19.31	18	24.90	23	0.9	100	0.9	0	0	979.4	NA	0.0000		9999	1870	0	0	0
2019/10/18 00:33:00	BASE	20.34	18	24.90	23	1.0	100	1.0	0	0	979.3	NA	0.0000		9999	1840	0	0	0
2019/10/18 00:34:00	BASE	20.36	18	24.90	23	1.0	100	1.0	0	0	979.4	NA	0.0000		9999	850	0	0	0
2019/10/18 00:35:00	BASE	19.72	18	24.90	23	1.0	100	1.0	0	0	979.4	NA	0.0000		9999	1800	0	0	0
2019/10/18 00:36:00	BASE	20.41	17	24.49	20	1.0	100	1.0	0	0	979.3	NA	0.0000		9999	2000	0	0	0
2019/10/18 00:37:00	BASE	20.49	16	24.49	20	1.0	100	1.0	0	0	979.3	NA	0.0000		9999	2330	0	0	0
2019/10/18 00:38:00	BASE	19.80	17	24.49	20	1.0	100	1.0	0	0	979.3	NA	0.0000		9999	1970	0	0	0
2019/10/18 00:39:00	BASE	20.00	19	23.72	22	1.1	100	1.1	0	0	979.3	NA	0.0000		9999	1900	0	0	0
2019/10/18 00:40:00	BASE	20.37	18	23.72	22	1.1	100	1.1	0	0	979.3	NA	0.0000		9999	1800	0	0	0
2019/10/18 00:41:00	BASE	20.27	16	23.72	22	1.1	100	1.1	0	0	979.3	NA	0.0000		9999	3250	0	0	0
2019/10/18 00:42:00	BASE	19.87	14	23.72	22	1.1	100	1.1	0	0	979.3	NA	0.0000		9999	2260	0	0	0
2019/10/18 00:43:00	BASE	19.54	12	23.51	21	1.2	100	1.2	0	0	979.3	NA	0.0000		9999	0	0	0	3710
2019/10/18 00:44:00	BASE	19.71	13	23.51	21	1.2	100	1.2	0	0	979.3	NA	0.0000		9999	0	0	0	3540
2019/10/18 00:45:00	BASE	19.94	13	23.51	21	1.2	100	1.2	0	0	979.3	NA	0.0000		9999	720	0	0	0
2019/10/18 00:46:00	BASE	19.60	11	22.38	17	1.3	100	1.3	0	0	979.4	NA	0.0000		9999	390	0	0	0
2019/10/18 00:47:00	BASE	20.51	10	22.74	7	1.3	100	1.3	0	0	979.3	NA	0.0000		9999	590	0	0	0
2019/10/18 00:48:00	BASE	20.94	10	22.74	7	1.3	100	1.3	0	0	979.3	NA	0.0000		9999	1020	0	0	0
2019/10/18 00:49:00	BASE	21.02	11	23.20	13	1.3	100	1.3	0	0	979.3	NA	0.0000		9999	0	0	0	3350
2019/10/18 00:50:00	BASE	21.97	12	23.97	9	1.4	100	1.4	0	0	979.2	NA	0.0000		9999	850	0	0	0
2019/10/18 00:51:00	BASE	21.71	11	23.97	9	1.4	100	1.4	0	0	979.3	NA	0.0000		9999	0	0	0	3250
2019/10/18 00:52:00	BASE	20.71	7	23.97	9	1.4	100	1.4	0	0	979.3	NA	0.0000		9999	0	0	0	3220
2019/10/18 00:53:00	BASE	20.73	6	23.97	9	1.4	100	1.4	0	0	979.3	NA	0.0000		9999	690	0	0	0
2019/10/18 00:54:00	BASE	20.97	6	23.97	9	1.4	100	1.4	0	0	979.3	NA	0.0000		9999	2200	2890	0	0
2019/10/18 00:55:00	BASE	20.43	6	23.97	9	1.4	100	1.4	0	0	979.4	NA	0.0000		9999	2850	0	0	0
2019/10/18 00:56:00	BASE	20.80	8	23.97	9	1.3	100	1.3	0	0	979.3	NA	0.0000		9999	2890	0	0	0
2019/10/18 00:57:00	BASE	21.22	9	23.97	9	1.3	100	1.3	0	0	979.3	NA	0.0000		9999	2300	0	0	0
2019/10/18 00:58:00	BASE	21.56	8	23.97	9	1.3	100	1.3	0	0	979.2	NA	0.0000		9999	2170	0	0	0
2019/10/18 00:59:00	BASE	19.73	6	23.97	9	1.3	100	1.3	0	0	979.3	NA	0.0000		9999	2360	0	0	0
2019/10/18 01:00:00	BASE	18.59	4	23.92	6	1.3	100	1.3	0	0	979.3	NA	0.0000		9999	2330	0	0	0
2019/10/18 01:01:00	BASE	20.70	3	23.92	6	1.3	100	1.3	0	0	979.2	NA	0.0000		9999	2920	0	0	0
2019/10/18 01:02:00	BASE	20.98	2	23.92	6	1.3	100	1.3	0	0	979.2	NA	0.0000		9999	460	0	0	0
2019/10/18 01:03:00	BASE	20.42	3	23.82	7	1.3	100	1.3	0	0	979.2	NA	0.0000		9999	690	0	0	0
2019/10/18 01:04:00	BASE	19.85	4	23.82	7	1.2	100	1.2	0	0	979.3	NA	0.0000		9999	1970	3120	0	0
2019/10/18 01:05:00	BASE	19.15	360	23.82	7	1.2	100	1.2	0	0	979.3	NA	0.0000		9999	4040	0	0	0
2019/10/18 01:06:00	BASE	19.62	359	23.82	7	1.2	100	1.2	0	0	979.2	NA	0.0000		9999	3770	0	0	0
2019/10/18 01:07:00	BASE	20.94	4	23.82	7	1.2	100	1.2	0	0	979.2	NA	0.0000		9999	4040	0	0	0
2019/10/18 01:08:00	BASE	21.63	3	24.13	360	1.2	100	1.2	0	0	979.2	NA	0.0000		9999	2660	0	0	0
2019/10/18 01:09:00	BASE	21.58	3	24.13	6	1.1	100	1.1	0	0	979.1	NA	0.0000		9999	3310	0	0	0
2019/10/18 01:10:00	BASE	21.93	5	24.13	6	1.1	100	1.1	0	0	979.1	NA	0.0000		9999	2920	0	0	0
2019/10/18 01:11:00	BASE	22.94	8	25.98	9	1.1	100	1.1	0	0	979.0	NA	0.0000		9999	4100	0	0	0
2019/10/18 01:12:00	BASE	23.73	8	26.91	7	1.1	100	1.1	0	0	978.9	NA	0.0000		9999	820	0	0	0
2019/10/18 01:13:00	BASE	24.13	6	26.91	7	1.1	100	1.1	0	0	978.9	NA	0.0000		9999	4170	0	0	0
2019/10/18 01:14:00	BASE	24.53	6	26.96	7	1.1	100	1.1	0	0	978.9	NA	0.0000		9999	460	0	0	0
2019/10/18 01:15:00	BASE	24.53	7	26.96	7	1.1	100	1.1	0	0	978.9	NA	0.0000		9999	3900	0	0	0
2019/10/18 01:16:00	BASE	23.91	6	26.96	7	1.1	100	1.1	0	0	978.9	NA	0.0000		9999	4360	0	0	0
2019/10/18 01:17:00	BASE	23.35	6	26.96	7	1.1	100	1.1	0	0	978.9	NA	0.0000		9999	590	0	0	0
2019/10/18 01:18:00	BASE	24.26	5	26.96	7	1.1	100	1.1	0	0	978.9	NA	0.0000		9999	390	0	0	0
2019/10/18 01:19:00	BASE	23.43	3	26.96	7	1.1	100	1.1	0	0	979.1	NA	0.0000		9999	430	0	0	0
2019/10/18 01:20:00	BASE	20.92	6	26.96	7	1.1	100	1.1	0	0	979.2	NA	0.0000		9999	0	0	0	3710
2019/10/18 01:21:00	BASE	19.12	2	26.96	7	1.1	100	1.1	0	0	979.3	NA	0.0000		9999	1740	0	0	0
2019/10/18 01:22:00	BASE	18.54	358	26.96	7	1.1	100	1.1	0	0	979.2	NA	0.0000		9999	690	0	0	0
2019/10/18 01:23:00	BASE	19.11	1	26.96	7	1.1	100	1.1	0	0	979.2	NA	0.0000		9999	330	0	0	0
2019/10/18 01:24:00	BASE	19.29	357	26.65	6	1.1	100	1.1	0	0	979.2	NA	0.0000		9999	0	0	0	2720
2019/10/18 01:25:00	BASE	19.75	354	26.65	6	1.0	100	1.0	0	0	979.2	NA	0.0000		9999	360	0	0	0
2019/10/18 01:26:00	BASE	20.37	358	26.65	6	1.0	100	1.0	0	0	979.2	NA	0.0000		9999	230	2070	0	0
2019/10/18 01:27:00	BASE	20.38	2	26.65	6	1.0	100	1.0	0	0	979.2	NA	0.0000		9999	230	0	0	0
2019/10/18 01:28:00	BASE	19.60	3	23.51	3	1.0	100	1.0	0	0	979.2	NA	0.0000		9999	360	0	0	0
2019/10/18 01:29:00	BASE	18.59	3	22.84	2	0.9	100	0.9	0	0	979.2	NA	0.0000		9999	390	0	0	0
2019/10/18 01:30:00	BASE	19.39	4	22.84	2	0.9	100	0.9	0	0	979.2	NA	0.0000		9999	1670	0	0	0
2019/10/18 01:31:00	BASE	20.34	4	22.84	2	0.9	100	0.9	0	0	979.2	NA	0.0000		9999	1770	0	0	0
2019/10/18 01:32:00	BASE	18.71	359	22.84	2	0.9	100	0.9	0	0	979.3	NA	0.0000		9999	1740	0	0	0
2019/10/18 01:33:00	BASE	16.52	353	22.84	2	0.9	100	0.9	0	0	979.4	NA	0.0000		9999	1640	0	0	0
2019/10/18 01:34:00	BASE	15.13	353	22.84	2	0.9	100	0.9	0	0	979.5	NA	0.0000		9999	1540	0	0	0
2019/10/18 01:35:00	BASE	14.64	355	22.84	2	0.9	100	0.9	0	0	979.5	NA	0.0000		9999	1610	0	0	0
2019/10/18 01:36:00	BASE	14.17	351	22.69	360	0.9	100	0.9	0	0	979.5	NA	0.0000		9999	1540	0	0	0
2019/10/18 01:37:00	BASE	15.34	347	22.69	360	0.9	100	0.9	0	0	979.5	NA	0.0000		9999	1570	0	0	0
2019/10/18 01:38:00	BASE	16.97	346	22.69	360	0.9	100	0.9	0	0	979.5	NA	0.0000		9999	1510	0	0	0
2019/10/18 01:39:00	BASE	17.25	344	22.69	360	0.9	100	0.9	0	0	979.4	NA	0.0000		9999	1210	0	0	0
2019/10/18 01:40:00	BASE	17.75	345	21.71	360	0.9	100	0.9	0	0	979.5	NA	0.0000		9999	1310	0	0	0
2019/10/18 01:41:00	BASE	18.06	348	20.06	344	0.9	100	0.9	0	0	979.5	NA	0.0000		9999	1310	0	0	0
2019/10/18 01:42:00	BASE	18.50	350	22.17	355	0.9	100	0.9	0	0	979.4	NA	0.0000		9999	1380	0	0	0
2019/10/18 01:43:00	BASE	18.94	353	22.43	350	0.8	100	0.8	0	0	979.5	NA	0.0000		9999	1380	0	0	0
2019/10/18 01:44:00	BASE	18.59	355	22.43	350	0.8	100	0.8	0	0	979.5	NA	0.0000		9999	1210	4820	0	0
2019/10/18 01:45:00	BASE	18.62	354	22.43	350	0.8	100	0.8	0	0	979.4	NA	0.0000		9999	1670	2530	4040	0
2019/10/18 01:46:00	BASE	18.84	350	22.43	350	0.8	100	0.8	0	0	979.4	NA	0.0000		9999	3940	0	0	0
2019/10/18 01:47:00	BASE	18.95	350	22.43	350	0.8	100	0.8	0	0	979.4	NA	0.0000		9999	0	0	0	1210
2019/10/18 01:48:00	BASE	18.15	356	22.43	350	0.8	100	0.8	0	0	979.5	NA	0.0000		9999	2460	0	0	0
2019/10/18 01:49:00	BASE	17.37	357	22.43	350	0.7	100	0.7	0	0	979.5	NA	0.0000		9999	3080	0	0	0
2019/10/18 01:50:00	BASE	17.87	357	22.43	350	0.7	100	0.7	0	0	979.5	NA	0.0000		9999	3150	0	0	0
2019/10/18 01:51:00	BASE	17.10	355	22.43	350	0.7	100	0.7	0	0	979.6	NA	0.0000		9999	3380	0	0	0
2019/10/18 01:52:00	BASE	16.82	352	22.43	350	0.6	100	0.6	0	0	979.6	NA	0.0000		9999	360	0	0	0
2019/10/18 01:53:00	BASE	19.20	352	23.72	348	0.6	100	0.6	0	0	979.4	NA	0.0000		9999	260	0	0	0
2019/10/18 01:54:00	BASE	21.31	346	23.72	348	0.6	100	0.6	0	0	979.4	NA	0.0000		9999	0	0	0	1250
2019/10/18 01:55:00	BASE	21.71	345	23.72	348	0.6	100	0.5	0	0	979.3	NA	0.0000		9999	0	0	0	1480
2019/10/18 01:56:00	BASE	20.22	351	23.72	348	0.5	100	0.5	0	0	979.4	NA	0.0000	UP	9999	0	0	0	1900
2019/10/18 01:57:00	BASE	18.37	351	23.72	348	0.5	100	0.5	0	0	979.4	NA	0.0000	UP	9999	4200	0	0	0
2019/10/18 01:58:00	BASE	17.02	353	23.72	348	0.4	100	0.4	0	0	979.5	NA	0.0000	UP	9999	4200	0	0	0
2019/10/18 01:59:00	BASE	18.81	3	25.41	12	0.4	100	0.4	0	0	979.2	NA	0.0000	UP	9999	3970	0	0	0
2019/10/18 02:00:00	BASE	22.84	5	26.34	1	0.4	100	0.4	0	0	979.1	NA	0.0000	UP	9999	4300	0	0	0
2019/10/18 02:01:00	BASE	24.18	5	26.34	1	0.4	100	0.4	0	0	979.1	NA	0.0000	UP	9999	3970	0	0	0
2019/10/18 02:02:00	BASE	24.87	5	27.01	3	0.5	100	0.5	0	0	979.0	NA	0.0000	UP	9999	3640	0	0	0
2019/10/18 02:03:00	BASE	25.00	6	27.01	3	0.5	100	0.5	0	0	979.0	NA	0.0000	UP	9999	3450	0	0	0
2019/10/18 02:04:00	BASE	24.62	8	27.01	3	0.5	100	0.5	0	0	979.0	NA	0.0000	UP	9999	3610	4460	0	0
2019/10/18 02:05:00	BASE	24.25	9	27.01	3	0.5	100	0.5	0	0	979.1	NA	0.0000	UP	9999	4400	0	0	0
2019/10/18 02:06:00	BASE	24.49	10	27.01	3	0.5	100	0.5	0	0	979.0	NA	0.0000	UP	9999	4630	0	0	0
2019/10/18 02:07:00	BASE	24.17	10	27.01	3	0.5	100	0.5	0	0	979.0	NA	0.0000		9999	4360	0	0	0
2019/10/18 02:08:00	BASE	24.35	8	27.01	3	0.5	100	0.5	0	0	979.0	NA	0.0000		9999	4790	0	0	0
2019/10/18 02:09:00	BASE	24.77	7	27.01	3	0.5	100	0.5	0	0	979.0	NA	0.0000		9999	4920	0	0	0
2019/10/18 02:10:00	BASE	24.49	6	27.01	3	0.4	100	0.4	0	0	979.1	NA	0.0000		9999	4990	0	0	0
2019/10/18 02:11:00	BASE	24.78	7	27.01	3	0.4	100	0.4	0	0	979.1	NA	0.0000		9999	4790	0	0	0
2019/10/18 02:12:00	BASE	23.84	7	26.96	3	0.4	100	0.4	0	0	979.2	NA	0.0000		9999	4690	0	0	0
2019/10/18 02:13:00	BASE	22.63	4	26.85	9	0.4	100	0.4	0	0	979.3	NA	0.0000		9999	4460	0	0	0
2019/10/18 02:14:00	BASE	21.40	1	26.85	9	0.4	100	0.4	0	0	979.4	NA	0.0000		9999	4490	0	0	0
2019/10/18 02:15:00	BASE	20.42	1	26.85	9	0.4	100	0.4	0	0	979.4	NA	0.0000		9999	4330	0	0	0
2019/10/18 02:16:00	BASE	20.04	356	26.85	9	0.4	100	0.4	0	0	979.5	NA	0.0000		9999	4330	0	0	0
2019/10/18 02:17:00	BASE	19.32	353	26.85	9	0.3	100	0.3	0	0	979.6	NA	0.0000		9999	4400	0	0	0
2019/10/18 02:18:00	BASE	19.58	351	26.85	9	0.3	100	0.3	0	0	979.5	NA	0.0000		9999	4300	0	0	0
2019/10/18 02:19:00	BASE	19.16	349	26.85	9	0.3	100	0.3	0	0	979.7	NA	0.0000		9999	4200	0	0	0
2019/10/18 02:20:00	BASE	19.10	350	26.85	9	0.3	100	0.3	0	0	979.6	NA	0.0000		9999	4230	0	0	0
2019/10/18 02:21:00	BASE	19.87	353	24.85	3	0.3	100	0.3	0	0	979.6	NA	0.0000		9999	3220	4270	0	0
2019/10/18 02:22:00	BASE	18.78	356	24.28	3	0.3	100	0.3	0	0	979.6	NA	0.0000		9999	3870	0	0	0
2019/10/18 02:23:00	BASE	18.15	357	23.10	354	0.3	100	0.3	0	0	979.6	NA	0.0000		9999	3510	0	0	0
2019/10/18 02:24:00	BASE	18.63	353	23.10	354	0.3	100	0.3	0	0	979.6	NA	0.0000		9999	3150	0	0	0
2019/10/18 02:25:00	BASE	18.86	354	23.10	354	0.3	100	0.3	0	0	979.6	NA	0.0000		9999	3020	0	0	0
2019/10/18 02:26:00	BASE	19.31	356	21.97	360	0.3	100	0.3	0	0	979.5	NA	0.0000		9999	3080	0	0	0
2019/10/18 02:27:00	BASE	20.82	353	23.20	346	0.3	100	0.3	0	0	979.5	NA	0.0000		9999	260	3220	0	0
2019/10/18 02:28:00	BASE	20.87	347	23.20	346	0.3	100	0.3	0	0	979.6	NA	0.0000		9999	3150	0	0	0
2019/10/18 02:29:00	BASE	19.94	349	23.20	346	0.3	100	0.3	0	0	979.5	NA	0.0000	UP	9999	230	0	0	0
2019/10/18 02:30:00	BASE	20.07	356	23.20	346	0.3	100	0.3	0	0	979.6	NA	0.0000	UP	9999	0	0	0	1510
2019/10/18 02:31:00	BASE	19.19	0	23.20	346	0.3	100	0.3	0	0	979.7	NA	0.0000	UP	9999	0	0	0	1770
2019/10/18 02:32:00	BASE	18.24	1	23.20	346	0.3	100	0.3	0	0	979.7	NA	0.0000	UP	9999	230	0	0	0
2019/10/18 02:33:00	BASE	18.01	359	23.20	346	0.3	100	0.3	0	0	979.7	NA	0.0000	UP	9999	360	0	0	0
2019/10/18 02:34:00	BASE	18.14	1	23.20	346	0.3	100	0.3	0	0	979.6	NA	0.0000	UP	9999	0	0	0	3870
2019/10/18 02:35:00	BASE	19.26	1	23.20	346	0.3	100	0.3	0	0	979.6	NA	0.0000	UP	9999	360	0	0	0
2019/10/18 02:36:00	BASE	19.06	3	23.20	346	0.3	100	0.3	0	0	979.6	NA	0.0000	UP	9999	0	0	0	3510
2019/10/18 02:37:00	BASE	18.05	359	22.17	279	0.3	100	0.3	0	0	979.6	NA	0.0000	UP	9999	360	0	0	0
2019/10/18 02:38:00	BASE	17.66	354	22.17	279	0.3	100	0.3	0	0	979.7	NA	0.0000	UP	9999	360	0	0	0
2019/10/18 02:39:00	BASE	17.29	3	22.17	279	0.3	100	0.3	0	0	979.7	NA	0.0000	UP	9999	260	0	0	0
2019/10/18 02:40:00	BASE	16.87	10	21.66	2	0.3	100	0.3	0	0	979.7	NA	0.0000	UP	9999	330	0	0	0
2019/10/18 02:41:00	BASE	16.50	2	21.66	2	0.3	100	0.3	0	0	979.8	NA	0.0000	UP	9999	330	0	0	0
2019/10/18 02:42:00	BASE	15.87	353	21.66	2	0.3	100	0.2	0	0	979.8	NA	0.0000		9999	0	0	0	2590
2019/10/18 02:43:00	BASE	15.73	351	21.66	2	0.2	100	0.2	0	0	979.8	NA	0.0000		9999	260	0	0	0
2019/10/18 02:44:00	BASE	16.78	356	21.66	2	0.2	100	0.2	0	0	979.8	NA	0.0000		9999	260	0	0	0
2019/10/18 02:45:00	BASE	17.82	3	20.32	5	0.2	100	0.2	0	0	979.8	NA	0.0000	UP	9999	300	0	0	0
2019/10/18 02:46:00	BASE	17.80	360	20.32	5	0.3	100	0.3	0	0	979.8	NA	0.0000	UP	9999	260	1900	0	0
2019/10/18 02:47:00	BASE	16.81	356	20.32	5	0.3	100	0.3	0	0	979.8	NA	0.0000	UP	9999	330	0	0	0
2019/10/18 02:48:00	BASE	17.09	1	20.32	5	0.3	100	0.3	0	0	979.8	NA	0.0000	UP	9999	1540	0	0	0
2019/10/18 02:49:00	BASE	18.54	1	20.47	1	0.3	100	0.3	0	0	979.8	NA	0.0000	UP	9999	1510	0	0	0
2019/10/18 02:50:00	BASE	19.14	358	20.53	354	0.3	100	0.3	0	0	979.8	NA	0.0000	UP	9999	1020	0	0	0
2019/10/18 02:51:00	BASE	18.43	352	20.53	354	0.3	100	0.3	0	0	979.9	NA	0.0000	UP	9999	1280	0	0	0
2019/10/18 02:52:00	BASE	18.07	351	20.53	354	0.3	100	0.3	0	0	979.9	NA	0.0000	UP	9999	920	0	0	0
2019/10/18 02:53:00	BASE	18.79	350	20.53	348	0.3	100	0.3	0	0	979.9	NA	0.0000	UP	9999	850	0	0	0
2019/10/18 02:54:00	BASE	18.57	346	21.14	339	0.3	100	0.3	0	0	979.9	NA	0.0000	UP	9999	890	0	0	0
2019/10/18 02:55:00	BASE	17.82	343	21.14	339	0.3	100	0.3	0	0	979.9	NA	0.0000	UP	9999	590	0	0	0
2019/10/18 02:56:00	BASE	18.12	347	21.56	347	0.3	100	0.3	0	0	979.9	NA	0.0000	UP	9999	430	0	0	0
2019/10/18 02:57:00	BASE	18.67	350	21.56	347	0.4	100	0.4	0	0	979.9	NA	0.0000		9999	390	0	0	0
2019/10/18 02:58:00	BASE	18.55	349	21.56	347	0.4	100	0.4	0	0	979.9	NA	0.0000		9999	390	0	0	0
2019/10/18 02:59:00	BASE	17.52	347	21.56	347	0.4	100	0.4	0	0	980.0	NA	0.0000		9999	0	0	0	2590
2019/10/18 03:00:00	BASE	15.93	348	21.56	347	0.4	100	0.4	0	0	980.1	NA	0.0000		9999	360	0	0	0
2019/10/18 03:01:00	BASE	15.24	348	21.56	347	0.4	100	0.4	0	0	980.1	NA	0.0000		9999	5510	0	0	0
2019/10/18 03:02:00	BASE	15.79	350	21.56	347	0.3	100	0.3	0	0	980.1	NA	0.0000		9999	0	0	0	3380
2019/10/18 03:03:00	BASE	15.88	355	21.56	347	0.3	100	0.3	0	0	980.1	NA	0.0000		9999	0	0	0	3740
2019/10/18 03:04:00	BASE	15.08	354	21.56	347	0.3	100	0.3	0	0	980.1	NA	0.0000		9999	360	0	0	0
2019/10/18 03:05:00	BASE	15.84	350	21.56	347	0.3	100	0.3	0	0	980.1	NA	0.0000		9999	360	0	0	0
2019/10/18 03:06:00	BASE	16.20	349	20.58	346	0.3	100	0.3	0	0	980.1	NA	0.0000		9999	360	0	0	0
2019/10/18 03:07:00	BASE	15.55	351	20.58	346	0.3	100	0.3	0	0	980.2	NA	0.0000		9999	360	0	0	0
2019/10/18 03:08:00	BASE	15.41	353	19.34	351	0.3	100	0.3	0	0	980.2	NA	0.0000		9999	300	0	0	0
2019/10/18 03:09:00	BASE	15.33	350	19.34	351	0.3	100	0.3	0	0	980.2	NA	0.0000		9999	360	0	0	0
2019/10/18 03:10:00	BASE	15.08	352	19.34	351	0.3	100	0.3	0	0	980.2	NA	0.0000		9999	330	2070	0	0
2019/10/18 03:11:00	BASE	15.40	359	19.34	351	0.3	100	0.3	0	0	980.2	NA	0.0000		9999	360	0	0	0
2019/10/18 03:12:00	BASE	16.04	358	19.34	351	0.2	100	0.2	0	0	980.2	NA	0.0000		9999	330	0	0	0
2019/10/18 03:13:00	BASE	15.63	356	19.34	351	0.2	100	0.2	0	0	980.3	NA	0.0000		9999	660	0	0	0
2019/10/18 03:14:00	BASE	15.32	355	19.34	351	0.2	100	0.2	0	0	980.3	NA	0.0000		9999	890	0	0	0
2019/10/18 03:15:00	BASE	15.21	349	17.44	354	0.2	100	0.2	0	0	980.3	NA	0.0000		9999	890	0	0	0
2019/10/18 03:16:00	BASE	15.41	349	17.59	348	0.2	100	0.2	0	0	980.3	NA	0.0000		9999	790	0	0	0
2019/10/18 03:17:00	BASE	15.23	355	17.59	348	0.2	100	0.2	0	0	980.2	NA	0.0000		9999	590	0	0	0
2019/10/18 03:18:00	BASE	15.27	358	17.59	348	0.2	100	0.2	0	0	980.2	NA	0.0000		9999	390	0	0	0
2019/10/18 03:19:00	BASE	15.58	356	17.59	348	0.2	100	0.2	0	0	980.2	NA	0.0000		9999	330	0	0	0
2019/10/18 03:20:00	BASE	15.60	352	17.59	348	0.2	100	0.2	0	0	980.2	NA	0.0000		9999	260	0	0	0
2019/10/18 03:21:00	BASE	16.17	350	18.37	352	0.2	100	0.2	0	0	980.2	NA	0.0000		9999	360	0	0	0
2019/10/18 03:22:00	BASE	16.95	349	18.57	348	0.2	100	0.2	0	0	980.2	NA	0.0000		9999	460	0	0	0
2019/10/18 03:23:00	BASE	16.41	348	18.57	348	0.2	100	0.2	0	0	980.2	NA	0.0000		9999	820	0	0	0
2019/10/18 03:24:00	BASE	16.49	349	18.78	343	0.2	100	0.2	0	0	980.2	NA	0.0000		9999	490	3510	0	0
2019/10/18 03:25:00	BASE	17.80	347	21.40	345	0.2	100	0.2	0	0	980.2	NA	0.0000		9999	430	0	0	0
2019/10/18 03:26:00	BASE	16.76	346	21.40	345	0.2	100	0.2	0	0	980.4	NA	0.0000		9999	300	0	0	0
2019/10/18 03:27:00	BASE	15.32	346	21.40	345	0.2	100	0.2	0	0	980.4	NA	0.0000		9999	0	0	0	1800
2019/10/18 03:28:00	BASE	14.90	345	21.40	345	0.2	100	0.2	0	0	980.4	NA	0.0000		9999	1540	0	0	0
2019/10/18 03:29:00	BASE	14.66	344	21.40	345	0.2	100	0.2	0	0	980.4	NA	0.0000		9999	360	0	0	0
2019/10/18 03:30:00	BASE	15.46	344	21.40	345	0.1	100	0.1	0	0	980.4	NA	0.0000		9999	300	0	0	0
2019/10/18 03:31:00	BASE	16.90	344	21.40	345	0.1	100	0.1	0	0	980.4	NA	0.0000		9999	260	0	0	0
2019/10/18 03:32:00	BASE	18.05	346	21.40	345	0.1	100	0.1	0	0	980.3	NA	0.0000		9999	230	0	0	0
2019/10/18 03:33:00	BASE	18.81	346	21.40	345	0.1	100	0.1	0	0	980.3	NA	0.0000		9999	0	0	0	1480
2019/10/18 03:34:00	BASE	18.37	341	21.40	345	0.0	100	0.0	0	0	980.5	NA	0.0000		9999	0	0	0	1250
2019/10/18 03:35:00	BASE	18.63	339	21.97	344	0.0	100	0.0	0	0	980.4	NA	0.0000		9999	0	0	0	1310
2019/10/18 03:36:00	BASE	19.82	339	21.97	344	-0.0	100	-0.0	0	0	980.4	NA	0.0000		9999	0	0	0	1020
2019/10/18 03:37:00	BASE	18.14	323	21.97	344	-0.1	100	-0.1	0	0	980.7	NA	0.0000	UP	6000	0	0	0	1380
2019/10/18 03:38:00	BASE	15.13	297	21.97	344	-0.2	100	-0.2	0	0	980.7	NA	0.0000	UP BR	4200	230	0	0	0
2019/10/18 03:39:00	BASE	16.25	271	24.18	255	-0.3	100	-0.3	0	0	980.8	NA	0.0000	UP BR	4200	330	2820	0	0
2019/10/18 03:40:00	BASE	21.08	255	24.33	247	-0.5	100	-0.5	0	0	980.7	NA	0.0000	UP BR	3900	0	0	0	3450
2019/10/18 03:41:01	BASE	23.92	253	25.98	248	-0.7	100	-0.7	0	0	980.7	NA	0.0000	UP BR	3900	0	0	0	3280
2019/10/18 03:42:00	BASE	23.08	253	25.98	248	-0.9	100	-0.9	0	0	980.8	NA	0.0000	UP BR	5000	0	0	0	3080
2019/10/18 03:43:00	BASE	22.19	254	25.98	248	-1.0	100	-1.0	0	0	980.9	NA	0.0000	UP BR	5000	2660	0	0	0
2019/10/18 03:44:00	BASE	21.57	254	25.98	248	-1.1	100	-1.1	0	0	981.0	NA	0.0000	UP BR	6000	330	0	0	0
2019/10/18 03:45:00	BASE	20.20	256	25.98	248	-1.2	100	-1.2	0	0	981.1	NA	0.0000	UP BR	6000	330	0	0	0
2019/10/18 03:46:00	BASE	19.29	258	25.98	248	-1.3	100	-1.3	0	0	981.2	NA	0.0000	UP BR	5000	300	0	0	0
2019/10/18 03:47:00	BASE	18.07	259	25.98	248	-1.3	100	-1.3	0	0	981.2	NA	0.0000	UP BR	4400	300	0	0	0
2019/10/18 03:48:00	BASE	16.22	261	25.98	248	-1.3	100	-1.3	0	0	981.3	NA	0.0000	UP BR	3600	260	0	0	0
2019/10/18 03:49:00	BASE	15.91	263	25.98	248	-1.3	100	-1.3	0	0	981.4	NA	0.0000	UP BR	3500	260	0	0	0
2019/10/18 03:50:00	BASE	17.41	262	25.98	248	-1.4	100	-1.4	0	0	981.4	NA	0.0000	UP BR	3000	0	0	0	1150
2019/10/18 03:51:00	BASE	18.56	259	24.18	250	-1.4	100	-1.4	0	0	981.4	NA	0.0000	UP BR	3600	0	0	0	1410
2019/10/18 03:52:00	BASE	18.69	259	24.18	250	-1.4	100	-1.4	0	0	981.5	NA	0.0000	UP BR	3800	0	0	0	2030
2019/10/18 03:53:00	BASE	16.71	266	23.00	263	-1.4	100	-1.4	0	0	981.5	NA	0.0000	UP BR	3700	0	0	0	2030
2019/10/18 03:54:00	BASE	14.90	270	23.00	263	-1.4	100	-1.4	0	0	981.6	NA	0.0000	UP BR	3200	0	0	0	2000
2019/10/18 03:55:00	BASE	14.64	272	23.00	263	-1.4	100	-1.4	0	0	981.6	NA	0.0000	UP BR	3500	0	0	0	2000
2019/10/18 03:56:00	BASE	15.51	277	23.00	263	-1.4	100	-1.4	0	0	981.6	NA	0.0000	UP BR	3800	300	0	0	0
2019/10/18 03:57:00	BASE	15.88	276	23.00	263	-1.4	100	-1.4	0	0	981.7	NA	0.0000	UP BR	3800	300	0	0	0
2019/10/18 03:58:00	BASE	15.52	274	23.00	263	-1.5	100	-1.5	0	0	981.7	NA	0.0000	UP BR	2700	0	0	0	2100
2019/10/18 03:59:00	BASE	15.46	276	23.00	263	-1.5	100	-1.5	0	0	981.8	NA	0.0000	UP BR	2100	0	0	0	2000
2019/10/18 04:00:00	BASE	15.38	275	23.00	263	-1.6	100	-1.6	0	0	981.8	NA	0.0000	-SN BR	2200	0	0	0	1510
2019/10/18 04:01:00	BASE	15.07	277	21.04	279	-1.6	100	-1.6	0	0	981.8	NA	0.0000	-SN BR	2200	0	0	0	1440
2019/10/18 04:02:00	BASE	14.33	280	21.04	279	-1.7	100	-1.7	0	0	982.0	NA	0.0000	-SN BR	1900	0	0	0	1250
2019/10/18 04:03:00	BASE	12.87	280	21.04	279	-1.7	100	-1.7	0	0	982.0	NA	0.0000	-SN BR	1700	0	0	0	920
2019/10/18 04:04:00	BASE	12.69	278	21.04	279	-1.7	100	-1.7	0	0	982.0	NA	0.0000	-SN BR	2300	0	0	0	1210
2019/10/18 04:05:00	BASE	15.09	277	21.04	279	-1.7	100	-1.7	0	0	982.0	NA	0.0000	-SN BR	3800	0	0	0	1770
2019/10/18 04:06:00	BASE	15.59	276	19.09	281	-1.7	100	-1.7	0	0	982.1	NA	0.0000	-SN BR	4700	0	0	0	1840
2019/10/18 04:07:00	BASE	14.34	277	19.09	281	-1.8	100	-1.8	0	0	982.2	NA	0.0000	-SN BR	6000	0	0	0	1670
2019/10/18 04:08:00	BASE	13.45	280	19.09	281	-1.8	100	-1.8	0	0	982.2	NA	0.0000	-SN BR	6000	0	0	0	1710
2019/10/18 04:09:00	BASE	12.45	278	19.09	281	-1.8	100	-1.8	0	0	982.3	NA	0.0000	-SN BR	7000	0	0	0	1050
2019/10/18 04:10:00	BASE	11.97	277	19.09	281	-1.9	100	-1.9	0	0	982.3	NA	0.0000	-SN BR	6000	0	0	0	1970
2019/10/18 04:11:00	BASE	12.84	275	19.09	281	-1.9	100	-1.9	0	0	982.3	NA	0.0000	-SN BR	6000	0	0	0	1380
2019/10/18 04:12:00	BASE	14.29	274	19.09	281	-1.9	100	-1.9	0	0	982.3	NA	0.0000	-SN BR	5000	0	0	0	2030
2019/10/18 04:13:00	BASE	14.83	277	19.09	281	-1.9	100	-1.9	0	0	982.3	NA	0.0000	-SN BR	5000	0	0	0	2100
2019/10/18 04:14:00	BASE	14.29	279	19.09	281	-2.0	100	-2.0	0	0	982.4	NA	0.0000	-SN BR	5000	0	0	0	2170
2019/10/18 04:15:00	BASE	13.32	279	17.29	272	-2.0	100	-2.0	0	0	982.5	NA	0.0000	-SN BR	5000	0	0	0	2200
2019/10/18 04:16:00	BASE	12.34	281	17.29	272	-2.0	100	-2.0	0	0	982.5	NA	0.0000	-SN BR	4200	0	0	0	1970
2019/10/18 04:17:00	BASE	11.67	284	17.29	272	-2.0	100	-2.0	0	0	982.5	NA	0.0000	-SN BR	3600	0	0	0	1710
2019/10/18 04:18:00	BASE	12.16	285	17.29	272	-2.0	100	-2.0	0	0	982.5	NA	0.0000	-SN BR	2700	0	0	0	1180
2019/10/18 04:19:00	BASE	11.83	287	17.29	272	-2.0	100	-2.0	0	0	982.6	NA	0.0000	-SN BR	2800	0	0	0	1250
2019/10/18 04:20:00	BASE	10.56	288	17.29	272	-2.0	100	-2.0	0	0	982.7	NA	0.0000	-SN BR	3300	0	0	0	1570
2019/10/18 04:21:00	BASE	10.28	290	16.98	269	-2.0	100	-2.0	0	0	982.7	NA	0.0000	-SN BR	5000	300	0	0	0
2019/10/18 04:22:00	BASE	10.67	293	16.20	274	-2.0	100	-2.0	0	0	982.7	NA	0.0000	-SN BR	9999	360	0	0	0
2019/10/18 04:23:00	BASE	10.51	295	15.02	282	-2.0	100	-2.0	0	0	982.8	NA	0.0000	-SN BR	9999	0	0	0	2400
2019/10/18 04:24:00	BASE	9.88	300	14.46	284	-2.0	100	-2.0	0	0	982.8	NA	0.0000	-SN BR	9999	1380	0	0	0
2019/10/18 04:25:00	BASE	9.86	307	14.46	284	-2.0	100	-2.0	0	0	982.8	NA	0.0000	-SN BR	9999	1570	0	0	0
2019/10/18 04:26:00	BASE	9.40	309	14.46	284	-2.0	100	-2.0	0	0	982.8	NA	0.0000	-SN BR	9999	1670	0	0	0
2019/10/18 04:27:00	BASE	9.41	310	14.46	284	-2.0	100	-2.0	0	0	982.8	NA	0.0000	-SN BR	9999	1770	0	0	0
2019/10/18 04:28:00	BASE	10.02	312	12.81	282	-2.0	100	-2.0	0	0	982.8	NA	0.0000	-SN BR	9999	2070	0	0	0
2019/10/18 04:29:00	BASE	10.81	311	12.81	306	-2.0	100	-2.0	0	0	982.8	NA	0.0000	-SN BR	9999	1480	0	0	0
2019/10/18 04:30:00	BASE	11.81	310	13.53	314	-2.0	100	-2.0	0	0	982.9	NA	0.0000	-SN	9999	1770	0	0	0
2019/10/18 04:31:00	BASE	11.78	313	13.53	314	-1.9	100	-1.9	0	0	982.9	NA	0.0000		9999	1740	0	0	0
2019/10/18 04:32:00	BASE	11.05	314	13.53	314	-1.9	100	-1.9	0	0	982.9	NA	0.0000		9999	1800	0	0	0
2019/10/18 04:33:00	BASE	11.09	311	13.53	314	-1.9	100	-1.9	0	0	982.9	NA	0.0000		9999	2200	0	0	0
2019/10/18 04:34:00	BASE	11.81	310	13.94	312	-1.8	100	-1.8	0	0	982.9	NA	0.0000		9999	2200	0	0	0
2019/10/18 04:35:00	BASE	11.84	314	13.94	312	-1.8	100	-1.8	0	0	983.0	NA	0.0000		9999	2170	0	0	0
2019/10/18 04:36:00	BASE	11.95	309	14.51	307	-1.8	100	-1.8	0	0	983.0	NA	0.0000		9999	2200	0	0	0
2019/10/18 04:37:00	BASE	12.08	305	14.51	307	-1.8	100	-1.8	0	0	983.1	NA	0.0000		9999	2200	0	0	0
2019/10/18 04:38:00	BASE	11.82	304	14.51	307	-1.8	100	-1.8	0	0	983.1	NA	0.0000		9999	2200	0	0	0
2019/10/18 04:39:00	BASE	11.57	296	14.51	307	-1.8	100	-1.8	0	0	983.1	NA	0.0000		9999	2230	0	0	0
2019/10/18 04:40:00	BASE	11.47	291	14.51	307	-1.8	100	-1.8	0	0	983.2	NA	0.0000		9999	2230	0	0	0
2019/10/18 04:41:00	BASE	11.50	290	14.51	307	-1.9	100	-1.9	0	0	983.2	NA	0.0000		9999	2260	0	0	0
2019/10/18 04:42:00	BASE	12.51	287	16.31	282	-1.9	100	-1.9	0	0	983.2	NA	0.0000		9999	2260	0	0	0
2019/10/18 04:43:00	BASE	14.40	284	17.59	280	-1.9	100	-1.9	0	0	983.2	NA	0.0000		9999	2260	0	0	0
2019/10/18 04:44:00	BASE	14.79	282	17.59	280	-1.9	100	-1.9	0	0	983.2	NA	0.0000		9999	2230	0	0	0
2019/10/18 04:45:00	BASE	13.77	282	17.59	280	-1.9	100	-1.9	0	0	983.3	NA	0.0000		9999	2230	0	0	0
2019/10/18 04:46:00	BASE	13.50	284	17.59	280	-1.9	100	-1.9	0	0	983.3	NA	0.0000		9999	2230	0	0	0
2019/10/18 04:47:00	BASE	13.89	283	17.59	280	-1.9	100	-1.9	0	0	983.3	NA	0.0000		9999	2200	0	0	0
2019/10/18 04:48:00	BASE	15.05	277	17.85	279	-1.9	100	-1.9	0	0	983.3	NA	0.0000		9999	2170	0	0	0
2019/10/18 04:49:00	BASE	16.49	277	18.11	279	-1.9	100	-1.9	0	0	983.4	NA	0.0000		9999	2170	0	0	0
2019/10/18 04:50:00	BASE	16.77	277	20.42	279	-1.9	100	-1.9	0	0	983.4	NA	0.0000		9999	2130	0	0	0
2019/10/18 04:51:00	BASE	17.25	276	20.58	274	-1.9	100	-1.9	0	0	983.4	NA	0.0000		9999	2200	0	0	0
2019/10/18 04:52:00	BASE	17.06	276	20.58	274	-1.8	100	-1.8	0	0	983.4	NA	0.0000		9999	2170	0	0	0
2019/10/18 04:53:00	BASE	15.83	278	20.58	274	-1.8	100	-1.8	0	0	983.5	NA	0.0000		9999	2200	0	0	0
2019/10/18 04:54:00	BASE	15.02	278	20.58	274	-1.8	100	-1.8	0	0	983.5	NA	0.0000		9999	2170	0	0	0
2019/10/18 04:55:00	BASE	13.89	277	20.58	274	-1.8	100	-1.8	0	0	983.5	NA	0.0000		9999	2230	0	0	0
2019/10/18 04:56:00	BASE	12.84	280	20.58	274	-1.8	100	-1.8	0	0	983.5	NA	0.0000		9999	2330	0	0	0
2019/10/18 04:57:00	BASE	12.91	284	20.58	274	-1.7	100	-1.7	0	0	983.6	NA	0.0000		9999	2230	0	0	0
2019/10/18 04:58:00	BASE	12.53	288	20.58	274	-1.7	100	-1.7	0	0	983.6	NA	0.0000		9999	2260	0	0	0
2019/10/18 04:59:00	BASE	13.06	288	20.58	274	-1.7	100	-1.7	0	0	983.6	NA	0.0000		9999	2260	0	0	0
2019/10/18 05:00:01	BASE	12.93	286	20.58	274	-1.7	100	-1.7	0	0	983.7	NA	0.0000		9999	2230	0	0	0
2019/10/18 05:01:00	BASE	12.35	289	18.01	279	-1.7	100	-1.7	0	0	983.6	NA	0.0000		9999	2030	0	0	0
2019/10/18 05:02:00	BASE	13.93	291	16.98	284	-1.7	100	-1.7	0	0	983.6	NA	0.0000		9999	2230	0	0	0
2019/10/18 05:03:01	BASE	14.88	290	16.98	284	-1.7	100	-1.7	0	0	983.6	NA	0.0000		9999	2260	0	0	0
2019/10/18 05:04:00	BASE	14.38	291	16.77	287	-1.7	100	-1.7	0	0	983.7	NA	0.0000		9999	2300	0	0	0
2019/10/18 05:05:00	BASE	14.94	291	17.75	282	-1.7	100	-1.7	0	0	983.6	NA	0.0000		9999	2330	0	0	0
2019/10/18 05:06:00	BASE	15.43	289	17.75	282	-1.7	100	-1.7	0	0	983.7	NA	0.0000		9999	2330	0	0	0
2019/10/18 05:07:00	BASE	14.56	287	17.75	282	-1.7	100	-1.7	0	0	983.7	NA	0.0000		9999	2400	0	0	0
2019/10/18 05:08:00	BASE	14.33	289	17.75	282	-1.7	100	-1.7	0	0	983.7	NA	0.0000		9999	2400	0	0	0
2019/10/18 05:09:00	BASE	14.97	286	19.03	283	-1.7	100	-1.7	0	0	983.7	NA	0.0000		9999	2400	0	0	0
2019/10/18 05:10:00	BASE	14.81	282	19.03	283	-1.7	99	-1.8	0	0	983.8	NA	0.0000		9999	2460	0	0	0
2019/10/18 05:11:00	BASE	15.87	282	19.60	280	-1.7	99	-1.9	0	0	983.8	NA	0.0000		9999	2430	0	0	0
2019/10/18 05:12:00	BASE	15.73	279	19.60	280	-1.7	98	-2.0	0	0	983.8	NA	0.0000		9999	2430	0	0	0
2019/10/18 05:13:00	BASE	13.41	277	19.60	280	-1.7	97	-2.1	0	0	983.9	NA	0.0000		9999	2400	0	0	0
2019/10/18 05:14:00	BASE	14.33	274	19.60	280	-1.8	97	-2.2	0	0	983.8	NA	0.0000		9999	2170	0	0	0
2019/10/18 05:15:00	BASE	15.50	273	19.60	280	-1.8	96	-2.4	0	0	983.9	NA	0.0000		9999	2200	0	0	0
2019/10/18 05:16:00	BASE	14.92	270	19.60	280	-1.8	95	-2.5	0	0	983.9	NA	0.0000		9999	2200	0	0	0
2019/10/18 05:17:00	BASE	13.00	269	19.60	280	-1.8	94	-2.6	0	0	983.9	NA	0.0000		9999	2300	0	0	0
2019/10/18 05:18:01	BASE	12.80	272	19.60	280	-1.8	94	-2.7	0	0	983.9	NA	0.0000		9999	2260	0	0	0
2019/10/18 05:19:01	BASE	14.38	273	19.60	280	-1.8	93	-2.8	0	0	983.9	NA	0.0000		9999	2100	0	0	0
2019/10/18 05:20:01	BASE	13.07	273	19.60	280	-1.8	92	-2.9	0	0	984.0	NA	0.0000		9999	2030	0	0	0
2019/10/18 05:21:01	BASE	11.85	275	17.95	279	-1.8	92	-2.9	0	0	984.0	NA	0.0000		9999	2130	0	0	0
2019/10/18 05:22:01	BASE	12.63	276	17.95	279	-1.7	91	-3.0	0	0	984.0	NA	0.0000		9999	2130	0	0	0
2019/10/18 05:23:01	BASE	12.82	276	17.95	279	-1.7	91	-3.0	0	0	984.0	NA	0.0000		9999	2130	0	0	0
2019/10/18 05:24:01	BASE	13.01	272	17.95	279	-1.7	91	-3.0	0	0	984.0	NA	0.0000		9999	2130	0	0	0
2019/10/18 05:25:01	BASE	12.71	270	17.95	279	-1.8	91	-3.1	0	0	984.1	NA	0.0000		9999	2070	0	0	0
2019/10/18 05:26:01	BASE	11.57	275	17.95	279	-1.8	91	-3.1	0	0	984.1	NA	0.0000		9999	1970	0	0	0
2019/10/18 05:27:01	BASE	11.45	278	17.95	279	-1.8	90	-3.1	0	0	984.1	NA	0.0000		9999	1900	0	0	0
2019/10/18 05:28:01	BASE	10.67	281	17.95	279	-1.7	90	-3.1	0	0	984.2	NA	0.0000		9999	1940	0	0	0
2019/10/18 05:29:01	BASE	10.38	284	16.15	269	-1.7	90	-3.1	0	0	984.1	NA	0.0000		9999	2200	0	0	0
2019/10/18 05:30:01	BASE	10.81	284	16.15	269	-1.7	91	-3.0	0	0	984.2	NA	0.0000		9999	2230	0	0	0
2019/10/18 05:31:00	BASE	10.80	286	16.15	269	-1.7	91	-3.0	0	0	984.2	NA	0.0000		9999	2300	0	0	0
2019/10/18 05:32:01	BASE	11.44	284	15.95	263	-1.7	92	-2.9	0	0	984.2	NA	0.0000		9999	2260	0	0	0
2019/10/18 05:33:00	BASE	11.36	280	15.95	263	-1.8	92	-2.9	0	0	984.2	NA	0.0000		9999	2360	0	0	0
2019/10/18 05:34:01	BASE	10.32	279	15.28	270	-1.8	93	-2.8	0	0	984.3	NA	0.0000		9999	2260	0	0	0
2019/10/18 05:35:00	BASE	10.46	283	13.68	298	-1.8	93	-2.8	0	0	984.2	NA	0.0000		9999	2300	0	0	0
2019/10/18 05:36:01	BASE	11.39	284	13.68	298	-1.8	93	-2.8	0	0	984.2	NA	0.0000		9999	2260	0	0	0
2019/10/18 05:37:00	BASE	11.41	278	13.68	298	-1.8	93	-2.9	0	0	984.3	NA	0.0000		9999	2170	0	0	0
2019/10/18 05:38:01	BASE	12.08	276	13.99	285	-1.9	93	-2.9	0	0	984.3	NA	0.0000		9999	2030	0	0	0
2019/10/18 05:39:00	BASE	11.76	278	13.99	285	-1.9	92	-3.0	0	0	984.3	NA	0.0000		9999	2200	0	0	0
2019/10/18 05:40:00	BASE	11.72	283	15.43	282	-1.9	92	-3.0	0	0	984.3	NA	0.0000		9999	2130	0	0	0
2019/10/18 05:41:01	BASE	13.62	286	16.77	281	-1.9	91	-3.1	0	0	984.3	NA	0.0000		9999	2300	0	0	0
2019/10/18 05:42:01	BASE	14.30	283	16.77	281	-1.9	91	-3.2	0	0	984.3	NA	0.0000		9999	2260	0	0	0
2019/10/18 05:43:00	BASE	14.39	281	16.77	281	-1.9	90	-3.3	0	0	984.4	NA	0.0000		9999	2430	0	0	0
2019/10/18 05:44:01	BASE	13.97	279	16.77	281	-1.9	90	-3.4	0	0	984.4	NA	0.0000		9999	2230	0	0	0
2019/10/18 05:45:01	BASE	12.69	278	16.77	281	-1.9	89	-3.5	0	0	984.5	NA	0.0000		9999	2260	0	0	0
2019/10/18 05:46:01	BASE	12.06	278	16.77	281	-2.0	88	-3.7	0	0	984.5	NA	0.0000		9999	2260	0	0	0
2019/10/18 05:47:00	BASE	12.22	279	16.77	281	-1.9	87	-3.8	0	0	984.5	NA	0.0000		9999	2200	0	0	0
2019/10/18 05:48:01	BASE	13.66	282	16.93	279	-1.9	86	-3.9	0	0	984.5	NA	0.0000		9999	2200	0	0	0
2019/10/18 05:49:00	BASE	14.46	281	16.93	279	-1.9	86	-4.0	0	0	984.5	NA	0.0000		9999	2200	0	0	0
2019/10/18 05:50:00	BASE	13.41	278	16.93	279	-1.8	85	-4.0	0	0	984.5	NA	0.0000		9999	2170	0	0	0
2019/10/18 05:51:00	BASE	13.09	279	16.93	279	-1.8	85	-4.0	0	0	984.5	NA	0.0000		9999	2100	0	0	0
2019/10/18 05:52:01	BASE	12.61	285	16.93	279	-1.8	85	-4.0	0	0	984.5	NA	0.0000		9999	2100	0	0	0
2019/10/18 05:53:00	BASE	11.30	287	16.93	279	-1.8	85	-3.9	0	0	984.5	NA	0.0000		9999	2070	0	0	0
2019/10/18 05:54:01	BASE	10.88	282	16.93	279	-1.8	86	-3.9	0	0	984.6	NA	0.0000		9999	2000	0	0	0
2019/10/18 05:55:00	BASE	10.46	277	16.93	279	-1.9	86	-3.9	0	0	984.6	NA	0.0000		9999	2100	0	0	0
2019/10/18 05:56:00	BASE	10.39	278	16.93	279	-1.9	86	-3.8	0	0	984.6	NA	0.0000		9999	2070	0	0	0
2019/10/18 05:57:00	BASE	10.42	281	16.93	279	-1.9	87	-3.8	0	0	984.6	NA	0.0000		9999	2170	0	0	0
2019/10/18 05:58:00	BASE	9.61	283	15.33	281	-1.9	87	-3.7	0	0	984.7	NA	0.0000		9999	2300	0	0	0
2019/10/18 05:59:01	BASE	8.89	283	15.33	281	-1.9	87	-3.7	0	0	984.7	NA	0.0000		9999	2300	0	0	0
2019/10/18 06:00:00	BASE	8.71	277	15.33	281	-1.9	88	-3.6	0	0	984.7	NA	0.0000		9999	2300	0	0	0
2019/10/18 06:01:00	BASE	8.98	264	13.53	285	-1.9	88	-3.6	0	0	984.7	NA	0.0000		9999	2260	0	0	0
2019/10/18 06:02:01	BASE	9.81	256	12.71	280	-1.9	88	-3.6	0	0	984.7	NA	0.0000		9999	2200	0	0	0
2019/10/18 06:03:00	BASE	10.67	254	12.71	280	-1.9	89	-3.6	0	0	984.7	NA	0.0000		9999	2400	0	0	0
2019/10/18 06:04:01	BASE	11.31	254	13.27	261	-2.0	89	-3.6	0	0	984.8	NA	0.0000		9999	2360	0	0	0
2019/10/18 06:05:00	BASE	11.65	255	13.53	261	-2.0	89	-3.6	0	0	984.8	NA	0.0000		9999	2230	0	0	0
2019/10/18 06:06:01	BASE	10.43	262	13.53	261	-2.0	89	-3.6	0	0	984.8	NA	0.0000		9999	1940	0	0	0
2019/10/18 06:07:00	BASE	9.86	269	13.53	261	-2.0	89	-3.6	0	0	984.8	NA	0.0000		9999	2170	0	0	0
2019/10/18 06:08:01	BASE	10.25	268	13.53	261	-2.0	89	-3.6	0	0	984.8	NA	0.0000		9999	2100	0	0	0
2019/10/18 06:09:00	BASE	9.08	266	13.53	261	-2.0	89	-3.6	0	0	984.8	NA	0.0000		9999	2260	0	0	0
2019/10/18 06:10:00	BASE	8.18	269	13.53	261	-2.0	88	-3.7	0	0	984.8	NA	0.0000		9999	2130	0	0	0
2019/10/18 06:11:00	BASE	9.18	272	13.53	261	-2.0	88	-3.7	0	0	984.8	NA	0.0000		9999	2490	0	0	0
2019/10/18 06:12:01	BASE	10.58	275	13.79	274	-2.0	88	-3.7	0	0	984.8	NA	0.0000		9999	2430	0	0	0
2019/10/18 06:13:00	BASE	11.20	274	13.79	274	-2.0	88	-3.7	0	0	984.8	NA	0.0000		9999	2430	0	0	0
2019/10/18 06:14:00	BASE	10.87	271	13.79	274	-2.0	88	-3.8	0	0	984.9	NA	0.0000		9999	2360	0	0	0
2019/10/18 06:15:00	BASE	10.48	271	13.79	274	-2.0	87	-3.8	0	0	984.9	NA	0.0000		9999	2400	0	0	0
2019/10/18 06:16:00	BASE	10.96	272	14.40	276	-2.0	87	-3.8	0	0	984.9	NA	0.0000		9999	2230	0	0	0
2019/10/18 06:17:00	BASE	11.97	275	14.40	276	-2.0	87	-3.9	0	0	984.9	NA	0.0000		9999	2590	0	0	0
2019/10/18 06:18:00	BASE	11.68	273	14.40	276	-2.0	87	-3.9	0	0	984.9	NA	0.0000		9999	2490	0	0	0
2019/10/18 06:19:00	BASE	11.01	268	14.40	276	-2.0	86	-4.0	0	0	985.0	NA	0.0000		9999	2560	0	0	0
2019/10/18 06:20:00	BASE	10.04	272	14.40	276	-2.0	86	-4.1	0	0	985.0	NA	0.0000		9999	2460	0	0	0
2019/10/18 06:21:00	BASE	9.59	277	14.40	276	-2.0	85	-4.2	0	0	985.0	NA	0.0000		9999	2360	0	0	0
2019/10/18 06:22:00	BASE	10.03	278	14.40	276	-2.0	84	-4.3	0	0	985.0	NA	0.0000		9999	2400	0	0	0
2019/10/18 06:23:00	BASE	10.29	277	14.40	276	-2.0	84	-4.4	0	0	985.0	NA	0.0000		9999	2360	2820	0	0
2019/10/18 06:24:00	BASE	10.83	275	14.40	276	-2.0	83	-4.4	0	0	985.0	NA	0.0000		9999	2660	0	0	0
2019/10/18 06:25:00	BASE	10.48	276	14.40	276	-2.0	83	-4.5	0	0	985.1	NA	0.0000		9999	2560	0	0	0
2019/10/18 06:26:00	BASE	9.93	279	13.68	287	-2.0	83	-4.5	0	0	985.1	NA	0.0000		9999	2690	0	0	0
2019/10/18 06:27:00	BASE	9.28	280	13.32	263	-2.0	83	-4.5	0	0	985.1	NA	0.0000		9999	2460	0	0	0
2019/10/18 06:28:01	BASE	8.59	282	13.12	263	-2.0	82	-4.6	0	0	985.1	NA	0.0000		9999	2660	0	0	0
2019/10/18 06:29:00	BASE	8.44	284	12.24	278	-1.9	82	-4.5	0	0	985.1	NA	0.0000		9999	2490	0	0	0
2019/10/18 06:30:00	BASE	8.89	284	12.24	278	-1.9	83	-4.5	0	0	985.1	NA	0.0000		9999	2720	0	0	0
2019/10/18 06:31:00	BASE	8.95	287	12.24	278	-1.9	83	-4.4	0	0	985.2	NA	0.0000		9999	2950	0	0	0
2019/10/18 06:32:01	BASE	9.39	288	12.24	278	-1.9	84	-4.3	0	0	985.1	NA	0.0000		9999	2720	0	0	0
2019/10/18 06:33:00	BASE	10.02	287	12.24	278	-1.9	85	-4.2	0	0	985.2	NA	0.0000		9999	2530	0	0	0
2019/10/18 06:34:00	BASE	9.75	289	11.88	275	-2.0	85	-4.1	0	0	985.2	NA	0.0000		9999	2720	0	0	0
2019/10/18 06:35:00	BASE	9.83	291	11.11	284	-2.0	86	-4.0	0	0	985.1	NA	0.0000		9999	2690	0	0	0
2019/10/18 06:36:01	BASE	10.41	287	11.42	277	-2.0	87	-3.9	0	0	985.1	NA	0.0000		9999	2590	0	0	0
2019/10/18 06:37:00	BASE	10.23	284	11.42	277	-2.0	87	-3.8	0	0	985.2	NA	0.0000		9999	2790	0	0	0
2019/10/18 06:38:01	BASE	9.62	286	11.42	277	-2.0	88	-3.8	0	0	985.2	NA	0.0000		9999	2690	0	0	0
2019/10/18 06:39:00	BASE	9.36	290	11.42	277	-2.0	89	-3.7	0	0	985.2	NA	0.0000		9999	2850	0	0	0
2019/10/18 06:40:00	BASE	9.47	292	11.42	277	-2.1	89	-3.6	0	0	985.2	NA	0.0000		9999	2820	0	0	0
2019/10/18 06:41:00	BASE	9.85	294	11.42	277	-2.1	90	-3.5	0	0	985.2	NA	0.0000		9999	2720	0	0	0
2019/10/18 06:42:00	BASE	9.66	294	11.42	277	-2.1	90	-3.5	0	0	985.2	NA	0.0000		9999	2330	0	0	0
2019/10/18 06:43:00	BASE	9.58	291	11.42	277	-2.1	91	-3.4	0	0	985.2	NA	0.0000		9999	2130	2920	0	0
2019/10/18 06:44:01	BASE	9.74	290	11.42	277	-2.1	91	-3.4	0	0	985.2	NA	0.0000		9999	2690	0	0	0
2019/10/18 06:45:00	BASE	8.94	296	11.42	277	-2.1	92	-3.3	0	0	985.3	NA	0.0000		9999	2850	0	0	0
2019/10/18 06:46:01	BASE	8.56	300	11.37	276	-2.1	92	-3.2	0	0	985.3	NA	0.0000		9999	2820	0	0	0
2019/10/18 06:47:00	BASE	9.15	300	11.01	289	-2.2	93	-3.2	0	0	985.3	NA	0.0000		9999	2620	0	0	0
2019/10/18 06:48:01	BASE	8.92	302	11.01	289	-2.2	93	-3.1	0	0	985.3	NA	0.0000		9999	2530	0	0	0
2019/10/18 06:49:00	BASE	8.25	302	11.01	289	-2.2	94	-3.0	0	0	985.3	NA	0.0000		9999	2530	0	0	0
2019/10/18 06:50:00	BASE	8.64	300	11.01	289	-2.2	94	-3.0	0	0	985.3	NA	0.0000		9999	2660	0	0	0
2019/10/18 06:51:00	BASE	9.07	299	11.01	289	-2.2	95	-2.9	0	0	985.3	NA	0.0000		9999	2760	0	0	0
2019/10/18 06:52:01	BASE	8.73	299	11.01	289	-2.2	95	-2.8	0	0	985.3	NA	0.0000		9999	2920	0	0	0
2019/10/18 06:53:00	BASE	9.14	299	11.37	291	-2.2	96	-2.8	0	0	985.3	NA	0.0000		9999	2920	0	0	0
2019/10/18 06:54:01	BASE	9.72	300	11.37	291	-2.2	96	-2.8	0	0	985.3	NA	0.0000		9999	2950	0	0	0
2019/10/18 06:55:00	BASE	9.88	300	11.37	291	-2.2	96	-2.7	0	0	985.3	NA	0.0000		9999	2850	0	0	0
2019/10/18 06:56:01	BASE	9.94	300	11.68	298	-2.2	97	-2.7	0	0	985.3	NA	0.0000		9999	2760	0	0	0
2019/10/18 06:57:00	BASE	10.37	298	11.68	299	-2.3	97	-2.7	0	0	985.3	NA	0.0000		9999	2790	0	0	0
2019/10/18 06:58:00	BASE	10.63	298	11.68	299	-2.3	97	-2.7	0	0	985.3	NA	0.0000		9999	2690	0	0	0
2019/10/18 06:59:00	BASE	10.36	301	11.68	299	-2.3	97	-2.7	0	0	985.3	NA	0.0000		9999	2690	0	0	0
2019/10/18 07:00:00	BASE	9.98	300	11.68	299	-2.3	97	-2.7	0	0	985.3	NA	0.0000		9999	2690	0	0	0
2019/10/18 07:01:00	BASE	10.37	295	12.24	293	-2.3	97	-2.7	0	0	985.3	NA	0.0000		9999	2850	0	0	0
2019/10/18 07:02:00	BASE	10.26	294	12.24	293	-2.3	97	-2.7	0	0	985.3	NA	0.0000		9999	2820	0	0	0
2019/10/18 07:03:00	BASE	9.21	297	12.24	293	-2.3	97	-2.7	0	0	985.4	NA	0.0000		9999	2990	0	0	0
2019/10/18 07:04:00	BASE	8.97	297	12.24	293	-2.3	97	-2.7	0	0	985.4	NA	0.0000		9999	2950	0	0	0
2019/10/18 07:05:00	BASE	8.75	296	12.24	293	-2.3	97	-2.7	0	0	985.4	NA	0.0000		9999	2920	0	0	0
2019/10/18 07:06:00	BASE	8.31	295	12.24	293	-2.3	97	-2.7	0	0	985.4	NA	0.0000		9999	2820	0	0	0
2019/10/18 07:07:00	BASE	9.03	297	12.24	293	-2.3	97	-2.7	0	0	985.4	NA	0.0000		9999	2890	0	0	0
2019/10/18 07:08:01	BASE	9.76	298	12.24	293	-2.3	97	-2.7	0	0	985.4	NA	0.0000		9999	2920	0	0	0
2019/10/18 07:09:00	BASE	9.73	299	12.24	293	-2.3	97	-2.7	0	0	985.4	NA	0.0000		9999	2920	0	0	0
2019/10/18 07:10:00	BASE	10.30	301	12.24	293	-2.3	97	-2.7	0	0	985.4	NA	0.0000		9999	2820	0	0	0
2019/10/18 07:11:00	BASE	10.34	301	11.57	300	-2.3	97	-2.7	0	0	985.4	NA	0.0000		9999	2820	0	0	0
2019/10/18 07:12:01	BASE	9.63	302	11.57	300	-2.3	97	-2.7	0	0	985.4	NA	0.0000		9999	2760	0	0	0
2019/10/18 07:13:00	BASE	9.59	298	11.57	300	-2.3	97	-2.8	0	0	985.4	NA	0.0000		9999	2760	0	0	0
2019/10/18 07:14:01	BASE	9.71	297	11.57	300	-2.4	97	-2.8	0	0	985.4	NA	0.0000		9999	2690	0	0	0
2019/10/18 07:15:00	BASE	9.29	299	11.57	300	-2.4	97	-2.8	0	0	985.4	NA	0.0000		9999	2790	0	0	0
2019/10/18 07:16:01	BASE	9.55	296	11.57	286	-2.4	97	-2.8	0	0	985.4	NA	0.0000		9999	2820	0	0	0
2019/10/18 07:17:00	BASE	9.59	297	11.57	286	-2.4	97	-2.8	0	0	985.5	NA	0.0000		9999	2850	0	0	0
2019/10/18 07:18:01	BASE	9.84	301	11.57	286	-2.4	97	-2.8	0	0	985.4	NA	0.0000		9999	2820	0	0	0
2019/10/18 07:19:00	BASE	10.70	302	11.68	304	-2.4	97	-2.8	0	0	985.4	NA	0.0000		9999	2850	0	0	0
2019/10/18 07:20:00	BASE	10.81	301	12.04	297	-2.4	97	-2.8	0	0	985.4	NA	0.0000		9999	2850	0	0	0
2019/10/18 07:21:00	BASE	10.09	302	12.04	297	-2.4	97	-2.8	0	0	985.4	NA	0.0000		9999	2790	0	0	0
2019/10/18 07:22:01	BASE	9.55	303	12.04	297	-2.4	97	-2.8	0	0	985.4	NA	0.0000		9999	2890	0	0	0
2019/10/18 07:23:00	BASE	10.10	304	12.04	297	-2.4	97	-2.8	0	0	985.4	NA	0.0000		9999	2950	0	0	0
2019/10/18 07:24:00	BASE	10.27	306	12.04	297	-2.4	97	-2.8	0	0	985.4	NA	0.0000		9999	2920	0	0	0
2019/10/18 07:25:00	BASE	10.08	306	12.04	297	-2.4	97	-2.8	0	0	985.4	NA	0.0000		9999	2850	0	0	0
2019/10/18 07:26:00	BASE	10.62	305	12.04	297	-2.4	97	-2.8	0	0	985.4	NA	0.0000		9999	2890	0	0	0
2019/10/18 07:27:00	BASE	11.18	303	12.14	302	-2.4	97	-2.8	0	0	985.4	NA	0.0000		9999	2850	0	0	0
2019/10/18 07:28:00	BASE	10.63	302	12.14	302	-2.4	97	-2.8	0	0	985.4	NA	0.0000		9999	2850	0	0	0
2019/10/18 07:29:00	BASE	9.97	303	12.14	302	-2.4	97	-2.8	0	0	985.4	NA	0.0000		9999	2890	0	0	0
2019/10/18 07:30:00	BASE	10.00	302	12.14	302	-2.4	97	-2.8	0	0	985.4	NA	0.0000		9999	2820	0	0	0
2019/10/18 07:31:00	BASE	10.24	304	12.14	302	-2.4	97	-2.8	0	0	985.4	NA	0.0000		9999	2820	0	0	0
2019/10/18 07:32:00	BASE	10.31	305	12.14	302	-2.4	97	-2.8	0	0	985.4	NA	0.0000		9999	2890	0	0	0
2019/10/18 07:33:00	BASE	10.05	305	12.14	302	-2.4	97	-2.8	0	0	985.4	NA	0.0000		9999	2850	0	0	0
2019/10/18 07:34:00	BASE	10.74	305	12.60	307	-2.4	97	-2.8	0	0	985.4	NA	0.0000		9999	2820	0	0	0
2019/10/18 07:35:00	BASE	11.20	305	12.60	307	-2.4	98	-2.8	0	0	985.4	NA	0.0000		9999	2760	0	0	0
2019/10/18 07:36:00	BASE	10.75	304	12.60	307	-2.5	98	-2.8	0	0	985.4	NA	0.0000		9999	2790	0	0	0
2019/10/18 07:37:00	BASE	10.97	305	12.60	307	-2.5	98	-2.7	0	0	985.4	NA	0.0000		9999	2760	0	0	0
2019/10/18 07:38:00	BASE	10.71	304	12.60	307	-2.5	98	-2.8	0	0	985.4	NA	0.0000		9999	2790	0	0	0
2019/10/18 07:39:00	BASE	10.37	301	12.60	307	-2.5	98	-2.8	0	0	985.4	NA	0.0000		9999	2820	0	0	0
2019/10/18 07:40:00	BASE	10.52	302	12.60	307	-2.5	98	-2.8	0	0	985.4	NA	0.0000		9999	3120	0	0	0
2019/10/18 07:41:00	BASE	10.42	305	12.60	307	-2.5	98	-2.8	0	0	985.5	NA	0.0000		9999	3080	0	0	0
2019/10/18 07:42:00	BASE	10.67	305	12.60	307	-2.5	98	-2.8	0	0	985.5	NA	0.0000		9999	3220	0	0	0
2019/10/18 07:43:00	BASE	11.28	304	12.60	307	-2.5	98	-2.8	0	0	985.4	NA	0.0000		9999	3180	0	0	0
2019/10/18 07:44:00	BASE	11.46	303	12.45	301	-2.5	98	-2.8	0	0	985.5	NA	0.0000		9999	3180	0	0	0
2019/10/18 07:45:00	BASE	11.23	302	12.45	301	-2.6	98	-2.8	0	0	985.5	NA	0.0000		9999	3150	0	0	0
2019/10/18 07:46:00	BASE	11.00	301	12.45	301	-2.6	98	-2.8	0	0	985.6	NA	0.0000		9999	3180	0	0	0
2019/10/18 07:47:00	BASE	10.66	302	12.45	301	-2.6	98	-2.9	0	0	985.5	NA	0.0000		9999	3150	0	0	0
2019/10/18 07:48:00	BASE	10.92	303	12.71	298	-2.6	98	-2.9	0	0	985.5	NA	0.0000		9999	3020	3640	0	0
2019/10/18 07:49:00	BASE	11.41	301	12.71	298	-2.6	98	-2.9	0	0	985.5	NA	0.0000		9999	3080	0	0	0
2019/10/18 07:50:00	BASE	10.95	299	12.71	298	-2.6	98	-2.9	0	0	985.5	NA	0.0000		9999	3050	0	0	0
2019/10/18 07:51:00	BASE	9.77	300	12.71	298	-2.6	98	-2.8	0	0	985.5	NA	0.0000		9999	2990	0	0	0
2019/10/18 07:52:00	BASE	8.96	304	12.71	298	-2.6	98	-2.9	0	0	985.5	NA	0.0000		9999	3150	0	0	0
2019/10/18 07:53:00	BASE	8.80	309	12.71	298	-2.5	98	-2.9	0	0	985.5	NA	0.0000		9999	3120	0	0	0
2019/10/18 07:54:00	BASE	9.22	311	12.71	298	-2.5	98	-2.8	0	0	985.5	NA	0.0000		9999	3050	0	0	0
2019/10/18 07:55:00	BASE	9.45	314	12.71	298	-2.5	98	-2.8	0	0	985.5	NA	0.0000		9999	3220	0	0	0
2019/10/18 07:56:00	BASE	9.86	314	12.71	298	-2.5	98	-2.8	0	0	985.5	NA	0.0000		9999	3180	0	0	0
2019/10/18 07:57:00	BASE	10.29	312	12.71	298	-2.5	98	-2.8	0	0	985.5	NA	0.0000		9999	3220	0	0	0
2019/10/18 07:58:00	BASE	10.13	309	12.55	298	-2.5	98	-2.8	0	0	985.4	NA	0.0000		9999	3150	0	0	0
2019/10/18 07:59:00	BASE	9.87	311	11.11	301	-2.6	99	-2.7	0	0	985.4	NA	0.0000		9999	2920	0	0	0
2019/10/18 08:00:00	BASE	10.42	312	12.04	312	-2.6	99	-2.7	0	0	985.4	NA	0.0000		9999	3120	0	0	0
2019/10/18 08:01:00	BASE	10.90	311	12.04	312	-2.6	99	-2.7	0	0	985.4	NA	0.0000		9999	3250	0	0	0
2019/10/18 08:02:00	BASE	10.18	311	12.04	312	-2.6	99	-2.7	0	0	985.4	NA	0.0000		9999	3120	0	0	0
2019/10/18 08:03:00	BASE	10.08	312	12.04	312	-2.6	99	-2.7	0	0	985.4	NA	0.0000		9999	2720	0	0	0
2019/10/18 08:04:00	BASE	9.99	314	12.04	312	-2.6	99	-2.7	0	0	985.4	NA	0.0000		9999	3150	0	0	0
2019/10/18 08:05:00	BASE	10.25	315	12.04	312	-2.6	99	-2.7	1	0	985.4	NA	0.0000		9999	3220	0	0	0
2019/10/18 08:06:00	BASE	10.85	313	12.04	312	-2.6	100	-2.7	1	0	985.4	NA	0.0000		9999	3050	0	0	0
2019/10/18 08:07:00	BASE	10.76	310	12.04	312	-2.7	100	-2.7	1	0	985.4	NA	0.0000		9999	3310	3840	0	0
2019/10/18 08:08:00	BASE	10.74	310	12.04	312	-2.7	100	-2.7	1	0	985.4	NA	0.0000		9999	3220	0	0	0
2019/10/18 08:09:00	BASE	10.73	309	12.04	312	-2.8	100	-2.8	1	0	985.4	NA	0.0000		9999	3250	0	0	0
2019/10/18 08:10:00	BASE	10.41	306	11.78	309	-2.8	100	-2.8	1	0	985.4	NA	0.0000		9999	3180	0	0	0
2019/10/18 08:11:00	BASE	10.19	305	11.78	309	-2.8	100	-2.8	1	0	985.4	NA	0.0000		9999	3220	0	0	0
2019/10/18 08:12:00	BASE	10.22	307	11.78	309	-2.8	100	-2.8	1	0	985.4	NA	0.0000		9999	3150	0	0	0
2019/10/18 08:13:00	BASE	10.36	310	11.78	309	-2.8	100	-2.8	1	0	985.4	NA	0.0000		9999	3050	0	0	0
2019/10/18 08:14:00	BASE	10.32	309	11.78	309	-2.8	100	-2.8	1	0	985.4	NA	0.0000		9999	2990	0	0	0
2019/10/18 08:15:00	BASE	9.66	307	11.78	309	-2.8	100	-2.8	2	0	985.4	NA	0.0000		9999	2990	0	0	0
2019/10/18 08:16:00	BASE	9.39	309	11.78	309	-2.8	100	-2.8	2	0	985.4	NA	0.0000		9999	3250	0	0	0
2019/10/18 08:17:00	BASE	9.39	313	11.42	308	-2.8	100	-2.8	2	0	985.4	NA	0.0000		9999	3220	0	0	0
2019/10/18 08:18:00	BASE	9.24	315	11.42	308	-2.8	100	-2.8	2	0	985.4	NA	0.0000		9999	3180	0	0	0
2019/10/18 08:19:00	BASE	9.61	313	11.16	307	-2.8	100	-2.8	2	0	985.4	NA	0.0000		9999	3050	0	0	0
2019/10/18 08:20:00	BASE	9.93	313	11.27	314	-2.9	100	-2.9	2	0	985.4	NA	0.0000		9999	3020	0	0	0
2019/10/18 08:21:00	BASE	10.12	314	11.37	314	-2.9	100	-2.9	2	0	985.4	NA	0.0000		9999	3280	0	0	0
2019/10/18 08:22:00	BASE	9.84	316	11.37	314	-2.9	100	-2.9	2	0	985.5	NA	0.0000		9999	3280	0	0	0
2019/10/18 08:23:00	BASE	9.58	318	11.37	314	-2.9	100	-2.9	2	0	985.5	NA	0.0000		9999	3280	0	0	0
2019/10/18 08:24:01	BASE	9.86	316	11.37	314	-2.9	100	-2.9	2	0	985.4	NA	0.0000		9999	3310	0	0	0
2019/10/18 08:25:00	BASE	9.97	316	11.37	314	-2.9	100	-2.9	3	0	985.4	NA	0.0000		9999	3310	0	0	0
2019/10/18 08:26:00	BASE	9.60	320	11.37	314	-2.9	100	-2.9	3	0	985.5	NA	0.0000		9999	3280	0	0	0
2019/10/18 08:27:00	BASE	8.87	324	11.37	314	-2.9	100	-2.9	3	0	985.4	NA	0.0000		9999	3280	0	0	0
2019/10/18 08:28:00	BASE	8.56	323	11.37	314	-2.9	100	-2.9	3	0	985.4	NA	0.0000		9999	3350	0	0	0
2019/10/18 08:29:00	BASE	8.32	322	11.37	314	-2.9	100	-2.9	3	0	985.4	NA	0.0000		9999	3310	0	0	0
2019/10/18 08:30:00	BASE	8.08	324	11.37	314	-2.9	100	-2.9	3	0	985.4	NA	0.0000		9999	3280	0	0	0
2019/10/18 08:31:00	BASE	8.15	325	11.11	314	-2.9	100	-2.9	3	0	985.4	NA	0.0000		9999	3350	0	0	0
2019/10/18 08:32:01	BASE	8.74	324	11.11	314	-2.9	100	-2.9	3	0	985.4	NA	0.0000		9999	3280	0	0	0
2019/10/18 08:33:00	BASE	8.93	322	11.11	314	-3.0	100	-3.0	3	0	985.5	NA	0.0000		9999	3350	0	0	0
2019/10/18 08:34:00	BASE	8.58	322	10.55	316	-3.0	100	-3.0	4	0	985.5	NA	0.0000		9999	2460	3280	0	0
2019/10/18 08:35:00	BASE	8.56	324	10.08	324	-3.0	100	-3.0	4	0	985.5	NA	0.0000		9999	2460	3310	0	0
2019/10/18 08:36:00	BASE	8.68	326	9.72	325	-3.0	100	-3.0	4	0	985.5	NA	0.0000		9999	2460	3350	0	0
2019/10/18 08:37:01	BASE	9.05	326	9.88	324	-3.0	100	-3.0	4	0	985.6	NA	0.0000		9999	2460	0	0	0
2019/10/18 08:38:00	BASE	8.65	326	9.88	324	-3.0	100	-3.0	4	0	985.6	NA	0.0000		9999	2460	0	0	0
2019/10/18 08:39:00	BASE	8.03	329	9.88	324	-3.0	100	-3.0	4	0	985.6	NA	0.0000		9999	2430	3350	0	0
2019/10/18 08:40:01	BASE	7.96	331	9.88	324	-3.0	100	-3.0	4	0	985.6	NA	0.0000		9999	3350	0	0	0
2019/10/18 08:41:00	BASE	7.71	335	9.88	324	-3.1	100	-3.1	4	0	985.6	NA	0.0000		9999	2460	0	0	0
2019/10/18 08:42:00	BASE	7.77	334	9.88	324	-3.1	100	-3.1	5	0	985.6	NA	0.0000		9999	2460	0	0	0
2019/10/18 08:43:00	BASE	7.79	335	9.88	324	-3.1	100	-3.1	5	0	985.6	NA	0.0000		9999	2430	0	0	0
2019/10/18 08:44:00	BASE	7.41	337	9.88	324	-3.2	100	-3.2	5	0	985.6	NA	0.0000		9999	2460	0	0	0
2019/10/18 08:45:00	BASE	7.31	336	9.88	324	-3.2	100	-3.2	5	0	985.6	NA	0.0000		9999	0	0	0	0
2019/10/18 08:46:00	BASE	7.10	337	9.88	324	-3.2	100	-3.2	6	0	985.6	NA	0.0000		9999	0	0	0	0
2019/10/18 08:47:00	BASE	7.19	341	8.85	336	-3.2	100	-3.2	6	0	985.6	NA	0.0000		9999	0	0	0	0
2019/10/18 08:48:01	BASE	7.41	343	8.85	336	-3.2	100	-3.2	6	0	985.6	NA	0.0000		9999	0	0	0	0
2019/10/18 08:49:00	BASE	7.21	344	8.85	336	-3.2	100	-3.2	6	0	985.6	NA	0.0000		9999	0	0	0	0
2019/10/18 08:50:00	BASE	7.17	343	8.85	336	-3.2	100	-3.2	7	0	985.5	NA	0.0000		9999	0	0	0	0
2019/10/18 08:51:00	BASE	7.15	341	8.85	336	-3.2	100	-3.2	7	0	985.6	NA	0.0000		9999	0	0	0	0
2019/10/18 08:52:00	BASE	7.24	340	8.44	332	-3.2	100	-3.2	7	0	985.6	NA	0.0000		9999	2530	0	0	0
2019/10/18 08:53:00	BASE	7.35	339	8.44	332	-3.2	100	-3.2	8	0	985.6	NA	0.0000		9999	2530	0	0	0
2019/10/18 08:54:00	BASE	7.27	340	8.44	332	-3.3	100	-3.3	8	0	985.6	NA	0.0000		9999	2530	0	0	0
2019/10/18 08:55:00	BASE	6.88	342	8.03	339	-3.3	100	-3.3	8	0	985.6	NA	0.0000		9999	2530	0	0	0
2019/10/18 08:56:00	BASE	6.52	344	8.03	339	-3.3	100	-3.4	8	0	985.6	NA	0.0000		9999	2490	0	0	0
2019/10/18 08:57:00	BASE	6.08	350	8.03	339	-3.3	100	-3.4	9	0	985.6	NA	0.0000		9999	2490	0	0	0
2019/10/18 08:58:00	BASE	5.20	357	8.03	339	-3.3	99	-3.4	9	0	985.7	NA	0.0000		9999	2490	0	0	0
2019/10/18 08:59:00	BASE	4.95	1	8.03	339	-3.3	99	-3.4	9	0	985.7	NA	0.0000		9999	2530	0	0	0
2019/10/18 09:00:00	BASE	5.39	2	7.92	335	-3.4	99	-3.5	9	0	985.7	NA	0.0000		9999	2490	0	0	0
2019/10/18 09:01:00	BASE	5.77	2	7.92	335	-3.4	99	-3.5	10	0	985.7	NA	0.0000		9999	2490	0	0	0
2019/10/18 09:02:00	BASE	6.28	360	7.82	345	-3.4	99	-3.6	10	0	985.7	NA	0.0000		9999	2430	0	0	0
2019/10/18 09:03:00	BASE	6.91	359	7.56	344	-3.5	99	-3.6	11	0	985.7	NA	0.0000		9999	2400	0	0	0
2019/10/18 09:04:00	BASE	7.00	359	7.31	354	-3.5	99	-3.6	12	0	985.7	NA	0.0000		9999	2430	0	0	0
2019/10/18 09:05:00	BASE	6.89	353	7.46	3	-3.5	99	-3.7	13	0	985.7	NA	0.0000		9999	2430	0	0	0
2019/10/18 09:06:00	BASE	6.98	356	7.56	2	-3.5	98	-3.7	13	0	985.8	NA	0.0000		9999	2460	0	0	0
2019/10/18 09:07:00	BASE	7.09	2	7.67	8	-3.4	98	-3.7	13	0	985.8	NA	0.0000		9999	2490	0	0	0
2019/10/18 09:08:00	BASE	7.56	3	8.85	6	-3.4	98	-3.8	13	0	985.8	NA	0.0000		9999	2530	0	0	0
2019/10/18 09:09:00	BASE	7.69	2	9.00	360	-3.4	97	-3.8	14	0	985.8	NA	0.0000		9999	2560	0	0	0
2019/10/18 09:10:00	BASE	7.54	3	9.00	360	-3.4	97	-3.9	14	0	985.8	NA	0.0000		9999	2560	0	0	0
2019/10/18 09:11:00	BASE	7.60	6	9.00	360	-3.5	97	-3.9	14	0	985.8	NA	0.0000		9999	0	0	0	0
2019/10/18 09:12:00	BASE	7.56	5	9.00	360	-3.5	96	-4.0	15	0	985.8	NA	0.0000		9999	0	0	0	0
2019/10/18 09:13:00	BASE	7.53	4	9.00	360	-3.5	96	-4.0	16	0	985.8	NA	0.0000		9999	2590	0	0	0
2019/10/18 09:14:00	BASE	7.65	4	9.00	360	-3.6	96	-4.1	16	0	985.8	NA	0.0000		9999	2620	0	0	0
2019/10/18 09:15:00	BASE	7.73	2	9.00	360	-3.6	96	-4.2	17	0	985.8	NA	0.0000		9999	2620	0	0	0
2019/10/18 09:16:00	BASE	7.84	358	9.00	360	-3.6	95	-4.2	17	0	985.8	NA	0.0000		9999	2620	0	0	0
2019/10/18 09:17:00	BASE	7.87	356	9.00	360	-3.7	95	-4.3	18	0	985.8	NA	0.0000		9999	0	0	0	0
2019/10/18 09:18:00	BASE	7.77	0	9.00	360	-3.7	95	-4.4	18	0	985.8	NA	0.0000		9999	0	0	0	0
2019/10/18 09:19:00	BASE	7.99	3	9.05	1	-3.7	95	-4.4	18	0	985.8	NA	0.0000		9999	0	0	0	0
2019/10/18 09:20:00	BASE	8.00	3	9.05	1	-3.7	95	-4.5	18	0	985.7	NA	0.0000		9999	0	0	0	0
2019/10/18 09:21:00	BASE	8.20	3	9.05	1	-3.8	94	-4.5	19	0	985.7	NA	0.0000		9999	0	0	0	0
2019/10/18 09:22:00	BASE	8.89	4	9.77	3	-3.8	94	-4.5	19	0	985.7	NA	0.0000		9999	0	0	0	0
2019/10/18 09:23:00	BASE	9.16	5	9.77	3	-3.8	94	-4.5	20	0	985.7	NA	0.0000		9999	0	0	0	0
2019/10/18 09:24:00	BASE	9.23	4	9.83	4	-3.7	94	-4.5	21	0	985.7	NA	0.0000		9999	0	0	0	0
2019/10/18 09:25:00	BASE	9.40	2	9.88	360	-3.7	94	-4.5	22	0	985.7	NA	0.0000		9999	0	0	0	0
2019/10/18 09:26:00	BASE	9.37	2	9.98	1	-3.7	94	-4.4	23	0	985.7	NA	0.0000		9999	0	0	0	0
2019/10/18 09:27:00	BASE	9.33	3	9.98	1	-3.7	94	-4.5	24	0	985.7	NA	0.0000		9999	0	0	0	0
2019/10/18 09:28:00	BASE	9.38	2	9.98	1	-3.7	94	-4.5	25	0	985.7	NA	0.0000		9999	0	0	0	0
2019/10/18 09:29:00	BASE	9.47	2	10.03	4	-3.7	94	-4.5	26	0	985.7	NA	0.0000		9999	0	0	0	0
2019/10/18 09:30:00	BASE	9.58	2	10.19	2	-3.7	94	-4.5	28	0	985.7	NA	0.0000		9999	0	0	0	0
2019/10/18 09:31:00	BASE	9.76	359	10.60	312	-3.7	94	-4.5	29	0	985.7	NA	0.0000		9999	0	0	0	0
2019/10/18 09:32:00	BASE	9.81	359	10.60	312	-3.7	94	-4.5	30	0	985.7	NA	0.0000		9999	0	0	0	0
2019/10/18 09:33:00	BASE	9.66	3	10.60	312	-3.7	94	-4.5	32	0	985.7	NA	0.0000		9999	0	0	0	0
2019/10/18 09:34:00	BASE	9.45	3	10.60	312	-3.7	94	-4.5	34	0	985.7	NA	0.0000		9999	2330	0	0	0
2019/10/18 09:35:00	BASE	9.10	2	10.60	312	-3.7	94	-4.5	36	0	985.7	NA	0.0000		9999	2330	0	0	0
2019/10/18 09:36:00	BASE	8.90	4	10.60	312	-3.6	93	-4.6	37	0	985.7	NA	0.0000		9999	2330	0	0	0
2019/10/18 09:37:00	BASE	9.15	5	10.60	312	-3.6	93	-4.6	38	0	985.7	NA	0.0000		9999	0	0	0	0
2019/10/18 09:38:00	BASE	8.90	5	10.60	312	-3.6	93	-4.6	40	0	985.7	NA	0.0000		9999	0	0	0	0
2019/10/18 09:39:00	BASE	8.82	7	10.60	312	-3.6	93	-4.6	40	0	985.7	NA	0.0000		9999	0	0	0	0
2019/10/18 09:40:00	BASE	9.13	5	10.60	312	-3.6	93	-4.7	39	0	985.7	NA	0.0000		9999	0	0	0	0
2019/10/18 09:41:00	BASE	8.65	6	10.49	1	-3.6	92	-4.7	38	0	985.7	NA	0.0000		9999	0	0	0	0
2019/10/18 09:42:00	BASE	8.72	9	10.34	4	-3.7	92	-4.8	37	0	985.7	NA	0.0000		9999	0	0	0	0
2019/10/18 09:43:00	BASE	9.03	10	10.34	4	-3.7	92	-4.8	37	0	985.7	NA	0.0000		9999	2460	0	0	0
2019/10/18 09:44:00	BASE	8.86	11	10.29	11	-3.7	92	-4.8	39	0	985.8	NA	0.0000		9999	0	0	0	0
2019/10/18 09:45:00	BASE	8.80	11	10.29	11	-3.7	92	-4.8	42	0	985.8	NA	0.0000		9999	2460	0	0	0
2019/10/18 09:46:00	BASE	8.81	11	10.08	8	-3.7	92	-4.8	44	0	985.8	NA	0.0000		9999	2360	0	0	0
2019/10/18 09:47:00	BASE	8.79	9	9.88	1	-3.7	92	-4.8	47	0	985.8	NA	0.0000		9999	2400	0	0	0
2019/10/18 09:48:00	BASE	8.59	8	9.88	1	-3.7	92	-4.8	50	0	985.8	NA	0.0000		9999	2360	0	0	0
2019/10/18 09:49:00	BASE	8.95	11	9.88	12	-3.7	92	-4.8	52	0	985.8	NA	0.0000		9999	2360	0	0	0
2019/10/18 09:50:00	BASE	9.47	13	9.98	13	-3.7	92	-4.8	54	0	985.8	NA	0.0000		9999	2430	0	0	0
2019/10/18 09:51:00	BASE	9.45	14	9.98	13	-3.7	92	-4.8	58	0	985.8	NA	0.0000		9999	2360	0	0	0
2019/10/18 09:52:00	BASE	9.31	16	9.98	13	-3.7	92	-4.8	72	0	985.9	NA	0.0000		9999	0	0	0	0
2019/10/18 09:53:00	BASE	8.63	19	9.98	13	-3.6	92	-4.7	91	0	985.9	NA	0.0000		9999	0	0	0	0
2019/10/18 09:54:00	BASE	8.33	24	9.98	13	-3.6	92	-4.8	112	0	985.9	NA	0.0000		9999	0	0	0	0
2019/10/18 09:55:00	BASE	8.59	27	9.98	13	-3.7	92	-4.8	116	0	985.9	NA	0.0000		9999	0	0	0	0
2019/10/18 09:56:00	BASE	8.88	30	9.98	13	-3.7	92	-4.8	121	0	985.8	NA	0.0000		9999	0	0	0	0
2019/10/18 09:57:00	BASE	9.65	31	10.70	34	-3.7	92	-4.9	128	0	985.8	NA	0.0000		9999	0	0	0	0
2019/10/18 09:58:00	BASE	10.17	31	10.80	33	-3.7	91	-4.9	134	0	985.8	NA	0.0000		9999	8630	0	0	0
2019/10/18 09:59:00	BASE	10.37	32	11.21	31	-3.6	91	-4.8	137	0	985.8	NA	0.0000		9999	8400	0	0	0
2019/10/18 10:00:00	BASE	10.52	31	11.21	31	-3.6	91	-4.8	145	0	985.8	NA	0.0000		9999	8240	0	0	0
2019/10/18 10:01:00	BASE	9.90	32	11.21	31	-3.5	91	-4.8	156	0	985.8	NA	0.0000		9999	8100	0	0	0
2019/10/18 10:02:00	BASE	9.11	35	11.21	31	-3.5	91	-4.8	169	0	985.8	NA	0.0000		9999	7970	0	0	0
2019/10/18 10:03:00	BASE	8.99	36	11.21	31	-3.5	91	-4.8	177	0	985.8	NA	0.0000		9999	7910	0	0	0
2019/10/18 10:04:00	BASE	9.32	37	11.21	31	-3.5	91	-4.8	180	0	985.7	NA	0.0000		9999	7740	0	0	0
2019/10/18 10:05:00	BASE	9.78	39	11.21	31	-3.5	90	-4.8	183	0	985.7	NA	0.0000		9999	7610	0	0	0
2019/10/18 10:06:00	BASE	9.90	39	11.21	31	-3.5	90	-4.8	190	0	985.7	NA	0.0000		9999	7550	0	0	0
2019/10/18 10:07:00	BASE	10.07	40	11.21	31	-3.4	90	-4.9	190	0	985.6	NA	0.0000		9999	7550	0	0	0
2019/10/18 10:08:00	BASE	9.80	40	11.21	31	-3.4	90	-4.8	199	0	985.6	NA	0.0000		9999	7580	0	0	0
2019/10/18 10:09:00	BASE	9.68	39	11.11	29	-3.3	89	-4.8	201	0	985.6	NA	0.0000		9999	7510	0	0	0
2019/10/18 10:10:00	BASE	10.24	38	11.11	34	-3.3	89	-4.9	179	0	985.6	NA	0.0000		9999	7450	0	0	0
2019/10/18 10:11:00	BASE	10.17	37	11.37	32	-3.3	89	-4.9	123	0	985.5	NA	0.0000		9999	7380	0	0	0
2019/10/18 10:12:00	BASE	9.87	37	11.37	32	-3.3	88	-4.9	150	0	985.5	NA	0.0000		9999	7450	0	0	0
2019/10/18 10:13:00	BASE	10.24	38	11.68	40	-3.3	88	-5.0	106	0	985.5	NA	0.0000		9999	6460	7510	0	0
2019/10/18 10:14:00	BASE	10.42	40	11.68	40	-3.2	87	-5.1	95	0	985.4	NA	0.0000		9999	6100	7420	0	0
2019/10/18 10:15:00	BASE	10.37	40	11.68	40	-3.3	87	-5.2	109	0	985.4	NA	0.0000		9999	6040	6890	0	0
2019/10/18 10:16:00	BASE	11.02	41	12.19	40	-3.3	86	-5.2	97	0	985.4	NA	0.0000		9999	5970	8500	0	0
2019/10/18 10:17:00	BASE	11.54	42	12.24	45	-3.3	86	-5.3	92	0	985.4	NA	0.0000		9999	6170	8330	0	0
2019/10/18 10:18:00	BASE	11.95	43	13.74	40	-3.2	86	-5.3	91	0	985.4	NA	0.0000		9999	5840	0	0	0
2019/10/18 10:19:00	BASE	12.27	43	13.74	40	-3.2	85	-5.3	92	0	985.3	NA	0.0000		9999	5680	7420	0	0
2019/10/18 10:20:00	BASE	12.09	41	13.74	40	-3.2	85	-5.3	97	0	985.3	NA	0.0000		9999	5510	7320	9580	0
2019/10/18 10:21:00	BASE	12.16	41	13.94	40	-3.1	85	-5.4	128	0	985.3	NA	0.0000		9999	5350	7550	0	0
2019/10/18 10:22:00	BASE	12.68	43	13.94	40	-3.1	84	-5.4	127	0	985.2	NA	0.0000		9999	5220	9220	0	0
2019/10/18 10:23:00	BASE	13.28	43	14.61	43	-3.1	84	-5.4	142	0	985.2	NA	0.0000		9999	5320	0	0	0
2019/10/18 10:24:00	BASE	13.66	42	14.61	43	-3.0	83	-5.5	167	0	985.1	NA	0.0000		9999	5280	0	0	0
2019/10/18 10:25:00	BASE	14.09	41	15.38	41	-3.0	83	-5.5	166	0	985.1	NA	0.0000		9999	5090	11710	0	0
2019/10/18 10:26:00	BASE	13.80	42	15.38	41	-3.0	83	-5.5	190	0	985.1	NA	0.0000		9999	5050	11580	0	0
2019/10/18 10:27:00	BASE	13.76	42	15.90	43	-2.9	83	-5.5	214	0	985.1	NA	0.0000		9999	5180	11650	0	0
2019/10/18 10:28:00	BASE	14.34	42	15.90	43	-2.9	82	-5.5	210	0	985.0	NA	0.0000		9999	5090	11420	0	0
2019/10/18 10:29:00	BASE	14.77	41	16.62	42	-2.9	82	-5.5	177	0	985.0	NA	0.0000		9999	5020	6100	11250	0
2019/10/18 10:30:00	BASE	14.55	41	16.62	42	-2.8	82	-5.5	180	0	985.0	NA	0.0000		9999	4990	6960	11390	0
2019/10/18 10:31:00	BASE	14.36	41	16.62	42	-2.8	82	-5.5	229	0	984.9	NA	0.0000		9999	4950	11650	0	0
2019/10/18 10:32:00	BASE	14.40	44	16.62	42	-2.8	82	-5.5	256	0	984.9	NA	0.0000		9999	4990	6230	7550	0
2019/10/18 10:33:00	BASE	14.06	43	16.62	42	-2.8	82	-5.5	273	0	984.9	NA	0.0000		9999	5090	6230	11580	0
2019/10/18 10:34:00	BASE	14.46	42	16.62	42	-2.7	81	-5.5	258	0	984.9	NA	0.0000		9999	5120	7640	0	0
2019/10/18 10:35:00	BASE	14.38	42	16.62	42	-2.7	81	-5.5	213	0	984.9	NA	0.0000		9999	5050	11580	0	0
2019/10/18 10:36:00	BASE	14.38	43	16.62	42	-2.6	81	-5.5	154	0	984.9	NA	0.0000		9999	4760	7350	0	0
2019/10/18 10:37:00	BASE	14.19	43	16.62	42	-2.6	80	-5.5	140	0	984.9	NA	0.0000		9999	4660	7150	0	0
2019/10/18 10:38:00	BASE	13.60	44	16.62	42	-2.6	80	-5.6	135	0	984.9	NA	0.0000		9999	4720	7220	0	0
2019/10/18 10:39:00	BASE	13.99	43	16.51	42	-2.6	79	-5.7	132	0	984.9	NA	0.0000		9999	4820	5680	7250	0
2019/10/18 10:40:00	BASE	13.66	42	16.51	42	-2.6	79	-5.7	124	0	984.9	NA	0.0000		9999	4690	7090	0	0
2019/10/18 10:41:00	BASE	12.81	41	16.51	42	-2.6	78	-5.8	112	0	984.9	NA	0.0000		9999	4760	7120	0	0
2019/10/18 10:42:00	BASE	12.81	41	16.51	42	-2.6	78	-5.8	105	0	984.9	NA	0.0000		9999	5090	6300	7050	0
2019/10/18 10:43:00	BASE	12.96	42	16.51	42	-2.6	78	-5.9	106	0	984.9	NA	0.0000		9999	4890	5910	0	0
2019/10/18 10:44:00	BASE	12.82	43	16.51	42	-2.5	78	-5.9	110	0	984.9	NA	0.0000		9999	5120	6170	0	0
2019/10/18 10:45:00	BASE	12.86	44	16.51	42	-2.5	78	-5.9	118	0	984.9	NA	0.0000		9999	4760	6100	0	0
2019/10/18 10:46:00	BASE	12.52	44	16.51	42	-2.5	77	-5.9	129	0	984.9	NA	0.0000		9999	5970	6760	0	0
2019/10/18 10:47:00	BASE	12.53	44	16.51	42	-2.5	77	-5.9	135	0	984.9	NA	0.0000		9999	5940	6590	0	0
2019/10/18 10:48:00	BASE	12.88	43	15.54	35	-2.4	77	-6.0	138	0	984.9	NA	0.0000		9999	5910	6560	0	0
2019/10/18 10:49:00	BASE	12.60	42	14.76	35	-2.4	77	-6.0	139	0	984.9	NA	0.0000		9999	5940	6560	22930	0
2019/10/18 10:50:00	BASE	11.92	40	14.76	35	-2.4	76	-6.0	141	0	984.9	NA	0.0000		9999	6000	22250	0	0
2019/10/18 10:51:00	BASE	12.26	40	14.35	42	-2.4	76	-6.1	145	0	984.9	NA	0.0000		9999	5940	0	0	0
2019/10/18 10:52:00	BASE	12.65	40	14.35	42	-2.4	76	-6.1	147	0	984.7	NA	0.0000		9999	5910	0	0	0
2019/10/18 10:53:00	BASE	12.08	40	14.35	42	-2.4	75	-6.2	144	0	984.8	NA	0.0000		9999	5810	6530	0	0
2019/10/18 10:54:00	BASE	11.98	39	14.35	42	-2.4	75	-6.2	137	0	984.8	NA	0.0000		9999	5810	6430	0	0
2019/10/18 10:55:00	BASE	11.19	38	14.35	42	-2.4	75	-6.2	126	0	984.8	NA	0.0000		9999	5910	0	0	0
2019/10/18 10:56:00	BASE	11.21	39	14.35	42	-2.4	76	-6.1	115	0	984.8	NA	0.0000		9999	5740	0	0	0
2019/10/18 10:57:00	BASE	11.64	37	14.35	42	-2.5	76	-6.1	106	0	984.8	NA	0.0000		9999	5510	0	0	0
2019/10/18 10:58:00	BASE	11.10	37	14.35	42	-2.5	77	-6.0	100	0	984.8	NA	0.0000		9999	5540	6270	0	0
2019/10/18 10:59:00	BASE	11.16	38	14.35	42	-2.5	77	-5.9	96	0	984.8	NA	0.0000		9999	5510	0	0	0
2019/10/18 11:00:00	BASE	11.74	37	14.35	42	-2.5	78	-5.8	94	0	984.8	NA	0.0000		9999	5480	6170	0	0
2019/10/18 11:01:00	BASE	11.65	39	14.20	36	-2.5	78	-5.8	94	0	984.8	NA	0.0000		9999	6170	0	0	0
2019/10/18 11:02:00	BASE	11.43	42	14.20	36	-2.5	78	-5.8	99	0	984.8	NA	0.0000		9999	5970	0	0	0
2019/10/18 11:03:00	BASE	11.67	38	14.20	36	-2.5	78	-5.8	112	0	984.8	NA	0.0000		9999	5810	0	0	0
2019/10/18 11:04:00	BASE	11.31	36	14.20	36	-2.4	78	-5.8	130	0	984.8	NA	0.0000		9999	5380	5810	0	0
2019/10/18 11:05:00	BASE	11.79	37	14.20	36	-2.4	77	-5.9	149	0	984.8	NA	0.0000		9999	5350	0	0	0
2019/10/18 11:06:00	BASE	12.95	38	14.25	37	-2.4	77	-5.9	168	0	984.8	NA	0.0000		9999	5120	0	0	0
2019/10/18 11:07:00	BASE	12.80	37	14.25	37	-2.3	76	-5.9	189	0	984.7	NA	0.0000		9999	5180	0	0	0
2019/10/18 11:08:00	BASE	11.45	32	14.25	37	-2.3	76	-6.0	214	0	984.8	NA	0.0000		9999	5090	0	0	0
2019/10/18 11:09:00	BASE	10.87	31	14.25	37	-2.2	75	-6.1	194	0	984.7	NA	0.0000		9999	5090	0	0	0
2019/10/18 11:10:00	BASE	12.06	33	14.25	37	-2.2	74	-6.2	163	0	984.7	NA	0.0000		9999	5150	0	0	0
2019/10/18 11:11:00	BASE	12.78	34	14.25	37	-2.1	73	-6.3	146	0	984.7	NA	0.0000		9999	5180	0	0	0
2019/10/18 11:12:00	BASE	12.64	35	14.25	37	-2.1	72	-6.4	134	0	984.7	NA	0.0000		9999	4590	5410	0	0
2019/10/18 11:13:00	BASE	12.22	34	14.25	37	-2.0	72	-6.5	125	0	984.7	NA	0.0000		9999	5250	0	0	0
2019/10/18 11:14:00	BASE	12.14	35	14.25	37	-2.0	71	-6.6	119	0	984.7	NA	0.0000		9999	4690	0	0	0
2019/10/18 11:15:00	BASE	13.12	37	15.07	35	-2.0	71	-6.6	115	0	984.6	NA	0.0000		9999	3120	5150	0	0
2019/10/18 11:16:00	BASE	13.09	35	15.07	35	-1.9	70	-6.7	110	0	984.6	NA	0.0000		9999	3080	3710	0	0
2019/10/18 11:17:00	BASE	13.04	35	15.07	35	-1.9	70	-6.7	104	0	984.5	NA	0.0000		9999	3050	4950	0	0
2019/10/18 11:18:00	BASE	13.46	38	15.07	35	-1.9	69	-6.7	98	0	984.5	NA	0.0000		9999	3020	4860	0	0
2019/10/18 11:19:00	BASE	12.65	39	15.07	35	-1.8	69	-6.8	92	0	984.5	NA	0.0000		9999	3050	4790	0	0
2019/10/18 11:20:00	BASE	12.04	37	15.07	35	-1.8	69	-6.8	85	0	984.4	NA	0.0000		9999	4590	0	0	0
2019/10/18 11:21:00	BASE	12.32	36	15.07	35	-1.8	69	-6.8	79	0	984.4	NA	0.0000		9999	4460	0	0	0
2019/10/18 11:22:00	BASE	12.18	35	15.07	35	-1.8	69	-6.8	76	0	984.4	NA	0.0000		9999	4460	0	0	0
2019/10/18 11:23:00	BASE	11.89	34	15.07	35	-1.7	69	-6.8	75	0	984.4	NA	0.0000		9999	4460	0	0	0
2019/10/18 11:24:00	BASE	11.53	32	15.07	35	-1.7	69	-6.7	74	0	984.5	NA	0.0000		9999	4360	0	0	0
2019/10/18 11:25:00	BASE	11.01	28	14.46	34	-1.7	69	-6.6	73	0	984.5	NA	0.0000		9999	4360	0	0	0
2019/10/18 11:26:00	BASE	10.71	28	14.46	34	-1.6	69	-6.5	72	0	984.5	NA	0.0000		9999	4300	0	0	0
2019/10/18 11:27:00	BASE	10.69	27	14.30	40	-1.6	69	-6.5	74	0	984.5	NA	0.0000		9999	4330	0	0	0
2019/10/18 11:28:00	BASE	11.03	26	14.30	40	-1.6	69	-6.4	76	0	984.5	NA	0.0000		9999	4270	0	0	0
2019/10/18 11:29:00	BASE	11.77	26	14.30	40	-1.6	70	-6.4	80	0	984.4	NA	0.0000		9999	4170	0	0	0
2019/10/18 11:30:00	BASE	13.10	27	14.82	30	-1.5	70	-6.3	85	0	984.4	NA	0.0000		9999	4000	0	0	0
2019/10/18 11:31:00	BASE	13.24	28	14.82	30	-1.5	70	-6.3	86	0	984.3	NA	0.0000		9999	3970	0	0	0
2019/10/18 11:32:00	BASE	12.96	28	14.82	30	-1.4	70	-6.3	84	0	984.3	NA	0.0000		9999	3900	0	0	0
2019/10/18 11:33:00	BASE	13.23	28	14.82	30	-1.4	69	-6.3	82	0	984.3	NA	0.0000		9999	4070	0	0	0
2019/10/18 11:34:00	BASE	13.24	29	14.82	30	-1.3	69	-6.3	82	0	984.2	NA	0.0000		9999	4000	0	0	0
2019/10/18 11:35:00	BASE	13.37	29	14.82	30	-1.3	68	-6.4	82	0	984.2	NA	0.0000		9999	3970	0	0	0
2019/10/18 11:36:00	BASE	13.60	30	14.82	30	-1.3	68	-6.4	85	0	984.2	NA	0.0000		9999	4040	0	0	0
2019/10/18 11:37:00	BASE	13.21	33	14.82	30	-1.3	68	-6.4	88	0	984.1	NA	0.0000		9999	3940	0	0	0
2019/10/18 11:38:00	BASE	12.86	33	14.82	30	-1.3	68	-6.4	91	0	984.1	NA	0.0000		9999	3840	0	0	0
2019/10/18 11:39:00	BASE	12.16	33	14.82	30	-1.3	68	-6.4	94	0	984.1	NA	0.0000		9999	3900	0	0	0
2019/10/18 11:40:00	BASE	11.62	31	14.66	27	-1.3	69	-6.3	96	0	984.0	NA	0.0000		9999	3640	0	0	0
2019/10/18 11:41:00	BASE	12.70	29	14.92	31	-1.3	69	-6.3	95	0	983.9	NA	0.0000		9999	3710	0	0	0
2019/10/18 11:42:00	BASE	14.22	31	16.62	35	-1.2	68	-6.3	94	0	983.9	NA	0.0000		9999	3670	0	0	0
2019/10/18 11:43:00	BASE	15.63	33	18.21	35	-1.2	68	-6.3	96	0	983.8	NA	0.0000		9999	3610	0	0	0
2019/10/18 11:44:00	BASE	15.65	34	18.21	35	-1.2	68	-6.3	97	0	983.8	NA	0.0000		9999	3610	0	0	0
2019/10/18 11:45:00	BASE	16.07	33	18.21	35	-1.2	68	-6.3	97	0	983.7	NA	0.0000		9999	3670	0	0	0
2019/10/18 11:46:00	BASE	17.22	34	19.19	37	-1.1	68	-6.3	98	0	983.7	NA	0.0000		9999	3610	0	0	0
2019/10/18 11:47:00	BASE	17.22	35	19.70	33	-1.1	68	-6.3	98	0	983.7	NA	0.0000		9999	3610	0	0	0
2019/10/18 11:48:00	BASE	17.59	36	20.01	32	-1.1	68	-6.3	98	0	983.6	NA	0.0000		9999	3580	0	0	0
2019/10/18 11:49:00	BASE	17.49	35	20.01	32	-1.1	68	-6.3	96	0	983.6	NA	0.0000		9999	3580	0	0	0
2019/10/18 11:50:00	BASE	17.52	34	20.01	32	-1.1	68	-6.3	93	0	983.6	NA	0.0000		9999	3580	0	0	0
2019/10/18 11:51:00	BASE	17.61	35	20.01	32	-1.1	68	-6.2	93	0	983.6	NA	0.0000		9999	2720	0	0	0
2019/10/18 11:52:00	BASE	17.27	35	20.01	32	-1.2	69	-6.2	96	0	983.6	NA	0.0000		9999	3670	0	0	0
2019/10/18 11:53:00	BASE	17.75	35	20.37	35	-1.2	69	-6.1	100	0	983.5	NA	0.0000		9999	3670	0	0	0
2019/10/18 11:54:00	BASE	18.35	35	20.37	35	-1.2	69	-6.1	103	0	983.5	NA	0.0000		9999	3710	0	0	0
2019/10/18 11:55:00	BASE	18.30	34	20.37	35	-1.1	70	-6.0	102	0	983.5	NA	0.0000		9999	3840	0	0	0
2019/10/18 11:56:00	BASE	18.26	34	20.37	35	-1.1	70	-6.0	101	0	983.5	NA	0.0000		9999	3610	0	0	0
2019/10/18 11:57:00	BASE	18.38	34	20.83	31	-1.1	70	-5.9	102	0	983.5	NA	0.0000		9999	3480	0	0	0
2019/10/18 11:58:00	BASE	18.75	35	21.25	35	-1.1	70	-5.9	104	0	983.4	NA	0.0000		9999	3480	0	0	0
2019/10/18 11:59:00	BASE	18.91	37	21.25	35	-1.1	70	-5.8	108	0	983.4	NA	0.0000		9999	3410	0	0	0
2019/10/18 12:00:00	BASE	19.02	38	22.48	31	-1.1	70	-5.8	112	0	983.4	NA	0.0000		9999	3250	0	0	0
2019/10/18 12:01:00	BASE	19.57	36	22.48	31	-1.1	70	-5.8	118	0	983.3	NA	0.0000		9999	2560	22900	0	0
2019/10/18 12:02:00	BASE	19.94	36	22.64	39	-1.0	70	-5.8	124	0	983.3	NA	0.0000		9999	2490	0	0	0
2019/10/18 12:03:00	BASE	19.60	36	22.64	39	-1.0	70	-5.8	129	0	983.3	NA	0.0000		9999	4950	0	0	0
2019/10/18 12:04:00	BASE	18.68	35	22.64	39	-1.0	69	-5.9	130	0	983.3	NA	0.0000		9999	5020	0	0	0
2019/10/18 12:05:00	BASE	18.88	31	22.64	39	-1.0	69	-6.0	127	0	983.2	NA	0.0000		9999	5020	0	0	0
2019/10/18 12:06:00	BASE	19.43	30	22.64	39	-1.0	69	-6.0	124	0	983.2	NA	0.0000		9999	4590	0	0	0
2019/10/18 12:07:00	BASE	19.88	30	22.84	30	-1.0	69	-5.9	123	0	983.2	NA	0.0000		9999	4100	0	0	0
2019/10/18 12:08:00	BASE	20.16	32	22.84	30	-1.0	69	-5.9	122	0	983.2	NA	0.0000		9999	3710	0	0	0
2019/10/18 12:09:00	BASE	19.50	31	22.84	30	-1.0	69	-5.9	122	0	983.2	NA	0.0000		9999	0	0	0	4630
2019/10/18 12:10:00	BASE	18.78	29	22.84	30	-1.0	70	-5.9	121	0	983.1	NA	0.0000		9999	0	0	0	4530
2019/10/18 12:11:00	BASE	18.61	29	22.84	30	-1.0	70	-5.8	119	0	983.2	NA	0.0000		9999	0	0	0	5180
2019/10/18 12:12:00	BASE	18.53	27	22.84	30	-1.0	70	-5.8	120	0	983.2	NA	0.0000	UP	9999	0	0	0	5120
2019/10/18 12:13:00	BASE	18.16	26	22.84	30	-1.0	71	-5.7	124	0	983.1	NA	0.0000	UP	9999	0	0	0	4200
2019/10/18 12:14:00	BASE	18.57	25	23.87	20	-1.0	71	-5.5	130	0	983.1	NA	0.0000	UP	9999	0	0	0	4170
2019/10/18 12:15:00	BASE	19.58	26	23.87	20	-0.9	72	-5.4	138	0	983.0	NA	0.0000	UP	9999	0	0	0	4660
2019/10/18 12:16:00	BASE	19.09	27	23.87	20	-0.9	72	-5.4	140	0	983.0	NA	0.0000	UP	9999	0	0	0	5710
2019/10/18 12:17:00	BASE	18.86	26	23.87	20	-0.9	72	-5.3	138	0	983.0	NA	0.0000	UP	9999	0	0	0	6000
2019/10/18 12:18:00	BASE	19.25	25	23.87	20	-0.9	72	-5.3	139	0	983.0	NA	0.0000	UP	9999	0	0	0	6460
2019/10/18 12:19:00	BASE	19.35	26	23.87	20	-0.9	72	-5.3	146	0	982.9	NA	0.0000	UP	9999	0	0	0	6920
2019/10/18 12:20:00	BASE	20.20	27	23.87	20	-0.9	72	-5.2	156	0	982.9	NA	0.0000	UP	9999	0	0	0	6330
2019/10/18 12:21:00	BASE	21.03	29	24.54	31	-0.8	72	-5.2	172	0	982.9	NA	0.0000	UP	9999	0	0	0	6040
2019/10/18 12:22:00	BASE	21.30	30	24.54	31	-0.8	73	-5.2	190	0	982.8	NA	0.0000		9999	0	0	0	5480
2019/10/18 12:23:00	BASE	20.72	29	24.54	31	-0.9	73	-5.1	205	0	982.9	NA	0.0000	UP	9999	0	0	0	6890
2019/10/18 12:24:00	BASE	20.37	30	24.54	31	-0.9	73	-5.0	218	0	982.8	NA	0.0000		9999	0	0	0	6760
2019/10/18 12:25:00	BASE	21.08	32	25.62	39	-0.9	74	-5.0	230	0	982.8	NA	0.0000		9999	0	0	0	6730
2019/10/18 12:26:00	BASE	21.41	34	25.62	39	-0.9	74	-4.9	247	0	982.7	NA	0.0000		9999	5840	0	0	0
2019/10/18 12:27:00	BASE	20.90	31	25.62	39	-0.9	74	-4.9	265	0	982.7	NA	0.0000		9999	4070	5870	0	0
2019/10/18 12:28:00	BASE	19.32	27	25.62	39	-0.9	75	-4.8	278	0	982.7	NA	0.0000		9999	0	0	0	6630
2019/10/18 12:29:00	BASE	19.01	26	25.62	39	-0.9	75	-4.8	302	0	982.6	NA	0.0000		9999	5580	0	0	0
2019/10/18 12:30:00	BASE	19.12	26	25.62	39	-0.9	75	-4.7	285	0	982.5	NA	0.0000		9999	5350	0	0	0
2019/10/18 12:31:00	BASE	19.67	26	25.62	39	-0.9	75	-4.7	267	0	982.4	NA	0.0000		9999	0	0	0	5680
2019/10/18 12:32:00	BASE	21.69	26	25.62	39	-0.9	76	-4.6	225	0	982.4	NA	0.0000		9999	4400	0	0	0
2019/10/18 12:33:00	BASE	22.60	26	26.34	27	-0.9	76	-4.6	202	0	982.3	NA	0.0000		9999	0	0	0	5350
2019/10/18 12:34:00	BASE	23.30	26	28.14	23	-0.9	77	-4.5	187	0	982.2	NA	0.0000		9999	0	0	0	5910
2019/10/18 12:35:00	BASE	23.27	27	28.14	23	-0.9	77	-4.5	171	0	982.1	NA	0.0000	UP	9999	4300	5350	0	0
2019/10/18 12:36:00	BASE	23.91	28	28.24	33	-0.9	77	-4.4	155	0	982.0	NA	0.0000	UP	9000	4460	0	0	0
2019/10/18 12:37:00	BASE	24.72	26	28.24	33	-0.9	77	-4.4	145	0	982.0	NA	0.0000	UP	8000	4860	0	0	0
2019/10/18 12:38:00	BASE	26.35	24	32.26	25	-1.0	78	-4.3	134	0	981.8	NA	0.0000	UP	9000	0	0	0	1440
2019/10/18 12:39:00	BASE	27.55	29	32.26	25	-1.0	78	-4.3	129	0	981.8	NA	0.0000	UP	9000	4760	0	0	0
2019/10/18 12:40:00	BASE	26.23	30	32.26	25	-1.0	79	-4.3	135	0	981.8	NA	0.0000	UP	8000	4660	0	0	0
2019/10/18 12:41:00	BASE	25.59	26	32.26	25	-1.0	79	-4.3	157	0	981.7	NA	0.0000	UP	7000	0	0	0	4400
2019/10/18 12:42:00	BASE	26.20	27	32.26	25	-1.1	79	-4.2	178	0	981.7	NA	0.0000	UP	7000	0	0	0	5050
2019/10/18 12:43:00	BASE	27.68	27	32.41	25	-1.1	79	-4.2	195	0	981.6	NA	0.0000	UP	8000	0	0	0	5480
2019/10/18 12:44:00	BASE	27.49	28	32.41	25	-1.1	79	-4.2	206	0	981.6	NA	0.0000	UP	9000	0	0	0	5480
2019/10/18 12:45:00	BASE	26.91	27	32.41	25	-1.1	79	-4.2	209	0	981.6	NA	0.0000	UP	6000	0	0	0	1800
2019/10/18 12:46:00	BASE	28.60	26	33.34	38	-1.0	80	-4.1	215	0	981.4	NA	0.0000	UP	4000	3280	0	0	0
2019/10/18 12:47:00	BASE	29.55	27	33.34	38	-1.0	80	-4.1	219	0	981.6	NA	0.0000	UP	4300	0	0	0	820
2019/10/18 12:48:00	BASE	28.73	27	33.34	38	-1.0	80	-4.1	219	0	981.6	NA	0.0000	UP	2900	0	0	0	5150
2019/10/18 12:49:00	BASE	28.39	25	33.34	38	-1.1	80	-4.1	215	0	981.6	NA	0.0000	UP	2900	0	0	0	4460
2019/10/18 12:50:00	BASE	27.80	24	33.34	38	-1.1	80	-4.1	206	0	981.6	NA	0.0000	UP	7000	0	0	0	4660
2019/10/18 12:51:00	BASE	27.58	23	33.34	38	-1.1	80	-4.1	188	0	981.6	NA	0.0000	UP	9000	0	0	0	4790
2019/10/18 12:52:00	BASE	28.74	23	33.34	38	-1.2	81	-4.1	183	0	981.5	NA	0.0000	UP	9000	0	0	0	4000
2019/10/18 12:53:00	BASE	28.86	24	33.34	38	-1.2	81	-4.1	182	0	981.5	NA	0.0000	UP	9000	0	0	0	3970
2019/10/18 12:54:00	BASE	29.63	23	34.47	18	-1.2	81	-4.0	182	0	981.4	NA	0.0000	UP	8000	0	0	0	3280
2019/10/18 12:55:00	BASE	30.52	22	34.47	18	-1.2	81	-4.0	189	0	981.4	NA	0.0000	UP	7000	330	0	0	0
2019/10/18 12:56:00	BASE	29.45	24	34.47	18	-1.2	81	-4.0	204	0	981.4	NA	0.0000	UP	4000	260	0	0	0
2019/10/18 12:57:00	BASE	29.36	25	34.47	18	-1.2	81	-4.1	218	0	981.3	NA	0.0000	-SN	3000	0	0	0	3410
2019/10/18 12:58:00	BASE	29.56	24	34.47	18	-1.2	81	-4.0	229	0	981.3	NA	0.0000	-SN	3000	0	0	0	3450
2019/10/18 12:59:00	BASE	29.80	26	34.47	18	-1.3	81	-4.0	227	0	981.3	NA	0.0000	-SN	3800	0	0	0	2950
2019/10/18 13:00:00	BASE	28.46	26	34.47	18	-1.3	82	-4.0	219	0	981.5	NA	0.0000	-SN	4500	0	0	0	2790
2019/10/18 13:01:00	BASE	27.12	26	34.47	18	-1.3	82	-4.0	207	0	981.5	NA	0.0000	-SN	4300	0	0	0	3280
2019/10/18 13:02:00	BASE	28.14	26	34.47	18	-1.3	82	-4.0	196	0	981.5	NA	0.0000	-SN	5000	0	0	0	6330
2019/10/18 13:03:00	BASE	29.59	25	34.47	18	-1.3	82	-3.9	180	0	981.4	NA	0.0000	-SN	7000	0	0	0	6330
2019/10/18 13:04:00	BASE	30.31	23	34.36	24	-1.3	82	-3.9	168	0	981.4	NA	0.0000	-SN	4000	0	0	0	5050
2019/10/18 13:05:00	BASE	30.51	22	34.36	24	-1.3	83	-3.9	160	0	981.4	NA	0.0000	-SN	2900	0	0	0	4040
2019/10/18 13:06:00	BASE	30.38	23	34.36	24	-1.3	83	-3.9	158	0	981.5	NA	0.0000	-SN	3600	0	0	0	3450
2019/10/18 13:07:00	BASE	28.64	24	35.03	32	-1.3	83	-3.9	151	0	981.6	NA	0.0000	-SN	4500	0	0	0	2950
2019/10/18 13:08:00	BASE	29.51	27	35.03	32	-1.4	83	-3.9	139	0	981.4	NA	0.0000	-SN	5000	0	0	0	2760
2019/10/18 13:09:00	BASE	30.58	28	35.03	32	-1.4	83	-3.9	125	0	981.5	NA	0.0000	-SN	4200	0	0	0	2430
2019/10/18 13:10:00	BASE	29.08	27	35.03	32	-1.5	84	-3.9	113	0	981.6	NA	0.0000	-SN	4600	0	0	0	2070
2019/10/18 13:11:00	BASE	28.51	26	35.03	32	-1.5	84	-3.8	110	0	981.6	NA	0.0000	-SN	4700	330	0	0	0
2019/10/18 13:12:00	BASE	30.12	25	35.03	32	-1.5	84	-3.8	113	0	981.5	NA	0.0000	-SN	4900	230	0	0	0
2019/10/18 13:13:00	BASE	31.19	24	35.03	32	-1.5	85	-3.8	113	0	981.5	NA	0.0000	-SN	3700	0	0	0	1570
2019/10/18 13:14:00	BASE	30.93	22	35.03	32	-1.5	85	-3.7	115	0	981.5	NA	0.0000	-SN	2400	0	0	0	1380
2019/10/18 13:15:00	BASE	31.86	21	35.19	23	-1.5	85	-3.7	120	0	981.4	NA	0.0000	-SN BR	1500	0	0	0	1180
2019/10/18 13:16:00	BASE	33.45	23	36.17	23	-1.5	85	-3.7	122	0	981.3	NA	0.0000	-SN BR	1300	0	0	0	1180
2019/10/18 13:17:00	BASE	33.96	22	36.17	23	-1.6	85	-3.7	131	0	981.3	NA	0.0000	-SN BR	1500	0	0	0	1250
2019/10/18 13:18:00	BASE	33.55	21	36.83	23	-1.6	86	-3.7	148	0	981.3	NA	0.0000	-SN BR	1100	0	0	0	1080
2019/10/18 13:19:00	BASE	33.03	20	36.83	23	-1.6	86	-3.7	176	0	981.3	NA	0.0000	-SN BR	1000	0	0	0	950
2019/10/18 13:20:00	BASE	32.05	21	36.83	23	-1.7	86	-3.7	200	0	981.4	NA	0.0000	-SN BR	9999	0	0	0	820
2019/10/18 13:21:00	BASE	32.30	21	36.83	23	-1.7	87	-3.7	211	0	981.3	NA	0.0000	-SN BR	4700	0	0	0	750
2019/10/18 13:22:00	BASE	33.56	22	38.69	31	-1.8	87	-3.6	216	0	981.1	NA	0.0000	-SN BR	8000	0	0	0	720
2019/10/18 13:23:00	BASE	33.69	22	38.69	31	-1.8	88	-3.6	220	0	981.2	NA	0.0000	-SN BR	9999	0	0	0	720
2019/10/18 13:24:00	BASE	32.91	24	38.69	31	-1.9	89	-3.5	224	0	981.3	NA	0.0000	-SN BR	M	0	0	0	820
2019/10/18 13:25:00	BASE	33.00	25	38.69	31	-1.9	90	-3.4	228	0	981.3	NA	0.0000	-SN BR	9999	0	0	0	720
2019/10/18 13:26:00	BASE	32.38	27	38.69	31	-2.0	91	-3.2	231	0	981.4	NA	0.0000	-SN BR	9999	0	0	0	720
2019/10/18 13:27:00	BASE	31.39	28	38.69	31	-2.0	92	-3.1	227	0	981.5	NA	0.0000	-SN BR	9999	2890	20770	0	0
2019/10/18 13:28:00	BASE	30.49	25	38.69	31	-2.0	94	-2.9	218	0	981.5	NA	0.0000	-SN BR	9999	0	0	0	2820
2019/10/18 13:29:00	BASE	30.05	22	38.69	31	-2.0	95	-2.7	219	0	981.5	NA	0.0000	-SN	9999	0	0	0	3120
2019/10/18 13:30:00	BASE	29.79	23	38.69	31	-2.0	96	-2.6	227	0	981.6	NA	0.0000	-SN	9999	3610	0	0	0
2019/10/18 13:31:00	BASE	29.90	24	38.69	31	-2.0	97	-2.4	235	0	981.6	NA	0.2540	-SN	9999	3840	0	0	0
2019/10/18 13:32:00	BASE	31.87	24	36.94	20	-1.9	97	-2.3	235	0	981.2	NA	0.0000	-SN	9000	360	0	0	0
2019/10/18 13:33:00	BASE	32.26	23	36.94	20	-1.9	98	-2.2	233	0	981.5	NA	0.0000	-SN	9999	3740	0	0	0
2019/10/18 13:34:00	BASE	31.61	21	36.94	20	-1.8	98	-2.1	229	0	981.6	NA	0.0000	-SN	9999	2560	3840	0	0
2019/10/18 13:35:00	BASE	32.13	20	35.60	19	-1.7	98	-2.0	230	0	981.5	NA	0.0000	-SN	9999	2990	0	0	0
2019/10/18 13:36:00	BASE	32.01	18	35.60	19	-1.7	98	-1.9	228	0	981.6	NA	0.0000	-SN	9999	2360	0	0	0
2019/10/18 13:37:00	BASE	30.11	14	35.60	19	-1.6	98	-1.9	206	0	981.8	NA	0.0000	-SN	9999	1350	0	0	0
2019/10/18 13:38:00	BASE	26.94	9	35.60	19	-1.6	98	-1.9	204	0	982.0	NA	0.0000	-SN	9999	0	0	0	3900
2019/10/18 13:39:00	BASE	25.74	7	35.09	15	-1.6	97	-1.9	209	0	981.9	NA	0.0000	-SN	9999	430	0	0	0
2019/10/18 13:40:00	BASE	27.23	9	35.09	15	-1.6	97	-1.9	203	0	981.9	NA	0.0000	-SN	9999	1410	0	0	0
2019/10/18 13:41:00	BASE	27.87	13	35.09	15	-1.5	97	-1.9	206	0	981.9	NA	0.0000	-SN	9999	2490	12830	0	0
2019/10/18 13:42:00	BASE	26.91	17	35.09	15	-1.4	97	-1.9	223	0	982.0	NA	0.0000	-SN	9999	1540	0	0	0
2019/10/18 13:43:00	BASE	26.88	17	35.09	15	-1.4	97	-1.9	244	0	981.8	NA	0.0000	-SN	9999	2460	0	0	0
2019/10/18 13:44:00	BASE	28.91	18	35.09	15	-1.3	96	-1.9	253	0	981.7	NA	0.0000	-SN	9999	4100	0	0	0
2019/10/18 13:45:00	BASE	30.36	19	35.09	15	-1.3	96	-1.9	251	0	981.7	NA	0.0000	-SN	9999	2820	0	0	0
2019/10/18 13:46:00	BASE	31.87	17	38.12	14	-1.3	95	-2.0	262	0	981.5	NA	0.0000	-SN	9999	2460	0	0	0
2019/10/18 13:47:00	BASE	32.75	10	38.12	14	-1.3	95	-2.0	271	0	981.7	NA	0.0000		9999	2460	0	0	0
2019/10/18 13:48:00	BASE	30.02	6	38.12	14	-1.3	94	-2.1	273	0	982.0	NA	0.0000		9999	2360	0	0	0
2019/10/18 13:49:00	BASE	27.62	8	38.12	14	-1.3	94	-2.1	277	0	982.0	NA	0.0000		9999	2200	0	0	0
2019/10/18 13:50:00	BASE	29.68	10	38.12	14	-1.2	93	-2.2	276	0	981.8	NA	0.0000		9999	3710	4230	0	0
2019/10/18 13:51:00	BASE	31.04	10	38.12	14	-1.2	93	-2.2	268	0	981.8	NA	0.0000		9999	2760	4400	0	0
2019/10/18 13:52:00	BASE	28.55	9	38.12	14	-1.2	93	-2.2	275	0	982.0	NA	0.0000		9999	2820	0	0	0
2019/10/18 13:53:00	BASE	26.90	8	38.12	14	-1.1	93	-2.1	272	0	982.0	NA	0.0000		9999	4460	0	0	0
2019/10/18 13:54:00	BASE	26.96	6	38.12	14	-1.0	93	-2.0	256	0	982.0	NA	0.0000		9999	2790	0	0	0
2019/10/18 13:55:00	BASE	27.40	6	38.12	14	-0.9	93	-1.9	242	0	981.9	NA	0.0000		9999	2490	3280	0	0
2019/10/18 13:56:00	BASE	29.97	7	34.26	6	-0.8	93	-1.8	226	0	981.8	NA	0.0000		9999	1570	0	0	0
2019/10/18 13:57:00	BASE	30.37	8	34.26	6	-0.7	93	-1.7	205	0	982.0	NA	0.0000		9999	390	2590	0	0
2019/10/18 13:58:00	BASE	28.91	11	34.26	6	-0.7	93	-1.7	211	0	982.1	NA	0.0000		9999	2330	0	0	0
2019/10/18 13:59:00	BASE	27.56	10	34.26	6	-0.6	92	-1.7	213	0	982.2	NA	0.0000		9999	2400	3150	0	0
2019/10/18 14:00:00	BASE	24.35	5	34.26	6	-0.6	92	-1.7	219	0	982.4	NA	0.0000		9999	2430	0	0	0
2019/10/18 14:01:00	BASE	23.38	5	34.26	6	-0.6	92	-1.8	230	0	982.3	NA	0.0000		9999	2660	0	0	0
2019/10/18 14:02:00	BASE	22.50	360	34.26	6	-0.6	91	-1.8	242	0	982.5	NA	0.0000		9999	3120	0	0	0
2019/10/18 14:03:00	BASE	20.55	350	34.26	6	-0.5	91	-1.8	228	0	982.5	NA	0.0000		9999	0	0	0	4760
2019/10/18 14:04:00	BASE	19.52	353	34.26	6	-0.5	91	-1.8	227	0	982.6	NA	0.0000		9999	2260	3050	0	0
2019/10/18 14:05:00	BASE	21.18	0	34.11	6	-0.5	91	-1.8	230	0	982.3	NA	0.0000		9999	2760	0	0	0
2019/10/18 14:06:00	BASE	23.47	3	32.56	8	-0.5	91	-1.8	227	0	982.3	NA	0.0000		9999	1150	0	0	0
2019/10/18 14:07:00	BASE	26.02	7	32.56	8	-0.5	90	-1.9	219	0	982.0	NA	0.0000		9999	0	0	0	3580
2019/10/18 14:08:00	BASE	28.58	14	32.67	5	-0.6	90	-1.9	212	0	982.0	NA	0.0000		9999	0	0	0	4100
2019/10/18 14:09:00	BASE	26.97	14	32.67	5	-0.7	91	-2.0	210	0	982.3	NA	0.0000		9999	1210	3150	0	0
2019/10/18 14:10:00	BASE	26.34	10	32.67	5	-0.7	91	-2.1	215	0	982.2	NA	0.0000		9999	0	0	0	2950
2019/10/18 14:11:00	BASE	27.20	7	32.67	5	-0.8	91	-2.2	215	0	982.2	NA	0.0000		9999	2070	0	0	0
2019/10/18 14:12:00	BASE	26.87	6	32.67	5	-0.8	91	-2.2	214	0	982.1	NA	0.0000		9999	1250	0	0	0
2019/10/18 14:13:00	BASE	27.63	9	32.67	5	-0.8	90	-2.2	203	0	982.1	NA	0.0000		9999	520	0	0	0
2019/10/18 14:14:00	BASE	27.55	11	32.67	5	-0.8	90	-2.2	214	0	982.2	NA	0.0000		9999	2230	0	0	0
2019/10/18 14:15:00	BASE	28.33	9	32.82	2	-0.7	90	-2.1	217	0	982.0	NA	0.0000		9999	2130	0	0	0
2019/10/18 14:16:00	BASE	27.35	359	32.82	2	-0.6	90	-2.0	211	0	982.3	NA	0.0000		9999	2100	23200	0	0
2019/10/18 14:17:00	BASE	24.99	359	32.82	2	-0.6	90	-2.0	209	0	982.2	NA	0.0000		9999	2330	0	0	0
2019/10/18 14:18:00	BASE	25.99	4	32.82	2	-0.6	90	-2.0	215	0	982.2	NA	0.0000		9999	2400	0	0	0
2019/10/18 14:19:00	BASE	26.34	5	32.82	2	-0.6	90	-2.0	228	0	982.2	NA	0.0000		9999	2030	0	0	0
2019/10/18 14:20:00	BASE	26.86	12	32.82	2	-0.6	90	-2.0	253	0	982.1	NA	0.0000		9999	2760	0	0	0
2019/10/18 14:21:00	BASE	28.13	13	32.82	2	-0.6	90	-2.1	276	0	982.0	NA	0.0000		9999	2590	4860	0	0
2019/10/18 14:22:00	BASE	28.38	13	32.82	2	-0.6	89	-2.2	290	0	982.1	NA	0.0000		9999	4890	0	0	0
2019/10/18 14:23:00	BASE	27.75	14	32.82	2	-0.7	89	-2.2	288	0	982.1	NA	0.0000		9999	2690	5150	0	0
2019/10/18 14:24:00	BASE	26.38	11	32.82	2	-0.7	89	-2.3	291	0	982.2	NA	0.0000		9999	2100	4920	0	0
2019/10/18 14:25:00	BASE	25.55	8	30.61	13	-0.7	89	-2.2	282	0	982.2	NA	0.0000		9999	2560	0	0	0
2019/10/18 14:26:00	BASE	26.57	6	30.61	13	-0.6	89	-2.2	268	0	982.1	NA	0.0000		9999	2530	0	0	0
2019/10/18 14:27:00	BASE	26.40	4	30.61	13	-0.6	90	-2.1	251	0	982.4	NA	0.0000		9999	2070	24210	0	0
2019/10/18 14:28:00	BASE	25.68	2	30.61	13	-0.5	90	-2.0	249	0	982.4	NA	0.0000		9999	790	0	0	0
2019/10/18 14:29:00	BASE	26.64	3	30.61	13	-0.5	90	-1.9	259	0	982.3	NA	0.0000		9999	1770	0	0	0
2019/10/18 14:30:00	BASE	27.28	7	30.61	13	-0.4	90	-1.9	270	0	982.3	NA	0.0000		9999	2790	0	0	0
2019/10/18 14:31:00	BASE	26.99	11	30.30	18	-0.5	90	-1.9	269	0	982.3	NA	0.0000		9999	2760	5120	0	0
2019/10/18 14:32:00	BASE	26.62	12	29.84	14	-0.5	90	-1.9	275	0	982.3	NA	0.0000		9999	2300	0	0	0
2019/10/18 14:33:00	BASE	26.50	11	29.37	360	-0.5	90	-2.0	283	0	982.3	NA	0.0000		9999	2170	5120	0	0
2019/10/18 14:34:00	BASE	27.17	9	29.37	360	-0.5	90	-2.0	294	0	982.3	NA	0.0000		9999	2000	0	0	0
2019/10/18 14:35:00	BASE	27.23	8	29.37	360	-0.5	90	-2.0	306	0	982.3	NA	0.0000		9999	2660	6000	0	0
2019/10/18 14:36:00	BASE	26.14	8	29.58	7	-0.5	90	-1.9	325	0	982.2	NA	0.0000		9999	1870	0	0	0
2019/10/18 14:37:00	BASE	25.82	7	29.58	7	-0.4	90	-1.9	331	0	982.2	NA	0.0000		9999	1900	9810	0	0
2019/10/18 14:38:00	BASE	25.77	7	29.58	7	-0.4	90	-1.8	360	0	982.3	NA	0.0000		9999	6040	0	0	0
2019/10/18 14:39:00	BASE	25.80	8	31.18	9	-0.3	90	-1.8	386	0	982.4	NA	0.0000		9999	9880	21390	0	0
2019/10/18 14:40:00	BASE	24.82	4	31.18	9	-0.3	90	-1.7	522	0	982.5	NA	0.0000		9999	2620	9740	0	0
2019/10/18 14:41:00	BASE	23.93	5	31.18	9	-0.2	90	-1.6	412	0	982.5	NA	0.0000		9999	6200	9780	0	0
2019/10/18 14:42:00	BASE	24.71	7	31.18	9	-0.2	90	-1.6	542	0	982.5	NA	0.0000		9999	2690	9840	0	0
2019/10/18 14:43:00	BASE	25.60	6	31.18	9	-0.2	90	-1.6	477	0	982.4	NA	0.0000		9999	2890	9680	0	0
2019/10/18 14:44:00	BASE	26.23	6	31.18	9	-0.2	90	-1.6	486	0	982.4	NA	0.0000		9999	9740	0	0	0
2019/10/18 14:45:00	BASE	26.23	6	31.18	9	-0.2	90	-1.5	459	0	982.5	NA	0.0000		9999	2620	9740	0	0
2019/10/18 14:46:00	BASE	25.51	6	31.18	9	-0.2	91	-1.5	479	0	982.5	NA	0.0000		9999	2720	9740	22540	0
2019/10/18 14:47:00	BASE	25.75	7	31.18	9	-0.1	91	-1.5	540	0	982.5	NA	0.0000		9999	2720	0	0	0
2019/10/18 14:48:00	BASE	26.79	5	31.18	9	-0.1	91	-1.4	515	0	982.5	NA	0.0000		9999	2490	0	0	0
2019/10/18 14:49:00	BASE	26.15	0	29.07	6	-0.1	91	-1.4	511	0	982.6	NA	0.0000		9999	2760	0	0	0
2019/10/18 14:50:00	BASE	25.21	355	29.07	6	-0.0	91	-1.3	582	0	982.6	NA	0.0000		9999	2430	0	0	0
2019/10/18 14:51:00	BASE	25.37	359	29.07	6	-0.0	91	-1.3	814	0	982.6	NA	0.0000		9999	2400	0	0	0
2019/10/18 14:52:00	BASE	25.18	4	29.07	6	0.0	91	-1.3	574	0	982.6	NA	0.0000		9999	2690	0	0	0
2019/10/18 14:53:00	BASE	24.69	4	29.07	6	0.0	91	-1.3	509	0	982.7	NA	0.0000		9999	2820	0	0	0
2019/10/18 14:54:00	BASE	23.40	0	29.07	6	0.1	91	-1.3	475	0	982.8	NA	0.0000		9999	2820	0	0	0
2019/10/18 14:55:00	BASE	21.76	354	29.07	6	0.1	91	-1.3	368	0	982.8	NA	0.0000		9999	2690	0	0	0
2019/10/18 14:56:00	BASE	21.03	354	29.07	6	0.1	91	-1.2	329	0	982.9	NA	0.0000		9999	0	0	0	2030
2019/10/18 14:57:00	BASE	22.00	355	29.07	6	0.1	91	-1.2	310	0	982.8	NA	0.0000		9999	430	0	0	0
2019/10/18 14:58:00	BASE	21.62	351	28.04	5	0.0	91	-1.3	288	0	982.9	NA	0.0000		9999	1440	0	0	0
2019/10/18 14:59:00	BASE	20.56	353	27.78	2	-0.0	91	-1.3	275	0	982.9	NA	0.0000		9999	430	22020	0	0
2019/10/18 15:00:00	BASE	21.14	357	27.78	2	-0.1	91	-1.3	264	0	982.9	NA	0.0000		9999	390	0	0	0
2019/10/18 15:01:00	BASE	20.56	356	26.70	5	-0.1	91	-1.4	287	0	982.9	NA	0.0000		9999	1250	0	0	0
2019/10/18 15:02:00	BASE	20.12	350	26.70	5	-0.2	92	-1.4	395	0	982.9	NA	0.0000		9999	1410	22640	0	0
2019/10/18 15:03:00	BASE	21.83	350	28.09	2	-0.2	92	-1.3	404	0	982.8	NA	0.0000		9999	1250	0	0	0
2019/10/18 15:04:00	BASE	21.24	350	28.09	2	-0.2	92	-1.3	409	0	982.9	NA	0.0000		9999	430	2330	0	0
2019/10/18 15:05:00	BASE	19.15	347	28.09	2	-0.2	92	-1.3	418	0	983.0	NA	0.0000		9999	460	0	0	0
2019/10/18 15:06:00	BASE	19.31	345	28.09	2	-0.2	93	-1.2	435	0	983.0	NA	0.0000		9999	590	0	0	0
2019/10/18 15:07:00	BASE	19.26	345	28.09	2	-0.1	93	-1.2	436	0	983.0	NA	0.0000		9999	390	2130	0	0
2019/10/18 15:08:00	BASE	19.25	347	28.09	2	-0.1	93	-1.1	455	0	983.0	NA	0.0000		9999	360	0	0	0
2019/10/18 15:09:00	BASE	17.82	350	28.09	2	-0.1	93	-1.1	455	0	983.1	NA	0.0000		9999	330	0	0	0
2019/10/18 15:10:00	BASE	16.32	353	28.09	2	-0.2	93	-1.1	432	0	983.2	NA	0.0000		9999	2130	0	0	0
2019/10/18 15:11:00	BASE	16.33	354	28.09	2	-0.2	94	-1.1	383	0	983.2	NA	0.0000		9999	750	2130	0	0
2019/10/18 15:12:00	BASE	16.87	354	28.09	2	-0.2	94	-1.0	378	0	983.1	NA	0.0000		9999	2200	0	0	0
2019/10/18 15:13:00	BASE	17.81	353	23.10	318	-0.2	95	-1.0	391	0	983.1	NA	0.0000		9999	1020	1970	0	0
2019/10/18 15:14:00	BASE	19.34	351	23.66	344	-0.2	95	-0.9	383	0	983.1	NA	0.0000		9999	2200	0	0	0
2019/10/18 15:15:00	BASE	20.91	351	23.66	344	-0.2	95	-0.9	549	0	983.1	NA	0.0000		9999	2100	0	0	0
2019/10/18 15:16:00	BASE	20.25	348	23.66	344	-0.2	95	-0.9	428	0	983.2	NA	0.0000		9999	2170	0	0	0
2019/10/18 15:17:00	BASE	18.42	348	23.66	344	-0.2	95	-0.9	563	0	983.3	NA	0.0000		9999	560	0	0	0
2019/10/18 15:18:00	BASE	17.48	349	23.66	344	-0.1	95	-0.8	441	0	983.3	NA	0.0000		9999	1540	20540	0	0
2019/10/18 15:19:00	BASE	18.83	347	23.66	344	-0.1	95	-0.9	392	0	983.2	NA	0.0000		9999	390	1940	0	0
2019/10/18 15:20:00	BASE	20.55	346	23.66	344	-0.1	95	-0.9	356	0	983.3	NA	0.0000		9999	390	0	0	0
2019/10/18 15:21:00	BASE	21.03	344	23.72	343	-0.2	95	-0.9	314	0	983.3	NA	0.0000		9999	360	0	0	0
2019/10/18 15:22:00	BASE	20.34	341	23.72	343	-0.2	95	-1.0	310	0	983.4	NA	0.0000		9999	330	22970	0	0
2019/10/18 15:23:00	BASE	19.37	341	23.72	343	-0.3	95	-1.1	298	0	983.4	NA	0.0000		9999	300	0	0	0
2019/10/18 15:24:00	BASE	19.98	342	23.72	343	-0.4	95	-1.1	331	0	983.4	NA	0.0000		9999	330	0	0	0
2019/10/18 15:25:00	BASE	21.56	342	24.90	341	-0.5	95	-1.1	328	0	983.4	NA	0.0000		9999	850	0	0	0
2019/10/18 15:26:00	BASE	21.45	339	24.90	341	-0.5	96	-1.1	282	0	983.5	NA	0.0000		9999	1970	0	0	0
2019/10/18 15:27:00	BASE	21.57	333	25.98	334	-0.6	96	-1.1	278	0	983.5	NA	0.0000		9999	560	0	0	0
2019/10/18 15:28:00	BASE	22.79	331	25.98	334	-0.7	97	-1.1	262	0	983.5	NA	0.0000		9999	720	0	0	0
2019/10/18 15:29:00	BASE	21.61	332	25.98	334	-0.7	98	-1.1	258	0	983.6	NA	0.0000		9999	820	0	0	0
2019/10/18 15:30:00	BASE	19.36	331	25.98	334	-0.8	98	-1.0	268	0	983.7	NA	0.0000		9999	1080	0	0	0
2019/10/18 15:31:00	BASE	19.27	328	25.98	334	-0.8	99	-1.0	285	0	983.6	NA	0.0000		9999	1020	21030	0	0
2019/10/18 15:32:00	BASE	19.92	329	25.98	334	-0.8	99	-1.0	293	0	983.7	NA	0.0000		9999	1310	0	0	0
2019/10/18 15:33:00	BASE	19.10	329	25.98	334	-0.8	99	-0.9	313	0	983.7	NA	0.0000		9999	1410	0	0	0
2019/10/18 15:34:00	BASE	18.25	326	25.98	334	-0.8	100	-0.9	334	0	983.7	NA	0.0000		9999	1770	21790	22470	0
2019/10/18 15:35:00	BASE	17.31	325	25.98	334	-0.8	100	-0.9	362	0	983.7	NA	0.0000		9999	1800	0	0	0
2019/10/18 15:36:00	BASE	16.61	326	25.98	334	-0.8	100	-0.8	365	0	983.7	NA	0.0000		9999	1710	0	0	0
2019/10/18 15:37:00	BASE	16.50	328	24.02	334	-0.8	100	-0.8	465	0	983.7	NA	0.0000		9999	1840	0	0	0
2019/10/18 15:38:00	BASE	16.82	330	22.74	325	-0.8	100	-0.8	327	0	983.7	NA	0.0000		9999	1900	0	0	0
2019/10/18 15:39:00	BASE	17.09	332	22.74	325	-0.8	100	-0.8	296	0	983.6	NA	0.0000		9999	2230	0	0	0
2019/10/18 15:40:00	BASE	16.72	332	22.74	325	-0.8	100	-0.8	316	0	983.7	NA	0.0000		9999	2300	0	0	0
2019/10/18 15:41:00	BASE	16.50	331	21.14	320	-0.8	100	-0.8	314	0	983.7	NA	0.0000		9999	2300	0	0	0
2019/10/18 15:42:00	BASE	16.55	331	21.14	320	-0.8	100	-0.8	312	0	983.7	NA	0.0000		9999	1640	2990	0	0
2019/10/18 15:43:00	BASE	16.41	331	21.14	320	-0.8	100	-0.8	319	0	983.8	NA	0.0000		9999	1870	0	0	0
2019/10/18 15:44:00	BASE	15.87	331	19.60	333	-0.8	100	-0.8	321	0	983.8	NA	0.0000		9999	1380	1900	0	0
2019/10/18 15:45:00	BASE	15.47	331	19.60	333	-0.8	100	-0.8	307	0	983.8	NA	0.0000		9999	1380	0	0	0
2019/10/18 15:46:00	BASE	15.66	332	19.60	333	-0.8	100	-0.8	291	0	983.8	NA	0.0000		9999	1380	0	0	0
2019/10/18 15:47:00	BASE	16.20	331	19.60	333	-0.8	100	-0.8	265	0	983.8	NA	0.0000		9999	1350	0	0	0
2019/10/18 15:48:00	BASE	16.68	330	19.60	333	-0.8	100	-0.8	262	0	983.8	NA	0.0000		9999	1350	20900	0	0
2019/10/18 15:49:00	BASE	16.54	329	18.47	323	-0.8	100	-0.8	286	0	983.9	NA	0.0000		9999	1310	0	0	0
2019/10/18 15:50:00	BASE	15.74	331	18.47	323	-0.8	100	-0.8	278	0	983.9	NA	0.0000		9999	1800	0	0	0
2019/10/18 15:51:00	BASE	15.86	330	18.42	331	-0.8	100	-0.8	248	0	983.9	NA	0.0000		9999	1940	0	0	0
2019/10/18 15:52:00	BASE	16.42	328	18.42	331	-0.8	100	-0.8	227	0	983.9	NA	0.0000		9999	1840	0	0	0
2019/10/18 15:53:00	BASE	15.79	330	18.42	331	-0.8	100	-0.8	204	0	983.9	NA	0.0000		9999	1800	0	0	0
2019/10/18 15:54:00	BASE	14.75	329	18.42	331	-0.8	100	-0.8	198	0	984.0	NA	0.0000		9999	1800	0	0	0
2019/10/18 15:55:00	BASE	15.08	328	18.42	331	-0.8	100	-0.8	199	0	983.9	NA	0.0000		9999	1840	0	0	0
2019/10/18 15:56:00	BASE	15.69	329	18.42	331	-0.8	100	-0.8	191	0	984.0	NA	0.0000		9999	1900	0	0	0
2019/10/18 15:57:00	BASE	15.24	331	18.42	331	-0.8	100	-0.8	192	0	984.0	NA	0.0000		9999	1610	0	0	0
2019/10/18 15:58:00	BASE	15.04	330	17.65	327	-0.9	100	-0.9	194	0	984.0	NA	0.0000		9999	1640	0	0	0
2019/10/18 15:59:00	BASE	14.41	329	17.65	327	-0.9	100	-0.9	196	0	984.0	NA	0.0000		9999	1840	0	0	0
2019/10/18 16:00:00	BASE	13.96	330	17.65	327	-0.9	100	-0.9	210	0	984.0	NA	0.0000		9999	1710	0	0	0
2019/10/18 16:01:00	BASE	14.54	328	17.65	327	-0.9	100	-0.9	220	0	984.0	NA	0.0000		9999	1540	0	0	0
2019/10/18 16:02:00	BASE	14.75	331	17.65	327	-0.9	100	-0.9	219	0	984.0	NA	0.0000		9999	1510	0	0	0
2019/10/18 16:03:00	BASE	14.79	334	17.65	327	-0.8	100	-0.8	214	0	984.0	NA	0.0000		9999	1350	0	0	0
2019/10/18 16:04:00	BASE	14.73	331	17.65	327	-0.8	100	-0.8	213	0	984.0	NA	0.0000		9999	1310	0	0	0
2019/10/18 16:05:00	BASE	14.55	330	16.72	326	-0.8	100	-0.8	205	0	984.0	NA	0.0000		9999	1250	0	0	0
2019/10/18 16:06:00	BASE	14.52	331	16.67	329	-0.8	100	-0.8	221	0	984.0	NA	0.0000		9999	1310	0	0	0
2019/10/18 16:07:00	BASE	15.06	331	16.67	329	-0.9	100	-0.9	275	0	984.0	NA	0.0000		9999	1350	0	0	0
2019/10/18 16:08:00	BASE	14.87	330	16.57	333	-0.8	100	-0.8	311	0	984.0	NA	0.0000		9999	1380	1900	0	0
2019/10/18 16:09:00	BASE	13.85	329	16.57	333	-0.8	100	-0.8	321	0	984.0	NA	0.0000		9999	1570	0	0	0
2019/10/18 16:10:00	BASE	13.72	331	16.57	333	-0.8	100	-0.8	334	0	984.0	NA	0.0000		9999	1350	2200	0	0
2019/10/18 16:11:00	BASE	13.47	333	16.57	333	-0.8	100	-0.8	320	0	984.0	NA	0.0000		9999	1640	2100	0	0
2019/10/18 16:12:00	BASE	12.40	334	16.57	333	-0.8	100	-0.8	264	0	984.0	NA	0.0000		9999	1540	2100	0	0
2019/10/18 16:13:00	BASE	11.26	333	16.31	328	-0.8	100	-0.8	215	0	984.1	NA	0.0000		9999	1540	0	0	0
2019/10/18 16:14:00	BASE	11.24	332	16.31	328	-0.8	100	-0.8	196	0	984.1	NA	0.0000		9999	1640	0	0	0
2019/10/18 16:15:00	BASE	11.94	332	16.31	328	-0.8	100	-0.8	192	0	984.1	NA	0.0000		9999	1570	0	0	0
2019/10/18 16:16:00	BASE	12.77	332	16.31	328	-0.8	100	-0.8	185	0	984.1	NA	0.0000		9999	1740	0	0	0
2019/10/18 16:17:00	BASE	13.56	333	14.87	331	-0.8	100	-0.8	172	0	984.1	NA	0.0000		9999	1800	0	0	0
2019/10/18 16:18:00	BASE	14.08	332	15.59	326	-0.8	100	-0.8	162	0	984.1	NA	0.0000		9999	1510	0	0	0
2019/10/18 16:19:00	BASE	14.11	330	15.59	326	-0.9	100	-0.9	158	0	984.1	NA	0.0000		9999	1510	0	0	0
2019/10/18 16:20:00	BASE	13.97	329	15.59	326	-0.9	100	-0.9	163	0	984.1	NA	0.0000		9999	1510	0	0	0
2019/10/18 16:21:00	BASE	13.79	328	15.59	326	-0.9	100	-0.9	179	0	984.1	NA	0.0000		9999	1540	24510	0	0
2019/10/18 16:22:00	BASE	13.66	329	15.59	326	-0.9	100	-0.9	198	0	984.1	NA	0.0000		9999	1250	0	0	0
2019/10/18 16:23:00	BASE	13.45	330	15.59	326	-0.9	100	-0.9	230	0	984.1	NA	0.0000		9999	1250	0	0	0
2019/10/18 16:24:00	BASE	13.47	329	15.59	326	-0.9	100	-0.9	274	0	984.0	NA	0.0000		9999	1250	0	0	0
2019/10/18 16:25:00	BASE	13.41	330	15.59	326	-0.9	100	-0.9	288	0	984.0	NA	0.0000		9999	1970	3970	0	0
2019/10/18 16:26:00	BASE	13.97	333	15.95	333	-0.9	100	-0.9	282	0	983.9	NA	0.0000		9999	2030	0	0	0
2019/10/18 16:27:00	BASE	14.15	333	15.95	333	-0.9	100	-0.9	274	0	984.0	NA	0.0000		9999	1970	0	0	0
2019/10/18 16:28:00	BASE	13.67	334	15.95	333	-0.9	100	-0.9	269	0	984.0	NA	0.0000		9999	1900	0	0	0
2019/10/18 16:29:00	BASE	13.89	333	15.95	333	-0.8	100	-0.8	271	0	983.9	NA	0.0000		9999	1970	0	0	0
2019/10/18 16:30:00	BASE	13.85	331	15.95	333	-0.8	100	-0.8	265	0	984.0	NA	0.0000		9999	1900	2620	4100	0
2019/10/18 16:31:00	BASE	13.27	331	15.95	333	-0.9	100	-0.9	253	0	984.0	NA	0.0000		9999	4070	0	0	0
2019/10/18 16:32:00	BASE	13.05	332	15.95	333	-0.9	100	-0.9	250	0	983.9	NA	0.0000		9999	1640	4130	0	0
2019/10/18 16:33:00	BASE	13.27	334	15.95	333	-0.9	100	-0.9	259	0	983.9	NA	0.0000		9999	1670	0	0	0
2019/10/18 16:34:00	BASE	12.96	335	15.95	333	-0.9	100	-0.9	265	0	983.9	NA	0.0000		9999	1670	4100	0	0
2019/10/18 16:35:00	BASE	12.28	337	15.95	333	-0.9	100	-0.9	264	0	984.0	NA	0.0000		9999	3870	0	0	0
2019/10/18 16:36:00	BASE	11.95	337	15.64	333	-0.9	100	-0.9	268	0	984.0	NA	0.0000		9999	3810	0	0	0
2019/10/18 16:37:00	BASE	12.44	339	15.64	333	-0.8	100	-0.8	274	0	984.0	NA	0.0000		9999	4000	0	0	0
2019/10/18 16:38:00	BASE	12.94	339	15.64	346	-0.8	100	-0.8	279	0	983.9	NA	0.0000		9999	4130	0	0	0
2019/10/18 16:39:00	BASE	13.90	340	15.64	346	-0.8	100	-0.8	276	0	983.9	NA	0.0000		9999	2300	3970	0	0
2019/10/18 16:40:00	BASE	14.49	340	15.64	346	-0.8	100	-0.8	266	0	983.9	NA	0.0000		9999	2200	3940	0	0
2019/10/18 16:41:00	BASE	14.58	338	16.10	339	-0.8	100	-0.8	261	0	983.8	NA	0.0000		9999	2170	4330	0	0
2019/10/18 16:42:00	BASE	14.68	339	16.10	339	-0.8	100	-0.8	266	0	983.9	NA	0.0000		9999	2100	3940	0	0
2019/10/18 16:43:00	BASE	14.38	340	16.10	339	-0.8	100	-0.8	274	0	983.9	NA	0.0000		9999	3810	0	0	0
2019/10/18 16:44:00	BASE	13.78	339	16.10	339	-0.8	100	-0.8	277	0	983.9	NA	0.0000		9999	3670	0	0	0
2019/10/18 16:45:00	BASE	12.76	341	16.10	339	-0.8	100	-0.8	271	0	984.0	NA	0.0000		9999	4070	0	0	0
2019/10/18 16:46:00	BASE	12.09	343	16.10	339	-0.8	100	-0.8	265	0	983.9	NA	0.0000		9999	3970	0	0	0
2019/10/18 16:47:00	BASE	11.45	343	16.10	339	-0.8	100	-0.8	267	0	984.0	NA	0.0000		9999	4170	0	0	0
2019/10/18 16:48:00	BASE	11.53	344	16.10	339	-0.8	100	-0.8	272	0	983.8	NA	0.0000		9999	4360	0	0	0
2019/10/18 16:49:00	BASE	11.73	343	16.10	339	-0.8	100	-0.8	275	0	983.9	NA	0.0000		9999	4300	0	0	0
2019/10/18 16:50:00	BASE	11.43	342	16.10	339	-0.8	100	-0.8	282	0	983.9	NA	0.0000		9999	4170	0	0	0
2019/10/18 16:51:00	BASE	11.52	343	15.84	341	-0.8	100	-0.8	293	0	983.9	NA	0.0000		9999	4230	0	0	0
2019/10/18 16:52:00	BASE	11.42	342	15.07	338	-0.8	100	-0.8	304	0	983.9	NA	0.0000		9999	4330	0	0	0
2019/10/18 16:53:00	BASE	11.74	343	14.82	337	-0.8	100	-0.8	303	0	983.9	NA	0.0000		9999	4230	0	0	0
2019/10/18 16:54:00	BASE	12.77	343	14.92	341	-0.8	100	-0.8	294	0	983.9	NA	0.0000		9999	4590	0	0	0
2019/10/18 16:55:00	BASE	13.27	342	14.92	341	-0.8	100	-0.8	286	0	983.9	NA	0.0000		9999	4230	0	0	0
2019/10/18 16:56:00	BASE	13.59	343	14.92	341	-0.8	100	-0.8	281	0	983.9	NA	0.0000		9999	4130	4820	0	0
2019/10/18 16:57:00	BASE	14.18	342	15.64	341	-0.8	100	-0.8	281	0	983.9	NA	0.0000		9999	3870	0	0	0
2019/10/18 16:58:00	BASE	14.17	342	15.64	341	-0.8	100	-0.8	297	0	983.9	NA	0.0000		9999	2330	0	0	0
2019/10/18 16:59:00	BASE	13.86	346	15.64	341	-0.8	100	-0.8	317	0	983.8	NA	0.0000		9999	2620	0	0	0
2019/10/18 17:00:00	BASE	13.73	347	15.64	341	-0.8	100	-0.8	326	0	983.9	NA	0.0000		9999	4130	0	0	0
2019/10/18 17:01:00	BASE	13.07	348	15.64	341	-0.8	100	-0.8	334	0	983.9	NA	0.0000		9999	3540	0	0	0
2019/10/18 17:02:00	BASE	12.42	350	15.64	341	-0.8	100	-0.8	369	0	983.9	NA	0.0000		9999	3120	0	0	0
2019/10/18 17:03:00	BASE	13.47	350	16.05	350	-0.7	100	-0.7	574	0	983.8	NA	0.0000		9999	1310	0	0	0
2019/10/18 17:04:00	BASE	13.46	351	16.05	350	-0.7	100	-0.7	583	0	983.8	NA	0.0000		9999	850	4400	0	0
2019/10/18 17:05:00	BASE	12.47	355	16.05	350	-0.6	100	-0.6	453	0	983.8	NA	0.0000		9999	660	4560	0	0
2019/10/18 17:06:00	BASE	12.41	355	16.05	350	-0.6	100	-0.6	447	0	983.7	NA	0.0000		9999	0	0	0	2400
2019/10/18 17:07:00	BASE	11.98	352	16.05	350	-0.6	100	-0.6	446	0	983.8	NA	0.0000		9999	4860	0	0	0
2019/10/18 17:08:00	BASE	11.57	350	16.05	350	-0.5	100	-0.5	474	0	983.8	NA	0.0000		9999	4920	0	0	0
2019/10/18 17:09:00	BASE	11.53	350	16.05	350	-0.5	100	-0.5	412	0	983.8	NA	0.0000		9999	4790	0	0	0
2019/10/18 17:10:00	BASE	12.23	352	16.05	350	-0.5	100	-0.5	347	0	983.8	NA	0.0000		9999	2360	4490	0	0
2019/10/18 17:11:00	BASE	13.05	351	16.05	350	-0.4	99	-0.5	321	0	983.7	NA	0.0000		9999	2200	0	0	0
2019/10/18 17:12:00	BASE	12.58	350	16.05	350	-0.4	99	-0.6	304	0	983.8	NA	0.0000		9999	2100	0	0	0
2019/10/18 17:13:00	BASE	12.70	348	15.02	345	-0.4	99	-0.6	283	0	983.8	NA	0.0000		9999	2170	2850	0	0
2019/10/18 17:14:00	BASE	13.41	350	15.02	345	-0.5	99	-0.6	267	0	983.8	NA	0.0000		9999	2100	2760	24350	0
2019/10/18 17:15:00	BASE	13.48	351	15.95	346	-0.5	99	-0.7	250	0	983.8	NA	0.0000		9999	2000	2720	0	0
2019/10/18 17:16:00	BASE	13.45	350	15.95	346	-0.5	98	-0.7	249	0	983.8	NA	0.0000		9999	1510	0	0	0
2019/10/18 17:17:00	BASE	13.57	354	15.95	346	-0.5	98	-0.8	258	0	983.8	NA	0.0000		9999	360	20380	0	0
2019/10/18 17:18:00	BASE	13.67	353	15.95	346	-0.5	98	-0.8	256	0	983.8	NA	0.0000		9999	260	1480	0	0
2019/10/18 17:19:00	BASE	13.76	350	15.95	346	-0.5	97	-0.8	240	0	983.8	NA	0.0000		9999	330	1410	0	0
2019/10/18 17:20:00	BASE	14.03	355	15.95	346	-0.5	97	-0.9	223	0	983.8	NA	0.0000		9999	750	0	0	0
2019/10/18 17:21:00	BASE	13.72	353	15.95	346	-0.5	97	-0.9	228	0	983.9	NA	0.0000		9999	330	0	0	0
2019/10/18 17:22:00	BASE	14.10	350	15.95	349	-0.5	97	-0.9	251	0	983.8	NA	0.0000		9999	0	0	0	2170
2019/10/18 17:23:00	BASE	14.90	350	15.95	349	-0.5	97	-1.0	269	0	983.8	NA	0.0000		9999	0	0	0	2330
2019/10/18 17:24:00	BASE	14.51	351	15.95	349	-0.6	97	-1.0	277	0	983.9	NA	0.0000		9999	230	0	0	0
2019/10/18 17:25:00	BASE	13.65	349	15.95	349	-0.6	97	-1.0	271	0	983.9	NA	0.0000		9999	230	1840	0	0
2019/10/18 17:26:00	BASE	13.60	345	15.95	349	-0.7	98	-1.0	254	0	983.9	NA	0.0000		9999	850	0	0	0
2019/10/18 17:27:00	BASE	14.52	346	15.95	349	-0.7	98	-0.9	238	0	983.9	NA	0.0000		9999	1310	0	0	0
2019/10/18 17:28:00	BASE	14.79	349	16.05	347	-0.7	99	-0.8	237	0	983.9	NA	0.0000		9999	330	0	0	0
2019/10/18 17:29:00	BASE	14.46	352	16.05	349	-0.7	99	-0.8	258	0	983.9	NA	0.0000		9999	300	0	0	0
2019/10/18 17:30:00	BASE	14.35	352	16.15	353	-0.7	100	-0.7	267	0	983.9	NA	0.0000		9999	390	0	0	0
2019/10/18 17:31:00	BASE	15.02	352	17.54	353	-0.7	100	-0.7	279	0	983.8	NA	0.0000		9999	390	0	0	0
2019/10/18 17:32:00	BASE	15.30	352	17.54	353	-0.7	100	-0.7	323	0	983.9	NA	0.0000		9999	390	0	0	0
2019/10/18 17:33:00	BASE	14.91	351	17.54	353	-0.7	100	-0.7	418	0	983.9	NA	0.0000		9999	560	0	0	0
2019/10/18 17:34:00	BASE	15.66	351	17.54	353	-0.6	100	-0.6	506	0	983.9	NA	0.0000		9999	1540	0	0	0
2019/10/18 17:35:00	BASE	16.35	346	18.11	340	-0.6	100	-0.6	405	0	983.9	NA	0.0000		9999	1210	1900	0	0
2019/10/18 17:36:00	BASE	16.92	343	19.45	339	-0.5	100	-0.5	334	0	984.0	NA	0.0000		9999	390	0	0	0
2019/10/18 17:37:00	BASE	17.25	341	19.45	339	-0.5	100	-0.5	307	0	984.0	NA	0.0000		9999	360	0	0	0
2019/10/18 17:38:00	BASE	17.02	340	19.45	339	-0.5	100	-0.5	277	0	984.0	NA	0.0000		9999	1080	0	0	0
2019/10/18 17:39:00	BASE	16.49	341	19.45	339	-0.5	100	-0.5	240	0	984.1	NA	0.0000		9999	1020	0	0	0
2019/10/18 17:40:00	BASE	15.25	339	19.45	339	-0.6	100	-0.6	210	0	984.2	NA	0.0000		9999	950	0	0	0
2019/10/18 17:41:00	BASE	15.36	340	19.45	339	-0.7	100	-0.7	186	0	984.2	NA	0.0000		9999	950	0	0	0
2019/10/18 17:42:00	BASE	15.28	341	19.45	339	-0.8	100	-0.8	157	0	984.2	NA	0.0000		9999	890	0	0	0
2019/10/18 17:43:00	BASE	16.77	333	20.47	326	-0.8	100	-0.8	158	0	984.2	NA	0.0000		9999	820	0	0	0
2019/10/18 17:44:00	BASE	17.78	324	20.47	326	-0.9	100	-0.9	149	0	984.3	NA	0.0000		9999	820	1480	0	0
2019/10/18 17:45:00	BASE	16.83	321	20.47	326	-0.9	100	-0.9	152	0	984.3	NA	0.0000		9999	950	0	0	0
2019/10/18 17:46:00	BASE	18.13	325	21.30	323	-0.9	100	-0.9	156	0	984.2	NA	0.0000		9999	1050	0	0	0
2019/10/18 17:47:00	BASE	18.40	325	21.30	323	-0.9	100	-0.9	166	0	984.3	NA	0.0000		9999	890	0	0	0
2019/10/18 17:48:00	BASE	18.32	326	21.30	323	-0.9	100	-0.9	198	0	984.3	NA	0.0000		9999	890	0	0	0
2019/10/18 17:49:00	BASE	18.80	326	21.30	323	-0.9	100	-0.9	232	0	984.3	NA	0.0000		9999	1120	0	0	0
2019/10/18 17:50:00	BASE	18.30	324	21.30	323	-0.9	100	-0.9	246	0	984.4	NA	0.0000		9999	1150	0	0	0
2019/10/18 17:51:00	BASE	17.33	321	21.30	323	-0.9	100	-0.9	232	0	984.4	NA	0.0000		9999	1410	0	0	0
2019/10/18 17:52:00	BASE	16.35	319	21.30	323	-0.9	100	-0.9	193	0	984.5	NA	0.0000		9999	1280	0	0	0
2019/10/18 17:53:00	BASE	16.73	319	21.30	323	-0.9	100	-0.9	183	0	984.5	NA	0.0000		9999	1250	0	0	0
2019/10/18 17:54:00	BASE	16.94	317	21.30	323	-0.9	100	-0.9	198	0	984.5	NA	0.0000		9999	1250	0	0	0
2019/10/18 17:55:00	BASE	15.96	316	21.30	323	-1.0	100	-1.0	240	0	984.5	NA	0.0000		9999	1250	0	0	0
2019/10/18 17:56:00	BASE	17.07	316	20.47	329	-1.0	100	-1.0	242	0	984.4	NA	0.0000		9999	1740	2530	0	0
2019/10/18 17:57:00	BASE	17.65	315	20.47	329	-1.0	100	-1.0	243	0	984.4	NA	0.0000		9999	2790	0	0	0
2019/10/18 17:58:00	BASE	15.81	316	20.47	329	-1.0	100	-1.0	258	0	984.5	NA	0.0000		9999	2490	0	0	0
2019/10/18 17:59:00	BASE	16.18	318	20.37	315	-1.0	100	-1.0	285	0	984.5	NA	0.0000		9999	1670	2530	0	0
2019/10/18 18:00:00	BASE	17.42	317	20.37	315	-1.0	100	-1.0	311	0	984.5	NA	0.0000		9999	2430	0	0	0
2019/10/18 18:01:00	BASE	17.03	316	20.37	315	-1.0	100	-1.0	312	0	984.5	NA	0.0000		9999	2620	0	0	0
2019/10/18 18:02:00	BASE	16.63	315	20.37	315	-1.0	100	-1.0	308	0	984.5	NA	0.0000		9999	2530	0	0	0
2019/10/18 18:03:00	BASE	16.92	317	20.37	315	-1.0	100	-1.0	304	0	984.5	NA	0.0000		9999	2560	0	0	0
2019/10/18 18:04:00	BASE	16.69	318	20.37	315	-1.0	100	-1.0	296	0	984.5	NA	0.0000		9999	2590	0	0	0
2019/10/18 18:05:00	BASE	17.19	315	21.14	312	-1.0	100	-1.0	281	0	984.4	NA	0.0000		9999	2590	0	0	0
2019/10/18 18:06:00	BASE	17.78	315	21.14	312	-1.0	100	-1.0	276	0	984.6	NA	0.0000		9999	2260	0	0	0
2019/10/18 18:07:00	BASE	16.95	317	21.14	312	-1.0	100	-1.0	256	0	984.6	NA	0.0000		9999	2300	0	0	0
2019/10/18 18:08:00	BASE	16.84	317	21.14	312	-1.0	100	-1.0	234	0	984.6	NA	0.0000		9999	2530	0	0	0
2019/10/18 18:09:00	BASE	17.03	318	21.14	312	-1.0	100	-1.0	228	0	984.7	NA	0.0000		9999	2260	0	0	0
2019/10/18 18:10:00	BASE	17.02	317	21.14	312	-1.0	100	-1.0	227	0	984.7	NA	0.0000		9999	2200	0	0	0
2019/10/18 18:11:00	BASE	17.49	317	21.14	312	-1.1	100	-1.1	239	0	984.7	NA	0.0000		9999	2100	0	0	0
2019/10/18 18:12:00	BASE	17.83	318	21.14	312	-1.1	100	-1.1	254	0	984.7	NA	0.0000		9999	2330	0	0	0
2019/10/18 18:13:00	BASE	17.55	317	21.14	312	-1.1	100	-1.1	247	0	984.8	NA	0.0000		9999	2330	0	0	0
2019/10/18 18:14:00	BASE	17.64	320	21.14	312	-1.1	100	-1.1	243	0	984.8	NA	0.0000		9999	1410	2170	0	0
2019/10/18 18:15:00	BASE	17.18	320	19.45	319	-1.1	100	-1.1	246	0	984.8	NA	0.0000		9999	2170	0	0	0
2019/10/18 18:16:00	BASE	15.72	320	19.45	319	-1.1	100	-1.1	242	0	984.8	NA	0.0000		9999	2200	0	0	0
2019/10/18 18:17:00	BASE	15.10	320	19.45	319	-1.1	100	-1.1	238	0	984.8	NA	0.0000		9999	2300	0	0	0
2019/10/18 18:18:00	BASE	15.80	318	19.14	323	-1.1	100	-1.1	235	0	984.8	NA	0.0000		9999	2230	0	0	0
2019/10/18 18:19:00	BASE	17.31	316	19.45	312	-1.1	100	-1.1	230	0	984.8	NA	0.0000		9999	2260	0	0	0
2019/10/18 18:20:00	BASE	17.87	316	19.45	312	-1.1	100	-1.1	227	0	984.9	NA	0.0000		9999	2100	0	0	0
2019/10/18 18:21:00	BASE	16.89	316	19.45	312	-1.1	100	-1.1	225	0	984.9	NA	0.0000		9999	2130	0	0	0
2019/10/18 18:22:00	BASE	17.15	318	19.45	310	-1.1	100	-1.1	225	0	984.8	NA	0.0000		9999	2200	0	0	0
2019/10/18 18:23:00	BASE	18.38	318	20.58	318	-1.1	100	-1.1	226	0	984.9	NA	0.0000		9999	2260	0	0	0
2019/10/18 18:24:00	BASE	19.02	317	21.25	315	-1.2	100	-1.2	224	0	984.9	NA	0.0000		9999	2300	0	0	0
2019/10/18 18:25:00	BASE	19.07	316	21.25	315	-1.2	100	-1.2	218	0	984.9	NA	0.0000		9999	2330	0	0	0
2019/10/18 18:26:00	BASE	18.99	315	21.35	315	-1.2	100	-1.2	214	0	984.9	NA	0.0000		9999	2360	0	0	0
2019/10/18 18:27:00	BASE	18.61	314	21.35	315	-1.3	100	-1.3	212	0	985.0	NA	0.0000		9999	2460	0	0	0
2019/10/18 18:28:00	BASE	17.24	316	21.35	315	-1.3	100	-1.3	211	0	985.1	NA	0.0000		9999	2490	0	0	0
2019/10/18 18:29:00	BASE	16.55	317	21.35	315	-1.3	100	-1.3	212	0	985.1	NA	0.0000		9999	2360	0	0	0
2019/10/18 18:30:00	BASE	17.13	316	21.35	315	-1.2	100	-1.2	216	0	985.1	NA	0.0000		9999	2460	0	0	0
2019/10/18 18:31:00	BASE	16.93	316	21.35	315	-1.2	100	-1.3	214	0	985.1	NA	0.0000		9999	2530	0	0	0
2019/10/18 18:32:00	BASE	16.14	314	21.35	315	-1.2	99	-1.3	201	0	985.1	NA	0.0000		9999	2760	0	0	0
2019/10/18 18:33:00	BASE	16.62	313	21.35	315	-1.2	99	-1.4	194	0	984.5	NA	0.0000		9999	2430	0	0	0
2019/10/18 18:34:00	BASE	17.21	313	21.35	315	-1.2	98	-1.5	195	0	984.9	NA	0.0000		9999	2460	0	0	0
2019/10/18 18:35:00	BASE	16.35	313	21.35	315	-1.2	96	-1.7	199	0	985.2	NA	0.0000		9999	2460	0	0	0
2019/10/18 18:36:00	BASE	15.37	312	20.11	314	-1.1	95	-1.8	206	0	985.2	NA	0.0000		9999	2400	22510	0	0
2019/10/18 18:37:00	BASE	14.56	312	19.60	312	-1.1	94	-2.0	215	0	985.2	NA	0.0000		9999	2460	0	0	0
2019/10/18 18:38:00	BASE	14.86	313	19.60	312	-1.1	93	-2.1	213	0	985.2	NA	0.0000		9999	2720	0	0	0
2019/10/18 18:39:00	BASE	16.66	314	19.60	312	-1.1	92	-2.2	209	0	985.2	NA	0.0000		9999	2620	0	0	0
2019/10/18 18:40:00	BASE	17.19	314	19.60	312	-1.1	92	-2.3	217	0	985.2	NA	0.0000		9999	2530	0	0	0
2019/10/18 18:41:00	BASE	17.20	312	19.60	312	-1.1	91	-2.3	225	0	985.2	NA	0.0000		9999	2460	0	0	0
2019/10/18 18:42:00	BASE	17.66	308	20.01	301	-1.1	91	-2.4	220	0	985.2	NA	0.0000		9999	2790	0	0	0
2019/10/18 18:43:00	BASE	18.02	304	20.01	301	-1.1	90	-2.5	216	0	985.3	NA	0.0000		9999	2000	2590	0	0
2019/10/18 18:44:00	BASE	17.71	303	20.01	301	-1.1	90	-2.5	206	0	985.3	NA	0.0000		9999	1940	2660	0	0
2019/10/18 18:45:00	BASE	17.94	303	20.68	301	-1.1	89	-2.6	199	0	985.3	NA	0.0000		9999	1870	2720	0	0
2019/10/18 18:46:00	BASE	19.18	301	21.56	300	-1.1	89	-2.6	213	0	985.3	NA	0.0000		9999	1740	0	0	0
2019/10/18 18:47:00	BASE	19.46	302	21.76	297	-1.1	89	-2.6	230	0	985.2	NA	0.0000		9999	1710	0	0	0
2019/10/18 18:48:00	BASE	19.42	304	21.76	297	-1.1	90	-2.6	247	0	985.2	NA	0.0000		9999	1740	0	0	0
2019/10/18 18:49:00	BASE	20.21	302	23.10	299	-1.1	90	-2.6	252	0	985.3	NA	0.0000		9999	1710	0	0	0
2019/10/18 18:50:00	BASE	20.61	303	23.10	299	-1.2	90	-2.6	259	0	985.3	NA	0.0000		9999	1640	2790	0	0
2019/10/18 18:51:00	BASE	19.95	304	23.10	299	-1.2	90	-2.6	291	0	985.3	NA	0.0000		9999	1610	0	0	0
2019/10/18 18:52:00	BASE	19.14	304	23.10	299	-1.2	91	-2.6	360	0	985.4	NA	0.0000		9999	1670	0	0	0
2019/10/18 18:53:00	BASE	18.07	304	23.10	299	-1.2	91	-2.6	745	0	985.4	NA	0.0000		9999	2170	0	0	0
2019/10/18 18:54:00	BASE	17.17	300	23.10	299	-1.2	91	-2.5	396	0	985.4	NA	0.0000		9999	2590	0	0	0
2019/10/18 18:55:00	BASE	17.42	300	23.10	299	-1.2	91	-2.5	389	0	985.4	NA	0.0000		9999	2890	0	0	0
2019/10/18 18:56:00	BASE	17.31	300	23.10	299	-1.2	92	-2.4	379	0	985.4	NA	0.0000		9999	2990	0	0	0
2019/10/18 18:57:00	BASE	16.92	301	23.10	299	-1.3	92	-2.4	292	0	985.4	NA	0.0000		9999	3020	0	0	0
2019/10/18 18:58:00	BASE	18.16	304	23.10	299	-1.3	92	-2.4	222	0	985.4	NA	0.0000		9999	3020	0	0	0
2019/10/18 18:59:00	BASE	18.61	303	21.50	305	-1.4	92	-2.5	205	0	985.4	NA	0.0000		9999	2990	0	0	0
2019/10/18 19:00:00	BASE	18.47	303	21.09	304	-1.4	92	-2.5	231	0	985.4	NA	0.0000		9999	3120	0	0	0
2019/10/18 19:01:00	BASE	18.75	304	21.09	304	-1.5	92	-2.6	244	0	985.5	NA	0.0000		9999	2200	0	0	0
2019/10/18 19:02:00	BASE	18.34	304	21.09	304	-1.5	92	-2.7	253	0	985.6	NA	0.0000		9999	2230	0	0	0
2019/10/18 19:03:00	BASE	18.66	305	21.09	304	-1.6	91	-2.8	251	0	985.5	NA	0.0000		9999	1870	0	0	0
2019/10/18 19:04:00	BASE	18.81	303	21.92	303	-1.6	91	-2.8	257	0	985.6	NA	0.0000		9999	2130	0	0	0
2019/10/18 19:05:00	BASE	18.16	301	21.92	303	-1.6	91	-2.9	258	0	985.6	NA	0.0000		9999	2300	0	0	0
2019/10/18 19:06:00	BASE	18.39	301	21.92	303	-1.7	91	-3.0	254	0	985.1	NA	0.0000		9999	2230	0	0	0
2019/10/18 19:07:00	BASE	16.99	300	21.92	303	-1.7	91	-3.0	256	0	985.7	NA	0.0000		9999	2260	0	0	0
2019/10/18 19:08:00	BASE	15.43	299	21.92	303	-1.7	90	-3.1	240	0	985.7	NA	0.0000		9999	2260	19000	0	0
2019/10/18 19:09:00	BASE	15.70	297	21.92	303	-1.7	90	-3.1	232	0	985.6	NA	0.0000		9999	2360	0	0	0
2019/10/18 19:10:00	BASE	15.87	297	21.92	303	-1.7	90	-3.1	233	0	985.8	NA	0.0000		9999	2300	0	0	0
2019/10/18 19:11:00	BASE	17.03	297	21.92	303	-1.7	90	-3.2	241	0	985.7	NA	0.0000		9999	2460	0	0	0
2019/10/18 19:12:00	BASE	17.52	296	21.92	303	-1.8	90	-3.2	235	0	985.8	NA	0.0000		9999	2200	0	0	0
2019/10/18 19:13:00	BASE	16.46	298	21.92	303	-1.8	89	-3.3	236	0	985.8	NA	0.0000		9999	2200	0	0	0
2019/10/18 19:14:00	BASE	15.71	299	21.25	299	-1.8	89	-3.4	248	0	985.8	NA	0.0000		9999	2260	0	0	0
2019/10/18 19:15:00	BASE	16.58	297	21.25	299	-1.9	89	-3.4	264	0	985.8	NA	0.0000		9999	2330	0	0	0
2019/10/18 19:16:00	BASE	16.78	295	20.32	304	-1.9	89	-3.5	265	0	985.7	NA	0.0000		9999	2330	0	0	0
2019/10/18 19:17:00	BASE	16.41	294	20.32	304	-1.9	89	-3.5	262	0	985.8	NA	0.0000		9999	2460	0	0	0
2019/10/18 19:18:00	BASE	15.54	293	20.32	304	-1.9	89	-3.5	282	0	985.9	NA	0.0000		9999	2330	0	0	0
2019/10/18 19:19:00	BASE	14.28	294	20.32	304	-1.9	88	-3.5	267	0	985.9	NA	0.0000		9999	2130	0	0	0
2019/10/18 19:20:00	BASE	14.45	293	20.32	304	-1.9	88	-3.6	248	0	985.9	NA	0.0000		9999	2030	21330	0	0
2019/10/18 19:21:00	BASE	15.25	294	19.09	285	-1.9	88	-3.6	266	0	985.9	NA	0.0000		9999	2530	0	0	0
2019/10/18 19:22:00	BASE	15.19	296	19.09	285	-1.9	88	-3.6	259	0	985.9	NA	0.0000		9999	1870	19820	0	0
2019/10/18 19:23:00	BASE	15.40	298	19.14	297	-1.9	88	-3.5	246	0	985.9	NA	0.0000		9999	1900	0	0	0
2019/10/18 19:24:00	BASE	16.59	299	19.14	297	-1.9	89	-3.5	243	0	985.9	NA	0.0000		9999	2200	0	0	0
2019/10/18 19:25:00	BASE	17.08	295	19.60	295	-1.9	89	-3.5	252	0	985.9	NA	0.0000		9999	1840	0	0	0
2019/10/18 19:26:00	BASE	17.10	294	19.60	295	-1.9	89	-3.5	232	0	985.9	NA	0.0000		9999	1800	0	0	0
2019/10/18 19:27:00	BASE	16.03	296	19.60	295	-2.0	89	-3.5	231	0	986.0	NA	0.0000		9999	2100	0	0	0
2019/10/18 19:28:00	BASE	15.00	296	19.60	295	-2.0	89	-3.5	239	0	986.0	NA	0.0000		9999	1900	0	0	0
2019/10/18 19:29:00	BASE	15.11	294	19.60	295	-2.0	89	-3.6	274	0	986.0	NA	0.0000		9999	1740	0	0	0
2019/10/18 19:30:00	BASE	14.62	295	19.60	295	-2.0	89	-3.5	275	0	986.0	NA	0.0000		9999	1840	0	0	0
2019/10/18 19:31:00	BASE	13.72	298	19.60	295	-2.0	89	-3.5	234	0	986.0	NA	0.0000		9999	1900	0	0	0
2019/10/18 19:32:00	BASE	14.51	296	19.60	295	-2.0	90	-3.5	229	0	986.0	NA	0.0000		9999	2100	0	0	0
2019/10/18 19:33:00	BASE	15.73	293	19.60	295	-2.0	90	-3.4	234	0	986.0	NA	0.0000		9999	2100	0	0	0
2019/10/18 19:34:00	BASE	16.38	292	19.60	295	-2.0	90	-3.5	213	0	986.0	NA	0.0000		9999	2260	0	0	0
2019/10/18 19:35:00	BASE	16.54	290	18.78	293	-2.1	90	-3.6	208	0	986.0	NA	0.0000		9999	2030	0	0	0
2019/10/18 19:36:00	BASE	16.23	291	18.47	293	-2.1	89	-3.7	212	0	986.0	NA	0.0000		9999	2030	0	0	0
2019/10/18 19:37:00	BASE	15.77	294	18.47	293	-2.2	89	-3.8	218	0	986.0	NA	0.0000		9999	2070	0	0	0
2019/10/18 19:38:00	BASE	15.92	294	18.47	293	-2.2	88	-3.9	216	0	986.0	NA	0.0000		9999	1940	0	0	0
2019/10/18 19:39:00	BASE	16.20	292	18.47	293	-2.2	87	-4.0	201	0	986.0	NA	0.0000		9999	1970	0	0	0
2019/10/18 19:40:00	BASE	15.64	291	18.47	293	-2.2	87	-4.1	180	0	986.1	NA	0.0000		9999	2170	0	0	0
2019/10/18 19:41:00	BASE	14.56	290	18.47	293	-2.1	86	-4.1	173	0	986.1	NA	0.0000		9999	2170	0	0	0
2019/10/18 19:42:00	BASE	13.77	291	18.47	293	-2.1	86	-4.1	175	0	986.2	NA	0.0000		9999	2000	0	0	0
2019/10/18 19:43:00	BASE	13.86	295	17.85	288	-2.1	86	-4.2	175	0	986.2	NA	0.0000		9999	1970	0	0	0
2019/10/18 19:44:00	BASE	13.15	297	17.75	294	-2.1	86	-4.1	166	0	986.2	NA	0.0000		9999	1900	23660	0	0
2019/10/18 19:45:00	BASE	11.82	297	17.75	294	-2.1	86	-4.1	166	0	986.2	NA	0.0000		9999	1970	0	0	0
2019/10/18 19:46:00	BASE	11.45	301	17.75	294	-2.1	86	-4.0	171	0	986.2	NA	0.0000		9999	1800	0	0	0
2019/10/18 19:47:00	BASE	11.82	303	17.75	294	-2.0	87	-4.0	172	0	986.2	NA	0.0000		9999	1740	0	0	0
2019/10/18 19:48:00	BASE	12.16	304	16.82	291	-2.0	87	-3.9	175	0	986.2	NA	0.0000		9999	1770	0	0	0
2019/10/18 19:49:00	BASE	12.41	308	16.05	285	-2.0	88	-3.8	174	0	986.2	NA	0.0000		9999	1710	0	0	0
2019/10/18 19:50:00	BASE	13.56	311	15.69	308	-2.0	88	-3.7	169	0	986.2	NA	0.0000		9999	1710	18140	0	0
2019/10/18 19:51:00	BASE	15.53	309	18.52	302	-2.0	89	-3.6	172	0	986.1	NA	0.0000		9999	1740	0	0	0
2019/10/18 19:52:00	BASE	17.90	310	20.17	311	-2.0	89	-3.5	181	0	986.1	NA	0.0000		9999	1740	0	0	0
2019/10/18 19:53:00	BASE	18.17	311	20.17	308	-2.0	90	-3.5	195	0	986.2	NA	0.0000		9999	1710	0	0	0
2019/10/18 19:54:00	BASE	16.40	310	20.17	308	-2.1	90	-3.5	199	0	986.2	NA	0.0000		9999	1710	0	0	0
2019/10/18 19:55:00	BASE	16.95	308	20.17	308	-2.1	90	-3.5	206	0	986.2	NA	0.0000		9999	1740	22410	0	0
2019/10/18 19:56:00	BASE	19.02	307	21.30	306	-2.2	90	-3.5	203	0	986.2	NA	0.0000		9999	1770	0	0	0
2019/10/18 19:57:00	BASE	19.81	307	21.30	306	-2.2	90	-3.6	209	0	986.2	NA	0.0000		9999	1870	0	0	0
2019/10/18 19:58:00	BASE	18.24	305	21.30	306	-2.2	90	-3.6	201	0	986.3	NA	0.0000		9999	1940	0	0	0
2019/10/18 19:59:00	BASE	17.01	303	21.30	306	-2.2	90	-3.6	186	0	986.3	NA	0.0000		9999	2000	0	0	0
2019/10/18 20:00:00	BASE	16.95	302	21.30	306	-2.3	90	-3.7	193	0	986.4	NA	0.0000		9999	2030	0	0	0
2019/10/18 20:01:00	BASE	16.90	303	21.30	306	-2.3	90	-3.7	198	0	986.3	NA	0.0000		9999	2030	0	0	0
2019/10/18 20:02:00	BASE	17.39	304	21.30	306	-2.3	90	-3.8	194	0	986.3	NA	0.0000		9999	2000	0	0	0
2019/10/18 20:03:00	BASE	17.54	306	21.30	306	-2.3	90	-3.8	188	0	986.3	NA	0.0000		9999	2100	0	0	0
2019/10/18 20:04:00	BASE	16.81	304	21.30	306	-2.3	89	-3.9	195	0	986.4	NA	0.0000		9999	2130	0	0	0
2019/10/18 20:05:00	BASE	16.33	304	21.30	306	-2.3	89	-3.9	184	0	986.4	NA	0.0000		9999	1870	0	0	0
2019/10/18 20:06:00	BASE	17.76	306	20.68	310	-2.3	89	-3.9	183	0	986.3	NA	0.0000		9999	2000	0	0	0
2019/10/18 20:07:00	BASE	18.34	306	20.68	310	-2.3	89	-3.9	190	0	986.4	NA	0.0000		9999	1940	0	0	0
2019/10/18 20:08:00	BASE	18.10	304	20.68	310	-2.3	89	-3.9	183	0	986.4	NA	0.0000		9999	2000	0	0	0
2019/10/18 20:09:00	BASE	16.94	301	20.68	310	-2.3	89	-3.9	172	0	986.6	NA	0.0000		9999	2170	0	0	0
2019/10/18 20:10:00	BASE	15.82	296	20.68	310	-2.3	89	-3.9	175	0	986.6	NA	0.0000		9999	2130	0	0	0
2019/10/18 20:11:00	BASE	15.48	294	20.68	310	-2.3	89	-4.0	195	0	986.6	NA	0.0000		9999	2070	0	0	0
2019/10/18 20:12:00	BASE	15.71	295	20.68	310	-2.4	88	-4.0	194	0	986.6	NA	0.0000		9999	2070	0	0	0
2019/10/18 20:13:00	BASE	16.00	298	20.68	310	-2.4	88	-4.0	186	0	986.6	NA	0.0000		9999	2260	0	0	0
2019/10/18 20:14:00	BASE	15.19	301	20.68	310	-2.4	88	-4.1	181	0	986.6	NA	0.0000		9999	2070	0	0	0
2019/10/18 20:15:00	BASE	15.36	302	20.68	310	-2.4	88	-4.2	184	0	986.7	NA	0.0000		9999	2170	0	0	0
2019/10/18 20:16:00	BASE	15.17	301	19.75	305	-2.4	87	-4.2	181	0	986.7	NA	0.0000		9999	2230	0	0	0
2019/10/18 20:17:00	BASE	14.16	299	19.75	305	-2.4	87	-4.3	164	0	986.7	NA	0.0000		9999	2330	0	0	0
2019/10/18 20:18:00	BASE	14.27	302	18.21	295	-2.4	86	-4.4	155	0	986.7	NA	0.0000		9999	2230	0	0	0
2019/10/18 20:19:00	BASE	14.69	301	18.21	295	-2.4	86	-4.4	152	0	986.7	NA	0.0000		9999	2230	0	0	0
2019/10/18 20:20:00	BASE	14.68	301	18.21	295	-2.3	85	-4.5	154	0	986.7	NA	0.0000		9999	2170	0	0	0
2019/10/18 20:21:00	BASE	14.80	300	18.21	295	-2.3	85	-4.5	151	0	986.8	NA	0.0000		9999	2170	0	0	0
2019/10/18 20:22:00	BASE	13.55	299	16.87	303	-2.3	85	-4.5	145	0	986.8	NA	0.0000		9999	2360	0	0	0
2019/10/18 20:23:00	BASE	13.29	301	16.87	303	-2.3	85	-4.5	144	0	986.8	NA	0.0000		9999	2300	0	0	0
2019/10/18 20:24:00	BASE	13.93	301	16.87	303	-2.3	85	-4.5	142	0	986.7	NA	0.0000		9999	2260	0	0	0
2019/10/18 20:25:00	BASE	13.84	300	16.87	303	-2.3	85	-4.5	138	0	986.8	NA	0.0000		9999	2360	0	0	0
2019/10/18 20:26:00	BASE	13.98	301	16.87	303	-2.3	85	-4.5	132	0	986.8	NA	0.0000		9999	2330	0	0	0
2019/10/18 20:27:00	BASE	14.79	304	16.98	303	-2.3	85	-4.5	125	0	986.7	NA	0.0000		9999	2360	22570	0	0
2019/10/18 20:28:00	BASE	15.25	303	16.98	303	-2.3	85	-4.5	120	0	986.8	NA	0.0000		9999	2330	0	0	0
2019/10/18 20:29:00	BASE	14.12	303	16.98	303	-2.3	85	-4.5	116	0	986.8	NA	0.0000		9999	2200	0	0	0
2019/10/18 20:30:00	BASE	13.16	300	16.98	303	-2.3	85	-4.5	115	0	986.8	NA	0.0000		9999	2330	0	0	0
2019/10/18 20:31:00	BASE	12.58	302	16.98	303	-2.3	85	-4.5	115	0	986.8	NA	0.0000		9999	2330	23000	0	0
2019/10/18 20:32:00	BASE	12.52	308	16.98	303	-2.3	85	-4.4	113	0	986.8	NA	0.0000		9999	2330	0	0	0
2019/10/18 20:33:00	BASE	13.99	307	16.98	303	-2.3	85	-4.4	113	0	986.8	NA	0.0000		9999	2330	0	0	0
2019/10/18 20:34:00	BASE	15.11	308	16.98	303	-2.3	85	-4.4	111	0	986.7	NA	0.0000		9999	2260	0	0	0
2019/10/18 20:35:00	BASE	14.60	311	16.98	303	-2.2	85	-4.3	109	0	986.8	NA	0.0000		9999	2300	0	0	0
2019/10/18 20:36:00	BASE	14.12	313	16.98	303	-2.2	86	-4.3	112	0	986.7	NA	0.0000		9999	2230	0	0	0
2019/10/18 20:37:00	BASE	14.11	313	16.51	301	-2.2	86	-4.3	116	0	986.8	NA	0.0000		9999	2360	0	0	0
2019/10/18 20:38:00	BASE	14.29	312	16.51	301	-2.2	86	-4.2	115	0	986.8	NA	0.0000		9999	2360	0	0	0
2019/10/18 20:39:00	BASE	13.68	311	16.51	301	-2.2	86	-4.2	111	0	986.8	NA	0.0000		9999	2400	0	0	0
2019/10/18 20:40:00	BASE	13.34	308	16.51	301	-2.2	87	-4.1	109	0	986.8	NA	0.0000		9999	2300	0	0	0
2019/10/18 20:41:00	BASE	12.75	307	16.51	301	-2.2	87	-4.1	107	0	986.9	NA	0.0000		9999	2330	21850	0	0
2019/10/18 20:42:00	BASE	12.00	310	16.51	301	-2.2	87	-4.1	104	0	986.8	NA	0.0000		9999	2300	0	0	0
2019/10/18 20:43:00	BASE	13.19	310	16.05	312	-2.2	87	-4.1	100	0	986.8	NA	0.0000		9999	2300	0	0	0
2019/10/18 20:44:00	BASE	13.92	309	16.00	308	-2.3	87	-4.1	97	0	986.9	NA	0.0000		9999	2260	0	0	0
2019/10/18 20:45:00	BASE	13.84	312	16.98	310	-2.2	87	-4.1	94	0	986.9	NA	0.0000		9999	2260	0	0	0
2019/10/18 20:46:00	BASE	14.53	313	16.98	310	-2.2	87	-4.1	92	0	986.9	NA	0.0000		9999	2260	0	0	0
2019/10/18 20:47:00	BASE	14.22	313	16.98	310	-2.2	87	-4.2	90	0	987.0	NA	0.0000		9999	2230	0	0	0
2019/10/18 20:48:00	BASE	13.46	314	16.98	310	-2.2	86	-4.2	87	0	987.0	NA	0.0000		9999	2200	0	0	0
2019/10/18 20:49:00	BASE	13.65	312	16.98	310	-2.2	86	-4.2	85	0	987.0	NA	0.0000		9999	2200	0	0	0
2019/10/18 20:50:00	BASE	13.19	313	16.98	310	-2.2	86	-4.2	85	0	987.0	NA	0.0000		9999	2200	0	0	0
2019/10/18 20:51:00	BASE	13.23	315	16.98	310	-2.2	87	-4.1	86	0	987.0	NA	0.0000		9999	2200	23390	0	0
2019/10/18 20:52:00	BASE	13.25	315	16.98	310	-2.2	87	-4.1	84	0	987.0	NA	0.0000		9999	2260	0	0	0
2019/10/18 20:53:00	BASE	13.79	316	16.98	310	-2.2	87	-4.1	84	0	987.0	NA	0.0000		9999	2260	0	0	0
2019/10/18 20:54:00	BASE	14.44	315	16.98	310	-2.2	87	-4.1	87	0	987.0	NA	0.0000		9999	2360	0	0	0
2019/10/18 20:55:00	BASE	13.47	314	16.87	316	-2.2	87	-4.1	93	0	987.1	NA	0.0000		9999	2170	0	0	0
2019/10/18 20:56:00	BASE	13.30	316	16.87	316	-2.2	87	-4.0	97	0	987.1	NA	0.0000		9999	2300	0	0	0
2019/10/18 20:57:00	BASE	14.11	314	16.87	316	-2.2	88	-4.0	97	0	987.0	NA	0.0000		9999	2300	0	0	0
2019/10/18 20:58:00	BASE	13.23	311	16.87	316	-2.2	88	-4.0	95	0	987.1	NA	0.0000		9999	2460	0	0	0
2019/10/18 20:59:00	BASE	12.69	313	16.87	316	-2.2	88	-3.9	90	0	987.1	NA	0.0000		9999	2330	0	0	0
2019/10/18 21:00:00	BASE	13.66	314	16.87	316	-2.2	88	-3.9	84	0	987.1	NA	0.0000		9999	2490	0	0	0
2019/10/18 21:01:00	BASE	13.49	316	16.87	316	-2.2	88	-3.9	78	0	987.2	NA	0.0000		9999	2490	0	0	0
2019/10/18 21:02:00	BASE	13.06	316	16.87	316	-2.2	88	-3.9	75	0	987.2	NA	0.0000		9999	2070	0	0	0
2019/10/18 21:03:00	BASE	12.59	314	16.10	313	-2.2	88	-3.9	71	0	987.3	NA	0.0000		9999	2360	0	0	0
2019/10/18 21:04:00	BASE	11.99	315	16.00	312	-2.2	88	-3.9	67	0	987.3	NA	0.0000		9999	2170	0	0	0
2019/10/18 21:05:00	BASE	12.39	318	16.00	312	-2.2	88	-3.9	66	0	987.3	NA	0.0000		9999	2130	0	0	0
2019/10/18 21:06:00	BASE	12.22	315	16.00	312	-2.2	88	-3.9	66	0	987.3	NA	0.0000		9999	2330	0	0	0
2019/10/18 21:07:00	BASE	11.83	309	15.28	318	-2.2	88	-3.9	65	0	987.3	NA	0.0000		9999	2230	0	0	0
2019/10/18 21:08:00	BASE	12.04	309	15.28	318	-2.2	88	-3.9	63	0	987.3	NA	0.0000		9999	2400	0	0	0
2019/10/18 21:09:00	BASE	12.07	311	14.92	320	-2.2	89	-3.8	64	0	987.3	NA	0.0000		9999	1970	2690	0	0
2019/10/18 21:10:00	BASE	12.61	307	14.71	321	-2.2	89	-3.8	63	0	987.3	NA	0.0000		9999	2170	0	0	0
2019/10/18 21:11:00	BASE	13.49	304	14.92	302	-2.2	89	-3.7	64	0	987.3	NA	0.0000		9999	1840	2620	0	0
2019/10/18 21:12:00	BASE	13.43	305	14.92	302	-2.2	89	-3.7	65	0	987.4	NA	0.0000		9999	2660	0	0	0
2019/10/18 21:13:00	BASE	13.08	306	14.92	302	-2.2	90	-3.7	67	0	987.3	NA	0.0000		9999	1870	2530	0	0
2019/10/18 21:14:00	BASE	13.26	307	14.92	302	-2.2	90	-3.7	67	0	987.4	NA	0.0000		9999	2460	0	0	0
2019/10/18 21:15:00	BASE	12.85	307	14.92	302	-2.2	90	-3.6	65	0	987.4	NA	0.0000		9999	2620	0	0	0
2019/10/18 21:16:00	BASE	12.24	306	14.92	302	-2.2	90	-3.7	62	0	987.3	NA	0.0000		9999	2590	0	0	0
2019/10/18 21:17:00	BASE	12.94	307	14.92	302	-2.3	90	-3.7	60	0	987.3	NA	0.0000		9999	2560	0	0	0
2019/10/18 21:18:00	BASE	13.47	307	14.92	302	-2.3	90	-3.7	61	0	987.3	NA	0.0000		9999	1840	0	0	0
2019/10/18 21:19:00	BASE	12.94	305	14.92	302	-2.3	90	-3.7	62	0	987.3	NA	0.0000		9999	1840	2720	0	0
2019/10/18 21:20:00	BASE	12.53	303	14.92	302	-2.3	90	-3.7	61	0	987.3	NA	0.0000		9999	2460	0	0	0
2019/10/18 21:21:00	BASE	12.38	303	14.61	310	-2.3	90	-3.7	60	0	987.3	NA	0.0000		9999	2560	0	0	0
2019/10/18 21:22:00	BASE	12.62	303	14.61	310	-2.3	90	-3.7	59	0	987.3	NA	0.0000		9999	2170	0	0	0
2019/10/18 21:23:00	BASE	12.71	302	14.61	310	-2.3	90	-3.7	58	0	987.3	NA	0.0000		9999	2590	0	0	0
2019/10/18 21:24:00	BASE	12.49	298	14.51	308	-2.3	90	-3.8	57	0	987.3	NA	0.0000		9999	2620	0	0	0
2019/10/18 21:25:00	BASE	12.42	294	14.51	308	-2.3	90	-3.8	56	0	987.3	NA	0.0000		9999	2590	0	0	0
2019/10/18 21:26:00	BASE	11.59	298	14.51	308	-2.3	89	-3.8	55	0	987.3	NA	0.0000		9999	2560	0	0	0
2019/10/18 21:27:00	BASE	10.52	301	13.94	303	-2.3	89	-3.9	54	0	987.4	NA	0.0000		9999	2560	0	0	0
2019/10/18 21:28:00	BASE	11.41	295	13.94	292	-2.3	88	-4.0	53	0	987.4	NA	0.0000		9999	2490	0	0	0
2019/10/18 21:29:00	BASE	12.02	293	13.94	292	-2.3	88	-4.0	53	0	987.4	NA	0.0000		9999	2460	0	0	0
2019/10/18 21:30:00	BASE	10.92	295	13.94	292	-2.4	88	-4.1	52	0	987.4	NA	0.0000		9999	2430	0	0	0
2019/10/18 21:31:00	BASE	10.93	293	13.94	292	-2.4	88	-4.1	50	0	987.4	NA	0.0000		9999	2400	0	0	0
2019/10/18 21:32:00	BASE	10.72	294	13.94	292	-2.4	88	-4.2	49	0	987.5	NA	0.0000		9999	2530	0	0	0
2019/10/18 21:33:00	BASE	10.53	296	13.94	292	-2.4	87	-4.2	49	0	987.5	NA	0.0000		9999	2460	0	0	0
2019/10/18 21:34:00	BASE	11.24	297	13.94	292	-2.4	87	-4.3	49	0	987.5	NA	0.0000		9999	2430	0	0	0
2019/10/18 21:35:00	BASE	11.21	297	13.94	292	-2.4	86	-4.3	49	0	987.6	NA	0.0000		9999	2400	0	0	0
2019/10/18 21:36:00	BASE	10.90	295	13.94	292	-2.4	86	-4.4	49	0	987.6	NA	0.0000		9999	2400	0	0	0
2019/10/18 21:37:00	BASE	10.58	296	13.94	292	-2.4	86	-4.5	48	0	987.6	NA	0.0000		9999	2170	0	0	0
2019/10/18 21:38:00	BASE	9.85	296	12.91	290	-2.4	85	-4.5	46	0	987.6	NA	0.0000		9999	2400	0	0	0
2019/10/18 21:39:00	BASE	9.13	292	12.91	290	-2.4	85	-4.5	45	0	987.7	NA	0.0000		9999	2530	0	0	0
2019/10/18 21:40:00	BASE	9.20	293	12.91	290	-2.4	85	-4.6	43	0	987.7	NA	0.0000		9999	2260	0	0	0
2019/10/18 21:41:00	BASE	8.91	293	12.45	300	-2.4	85	-4.6	43	0	987.7	NA	0.0000		9999	2230	0	0	0
2019/10/18 21:42:00	BASE	8.29	296	12.45	300	-2.4	85	-4.6	42	0	987.8	NA	0.0000		9999	2230	0	0	0
2019/10/18 21:43:00	BASE	8.02	300	12.14	295	-2.4	85	-4.5	42	0	987.8	NA	0.0000		9999	2200	0	0	0
2019/10/18 21:44:00	BASE	7.93	300	11.57	298	-2.4	85	-4.5	42	0	987.8	NA	0.0000		9999	2100	0	0	0
2019/10/18 21:45:00	BASE	7.59	302	11.47	301	-2.4	86	-4.5	41	0	987.8	NA	0.0000		9999	2260	0	0	0
2019/10/18 21:46:00	BASE	7.23	303	11.47	301	-2.4	86	-4.4	40	0	987.8	NA	0.0000		9999	2300	0	0	0
2019/10/18 21:47:00	BASE	7.11	302	10.60	288	-2.4	86	-4.4	39	0	987.8	NA	0.0000		9999	2260	0	0	0
2019/10/18 21:48:00	BASE	7.67	300	10.60	288	-2.4	87	-4.4	38	0	987.8	NA	0.0000		9999	2330	0	0	0
2019/10/18 21:49:00	BASE	8.28	302	10.55	295	-2.4	87	-4.3	39	0	987.8	NA	0.0000		9999	2170	0	0	0
2019/10/18 21:50:00	BASE	8.29	306	9.57	300	-2.5	87	-4.3	39	0	987.8	NA	0.0000		9999	2200	0	0	0
2019/10/18 21:51:00	BASE	8.36	304	9.36	302	-2.5	87	-4.3	38	0	987.8	NA	0.0000		9999	2200	0	0	0
2019/10/18 21:52:00	BASE	7.71	300	9.36	302	-2.5	87	-4.3	37	0	987.8	NA	0.0000		9999	2330	0	0	0
2019/10/18 21:53:00	BASE	7.16	299	9.36	302	-2.4	88	-4.2	35	0	987.9	NA	0.0000		9999	2200	0	0	0
2019/10/18 21:54:00	BASE	7.12	295	9.36	302	-2.4	88	-4.2	33	0	987.9	NA	0.0000		9999	2200	0	0	0
2019/10/18 21:55:00	BASE	6.81	296	9.36	302	-2.4	88	-4.1	33	0	987.9	NA	0.0000		9999	1970	0	0	0
2019/10/18 21:56:00	BASE	6.66	298	9.36	302	-2.4	88	-4.1	32	0	987.9	NA	0.0000		9999	1770	0	0	0
2019/10/18 21:57:00	BASE	6.23	298	9.36	302	-2.4	88	-4.1	32	0	987.9	NA	0.0000		9999	1740	0	0	0
2019/10/18 21:58:00	BASE	5.85	297	9.36	302	-2.4	88	-4.1	31	0	987.9	NA	0.0000		9999	1940	0	0	0
2019/10/18 21:59:00	BASE	5.72	298	9.36	302	-2.4	88	-4.1	30	0	987.9	NA	0.0000		9999	2170	0	0	0
2019/10/18 22:00:00	BASE	5.93	295	8.75	303	-2.4	89	-4.0	29	0	987.9	NA	0.0000		9999	2100	0	0	0
2019/10/18 22:01:00	BASE	6.62	290	8.28	297	-2.4	89	-4.0	29	0	987.9	NA	0.0000		9999	1710	0	0	0
2019/10/18 22:02:00	BASE	7.22	290	8.54	291	-2.4	89	-4.0	30	0	987.9	NA	0.0000		9999	1770	0	0	0
2019/10/18 22:03:00	BASE	7.74	293	8.85	297	-2.4	89	-4.0	31	0	987.9	NA	0.0000		9999	1740	0	0	0
2019/10/18 22:04:00	BASE	8.14	294	9.88	295	-2.4	89	-4.0	32	0	987.9	NA	0.0000		9999	1120	0	0	0
2019/10/18 22:05:00	BASE	9.81	290	12.60	289	-2.5	90	-3.9	32	0	987.9	NA	0.0000		9999	2070	0	0	0
2019/10/18 22:06:00	BASE	11.47	290	13.53	297	-2.5	90	-3.9	31	0	987.9	NA	0.0000		9999	2070	0	0	0
2019/10/18 22:07:00	BASE	11.33	292	13.53	297	-2.5	90	-3.9	30	0	987.9	NA	0.0000		9999	1640	0	0	0
2019/10/18 22:08:00	BASE	10.45	289	13.53	297	-2.5	90	-3.9	29	0	987.9	NA	0.0000		9999	1740	0	0	0
2019/10/18 22:09:00	BASE	10.15	284	13.53	297	-2.5	90	-3.9	30	0	987.9	NA	0.0000		9999	1640	0	0	0
2019/10/18 22:10:00	BASE	10.39	281	13.53	297	-2.5	90	-3.9	30	0	987.9	NA	0.0000		9999	1670	0	0	0
2019/10/18 22:11:00	BASE	9.93	276	13.53	297	-2.5	90	-3.9	30	0	987.9	NA	0.0000		9999	1800	0	0	0
2019/10/18 22:12:00	BASE	10.09	273	13.53	297	-2.5	90	-3.9	29	0	987.8	NA	0.0000		9999	2070	0	0	0
2019/10/18 22:13:00	BASE	10.04	275	13.53	297	-2.5	90	-3.9	28	0	987.8	NA	0.0000		9999	1640	2170	0	0
2019/10/18 22:14:00	BASE	8.77	283	13.53	297	-2.5	90	-3.9	27	0	987.8	NA	0.0000		9999	2100	0	0	0
2019/10/18 22:15:00	BASE	9.00	288	13.53	297	-2.5	90	-3.9	27	0	987.8	NA	0.0000		9999	1710	0	0	0
2019/10/18 22:16:00	BASE	9.32	285	12.55	294	-2.5	91	-3.9	27	0	987.8	NA	0.0000		9999	2200	0	0	0
2019/10/18 22:17:00	BASE	8.57	284	12.40	273	-2.5	91	-3.8	27	0	987.8	NA	0.0000		9999	1740	2360	0	0
2019/10/18 22:18:00	BASE	8.58	285	12.40	273	-2.5	91	-3.8	28	0	987.8	NA	0.0000		9999	1570	2200	0	0
2019/10/18 22:19:00	BASE	9.08	284	12.40	273	-2.5	91	-3.7	28	0	987.8	NA	0.0000		9999	1570	2360	0	0
2019/10/18 22:20:00	BASE	10.32	280	13.12	279	-2.5	92	-3.7	28	0	987.8	NA	0.0000		9999	2260	0	0	0
2019/10/18 22:21:00	BASE	11.37	279	13.12	279	-2.5	92	-3.7	28	0	987.8	NA	0.0000		9999	690	0	0	0
2019/10/18 22:22:00	BASE	10.56	277	13.12	279	-2.6	92	-3.7	28	0	987.8	NA	0.0000		9999	1080	0	0	0
2019/10/18 22:23:00	BASE	9.30	276	13.12	279	-2.6	92	-3.7	28	0	987.8	NA	0.0000		9999	620	0	0	0
2019/10/18 22:24:00	BASE	8.69	278	13.12	279	-2.7	92	-3.8	27	0	987.8	NA	0.0000		9999	430	0	0	0
2019/10/18 22:25:00	BASE	8.17	280	13.12	279	-2.7	92	-3.8	26	0	987.9	NA	0.0000		9999	1710	0	0	0
2019/10/18 22:26:00	BASE	7.53	284	13.12	279	-2.7	92	-3.8	25	0	987.9	NA	0.0000		9999	2070	0	0	0
2019/10/18 22:27:00	BASE	8.46	285	13.12	279	-2.7	92	-3.8	24	0	987.8	NA	0.0000		9999	2070	0	0	0
2019/10/18 22:28:00	BASE	8.77	282	13.12	279	-2.7	92	-3.7	23	0	987.8	NA	0.0000		9999	1800	0	0	0
2019/10/18 22:29:00	BASE	8.55	280	13.12	279	-2.7	92	-3.7	22	0	987.8	NA	0.0000		9999	2100	0	0	0
2019/10/18 22:30:00	BASE	8.97	277	12.71	292	-2.7	93	-3.7	21	0	987.8	NA	0.0000		9999	2200	0	0	0
2019/10/18 22:31:00	BASE	8.17	277	11.16	281	-2.7	93	-3.7	20	0	987.8	NA	0.0000		9999	2030	0	0	0
2019/10/18 22:32:00	BASE	7.10	282	11.16	281	-2.7	93	-3.7	19	0	987.8	NA	0.0000		9999	1440	0	0	0
2019/10/18 22:33:00	BASE	7.47	288	11.16	281	-2.7	93	-3.7	18	0	987.8	NA	0.0000		9999	2000	0	0	0
2019/10/18 22:34:00	BASE	9.26	291	11.16	281	-2.7	93	-3.8	17	0	987.8	NA	0.0000		9999	2030	0	0	0
2019/10/18 22:35:00	BASE	9.64	290	11.16	281	-2.8	92	-3.8	17	0	987.9	NA	0.0000		9999	1740	0	0	0
2019/10/18 22:36:00	BASE	9.06	286	11.16	281	-2.8	92	-3.8	17	0	987.9	NA	0.0000		9999	1800	0	0	0
2019/10/18 22:37:00	BASE	8.02	286	11.11	289	-2.8	92	-3.9	16	0	987.9	NA	0.0000		9999	1900	0	0	0
2019/10/18 22:38:00	BASE	7.08	286	11.11	289	-2.7	92	-3.9	16	0	987.9	NA	0.0000		9999	1970	0	0	0
2019/10/18 22:39:00	BASE	7.52	285	11.11	289	-2.7	92	-3.8	16	0	987.9	NA	0.0000		9999	1770	0	0	0
2019/10/18 22:40:00	BASE	7.83	286	11.11	289	-2.7	92	-3.8	16	0	987.9	NA	0.0000		9999	660	0	0	0
2019/10/18 22:41:00	BASE	8.06	285	11.11	289	-2.7	92	-3.8	16	0	987.9	NA	0.0000		9999	430	1710	0	0
2019/10/18 22:42:00	BASE	8.05	285	11.11	289	-2.7	92	-3.8	16	0	987.9	NA	0.0000		9999	520	2130	0	0
2019/10/18 22:43:00	BASE	7.69	289	10.55	289	-2.7	92	-3.8	15	0	987.9	NA	0.0000		9999	660	0	0	0
2019/10/18 22:44:00	BASE	7.42	290	9.83	287	-2.7	92	-3.9	15	0	987.9	NA	0.0000		9999	1080	0	0	0
2019/10/18 22:45:00	BASE	6.66	292	9.83	287	-2.8	92	-3.9	14	0	987.9	NA	0.0000		9999	2070	0	0	0
2019/10/18 22:46:00	BASE	5.22	293	9.41	282	-2.8	92	-3.9	14	0	987.9	NA	0.0000		9999	2000	0	0	0
2019/10/18 22:47:00	BASE	4.34	293	9.41	282	-2.8	92	-3.9	13	0	987.9	NA	0.0000		9999	720	0	0	0
2019/10/18 22:48:00	BASE	4.63	293	9.41	282	-2.8	92	-3.9	13	0	987.9	NA	0.0000		9999	1080	0	0	0
2019/10/18 22:49:00	BASE	5.21	296	9.05	288	-2.8	93	-3.8	12	0	987.9	NA	0.0000		9999	1480	0	0	0
2019/10/18 22:50:00	BASE	5.72	297	8.80	283	-2.8	93	-3.7	12	0	987.9	NA	0.0000		9999	1940	0	0	0
2019/10/18 22:51:00	BASE	6.39	294	8.49	295	-2.8	94	-3.7	12	0	987.9	NA	0.0000		9999	1540	0	0	0
2019/10/18 22:52:00	BASE	6.61	293	8.28	290	-2.8	94	-3.7	11	0	987.9	NA	0.0000		9999	1900	0	0	0
2019/10/18 22:53:00	BASE	6.53	293	8.28	290	-2.8	94	-3.7	11	0	987.9	NA	0.0000		9999	660	0	0	0
2019/10/18 22:54:00	BASE	6.37	290	7.41	294	-2.8	94	-3.7	10	0	987.9	NA	0.0000		9999	590	0	0	0
2019/10/18 22:55:00	BASE	6.25	291	7.41	294	-2.8	93	-3.7	10	0	987.9	NA	0.0000		9999	820	0	0	0
2019/10/18 22:56:00	BASE	6.21	296	7.41	294	-2.8	93	-3.8	10	0	987.9	NA	0.0000		9999	690	0	0	0
2019/10/18 22:57:00	BASE	6.00	298	7.41	294	-2.8	92	-3.9	10	0	987.9	NA	0.0000		9999	2030	0	0	0
2019/10/18 22:58:00	BASE	5.65	297	7.41	294	-2.8	92	-3.9	9	0	987.9	NA	0.0000		9999	2030	0	0	0
2019/10/18 22:59:00	BASE	5.23	292	7.41	294	-2.7	91	-4.0	9	0	987.9	NA	0.0000		9999	2070	0	0	0
2019/10/18 23:00:00	BASE	5.13	290	7.41	294	-2.7	91	-4.0	9	0	987.9	NA	0.0000		9999	2070	0	0	0
2019/10/18 23:01:00	BASE	4.85	290	7.20	286	-2.7	91	-4.1	9	0	987.9	NA	0.0000		9999	2130	0	0	0
2019/10/18 23:02:00	BASE	4.20	284	7.20	286	-2.7	90	-4.1	8	0	987.9	NA	0.0000		9999	2000	0	0	0
2019/10/18 23:03:00	BASE	3.98	276	7.20	286	-2.7	90	-4.1	8	0	987.9	NA	0.0000		9999	1900	0	0	0
2019/10/18 23:04:00	BASE	3.87	273	7.20	286	-2.7	90	-4.0	8	0	987.9	NA	0.0000		9999	2030	0	0	0
2019/10/18 23:05:00	BASE	3.51	271	6.38	298	-2.7	91	-4.0	7	0	987.9	NA	0.0000		9999	2170	0	0	0
2019/10/18 23:06:00	BASE	3.89	272	6.33	292	-2.7	91	-4.0	7	0	987.9	NA	0.0000		9999	2330	0	0	0
2019/10/18 23:07:00	BASE	4.06	270	6.12	293	-2.6	91	-3.9	6	0	987.9	NA	0.0000		9999	2330	0	0	0
2019/10/18 23:08:00	BASE	3.67	270	5.71	289	-2.6	91	-4.0	5	0	987.9	NA	0.0000		9999	2130	0	0	0
2019/10/18 23:09:00	BASE	3.36	270	5.71	289	-2.6	90	-4.0	5	0	987.9	NA	0.0000		9999	2230	0	0	0
2019/10/18 23:10:00	BASE	3.90	270	7.41	273	-2.6	90	-4.0	4	0	987.9	NA	0.0000		9999	1840	2460	0	0
2019/10/18 23:11:00	BASE	4.92	270	7.41	273	-2.6	90	-4.0	4	0	987.9	NA	0.0000		9999	1800	0	0	0
2019/10/18 23:12:00	BASE	4.41	266	7.41	273	-2.6	90	-4.0	4	0	988.0	NA	0.0000		9999	2200	0	0	0
2019/10/18 23:13:00	BASE	4.32	261	7.41	273	-2.6	90	-4.0	3	0	988.0	NA	0.0000		9999	2400	0	0	0
2019/10/18 23:14:00	BASE	4.34	262	7.41	273	-2.7	90	-4.1	3	0	988.0	NA	0.0000		9999	1940	2490	0	0
2019/10/18 23:15:00	BASE	3.47	274	7.41	273	-2.7	90	-4.1	3	0	988.0	NA	0.0000		9999	1800	0	0	0
2019/10/18 23:16:00	BASE	3.81	290	7.41	273	-2.7	90	-4.1	3	0	988.0	NA	0.0000		9999	1770	0	0	0
2019/10/18 23:17:00	BASE	3.90	284	7.41	273	-2.7	90	-4.1	3	0	988.0	NA	0.0000		9999	1800	2560	0	0
2019/10/18 23:18:00	BASE	4.11	274	7.41	273	-2.7	90	-4.1	3	0	988.0	NA	0.0000		9999	2530	0	0	0
2019/10/18 23:19:00	BASE	5.14	280	7.41	273	-2.6	90	-4.0	3	0	988.0	NA	0.0000		9999	2230	0	0	0
2019/10/18 23:20:00	BASE	5.16	287	6.48	284	-2.6	90	-4.0	3	0	988.0	NA	0.0000		9999	2400	0	0	0
2019/10/18 23:21:00	BASE	4.61	292	6.48	284	-2.6	90	-4.0	3	0	987.9	NA	0.0000		9999	2430	0	0	0
2019/10/18 23:22:00	BASE	4.99	297	7.15	297	-2.6	90	-4.0	3	0	987.9	NA	0.0000		9999	2490	0	0	0
2019/10/18 23:23:00	BASE	6.14	298	7.15	297	-2.6	90	-4.1	2	0	988.0	NA	0.0000		9999	2300	0	0	0
2019/10/18 23:24:00	BASE	6.88	299	7.41	299	-2.7	90	-4.1	2	0	988.0	NA	0.0000		9999	2260	0	0	0
2019/10/18 23:25:00	BASE	6.83	302	7.41	299	-2.7	90	-4.1	2	0	988.0	NA	0.0000		9999	2300	0	0	0
2019/10/18 23:26:00	BASE	6.38	303	7.41	299	-2.7	90	-4.1	2	0	988.0	NA	0.0000		9999	2300	0	0	0
2019/10/18 23:27:00	BASE	6.04	305	7.41	299	-2.7	90	-4.2	2	0	988.0	NA	0.0000		9999	2260	0	0	0
2019/10/18 23:28:00	BASE	5.90	307	7.41	299	-2.7	90	-4.1	2	0	988.0	NA	0.0000		9999	2330	0	0	0
2019/10/18 23:29:00	BASE	5.99	305	7.41	299	-2.7	90	-4.1	2	0	988.0	NA	0.0000		9999	2330	0	0	0
2019/10/18 23:30:00	BASE	6.12	303	7.41	299	-2.7	90	-4.1	2	0	988.0	NA	0.0000		9999	2300	0	0	0
2019/10/18 23:31:00	BASE	6.20	305	7.41	299	-2.7	90	-4.1	2	0	988.0	NA	0.0000		9999	2230	0	0	0
2019/10/18 23:32:00	BASE	6.27	308	7.41	299	-2.7	90	-4.1	2	0	988.0	NA	0.0000		9999	2130	0	0	0
2019/10/18 23:33:00	BASE	6.13	308	7.41	299	-2.8	91	-4.1	2	0	988.0	NA	0.0000		9999	1670	0	0	0
2019/10/18 23:34:00	BASE	6.16	303	7.00	301	-2.8	91	-4.1	1	0	988.0	NA	0.0000		9999	1940	0	0	0
2019/10/18 23:35:00	BASE	6.18	299	6.89	304	-2.8	91	-4.1	1	0	988.0	NA	0.0000		9999	2130	0	0	0
2019/10/18 23:36:00	BASE	5.86	301	6.84	303	-2.8	91	-4.1	1	0	988.0	NA	0.0000		9999	1410	0	0	0
2019/10/18 23:37:00	BASE	5.60	304	6.84	303	-2.8	91	-4.1	1	0	988.0	NA	0.0000		9999	1540	0	0	0
2019/10/18 23:38:00	BASE	5.56	301	6.84	303	-2.8	91	-4.0	1	0	988.0	NA	0.0000		9999	2130	0	0	0
2019/10/18 23:39:00	BASE	5.49	303	6.84	303	-2.8	91	-4.0	1	0	988.0	NA	0.0000		9999	2170	0	0	0
2019/10/18 23:40:00	BASE	5.43	306	6.84	303	-2.8	92	-4.0	1	0	988.0	NA	0.0000		9999	2230	0	0	0
2019/10/18 23:41:00	BASE	5.43	306	6.84	303	-2.8	92	-3.9	1	0	988.0	NA	0.0000		9999	2200	0	0	0
2019/10/18 23:42:00	BASE	5.71	307	6.84	303	-2.8	92	-3.9	1	0	988.0	NA	0.0000		9999	2260	0	0	0
2019/10/18 23:43:00	BASE	6.20	306	6.84	303	-2.8	92	-3.9	1	0	988.0	NA	0.0000		9999	2300	0	0	0
2019/10/18 23:44:00	BASE	6.04	305	6.79	299	-2.8	92	-3.9	1	0	988.0	NA	0.0000		9999	2400	0	0	0
2019/10/18 23:45:00	BASE	6.01	305	6.84	307	-2.8	92	-3.9	1	0	988.1	NA	0.0000		9999	2460	0	0	0
2019/10/18 23:46:00	BASE	6.12	306	6.84	307	-2.8	92	-3.9	1	0	988.2	NA	0.0000		9999	2590	0	0	0
2019/10/18 23:47:00	BASE	5.92	309	6.84	307	-2.8	92	-4.0	1	0	988.2	NA	0.0000		9999	2590	0	0	0
2019/10/18 23:48:00	BASE	5.60	313	6.84	307	-2.8	92	-4.0	1	0	988.2	NA	0.0000		9999	2200	0	0	0
2019/10/18 23:49:00	BASE	5.39	315	6.84	307	-2.8	91	-4.0	1	0	988.2	NA	0.0000		9999	2230	0	0	0
2019/10/18 23:50:00	BASE	5.55	313	6.84	307	-2.8	91	-4.1	1	0	988.2	NA	0.0000		9999	2230	0	0	0
2019/10/18 23:51:00	BASE	5.46	313	6.84	307	-2.8	91	-4.1	1	0	988.2	NA	0.0000		9999	2330	0	0	0
2019/10/18 23:52:00	BASE	5.12	316	6.84	307	-2.8	91	-4.1	1	0	988.2	NA	0.0000		9999	2260	0	0	0
2019/10/18 23:53:00	BASE	4.65	318	6.84	307	-2.8	91	-4.0	1	0	988.2	NA	0.0000		9999	2170	0	0	0
2019/10/18 23:54:00	BASE	4.36	318	6.84	307	-2.8	91	-4.0	0	0	988.2	NA	0.0000		9999	2170	0	0	0
2019/10/18 23:55:00	BASE	4.36	317	6.53	306	-2.8	92	-4.0	0	0	988.2	NA	0.0000		9999	2200	0	0	0
2019/10/18 23:56:00	BASE	4.30	318	6.33	313	-2.8	92	-3.9	0	0	988.2	NA	0.0000		9999	2230	0	0	0
2019/10/18 23:57:00	BASE	4.19	318	6.02	311	-2.8	92	-3.9	0	0	988.2	NA	0.0000		9999	2260	0	0	0
2019/10/18 23:58:00	BASE	4.07	317	6.02	311	-2.8	92	-3.9	0	0	988.2	NA	0.0000		9999	2200	0	0	0
2019/10/18 23:59:00	BASE	4.11	316	5.76	314	-2.8	92	-3.9	0	0	988.2	NA	0.0000		9999	2200	0	0	0